<?xml version="1.0" encoding="UTF-8" standalone="no" ?>
<gpx xmlns="http://www.topografix.com/GPX/1/1" xmlns:xsi="http://www.w3.org/2001/XMLSchema-instance" xsi:schemaLocation="http://www.topografix.com/GPX/1/1 http://www.topografix.com/GPX/1/1/gpx.xsd" version="1.1" creator="VisuGPX - https://www.visugpx.com">
  <metadata>
    <name>grand Est cycling tour J2</name>
    <desc><![CDATA[que de la piste cyclable]]></desc>
  </metadata>
  <trk>
    <name><![CDATA[OR-6284551--Saverne:grand Est cycling tour J2]]></name>
    <trkseg>
      <trkpt lat="48.74003" lon="7.36608">
        <ele>198</ele>
        <time>2016-07-01T17:26:21Z</time>
      </trkpt>
      <trkpt lat="48.74003" lon="7.36612">
        <ele>198</ele>
        <time>2016-07-01T17:28:21Z</time>
      </trkpt>
      <trkpt lat="48.74003" lon="7.36616">
        <ele>197</ele>
        <time>2016-07-01T17:30:21Z</time>
      </trkpt>
      <trkpt lat="48.74002" lon="7.36619">
        <ele>197</ele>
        <time>2016-07-01T17:32:21Z</time>
      </trkpt>
      <trkpt lat="48.74001" lon="7.36623">
        <ele>197</ele>
        <time>2016-07-01T17:34:21Z</time>
      </trkpt>
      <trkpt lat="48.74" lon="7.36627">
        <ele>196</ele>
        <time>2016-07-01T17:36:21Z</time>
      </trkpt>
      <trkpt lat="48.73996" lon="7.36636">
        <ele>196</ele>
        <time>2016-07-01T17:38:21Z</time>
      </trkpt>
      <trkpt lat="48.73994" lon="7.36645">
        <ele>195</ele>
        <time>2016-07-01T17:40:21Z</time>
      </trkpt>
      <trkpt lat="48.73992" lon="7.36652">
        <ele>194</ele>
        <time>2016-07-01T17:42:21Z</time>
      </trkpt>
      <trkpt lat="48.73992" lon="7.36654">
        <ele>194</ele>
        <time>2016-07-01T17:44:21Z</time>
      </trkpt>
      <trkpt lat="48.73992" lon="7.36654">
        <ele>194</ele>
        <time>2016-07-01T17:46:21Z</time>
      </trkpt>
      <trkpt lat="48.73993" lon="7.36654">
        <ele>194</ele>
        <time>2016-07-01T17:48:21Z</time>
      </trkpt>
      <trkpt lat="48.73994" lon="7.36654">
        <ele>194</ele>
        <time>2016-07-01T17:50:21Z</time>
      </trkpt>
      <trkpt lat="48.73996" lon="7.36655">
        <ele>194</ele>
        <time>2016-07-01T17:52:21Z</time>
      </trkpt>
      <trkpt lat="48.74003" lon="7.36661">
        <ele>193</ele>
        <time>2016-07-01T17:54:21Z</time>
      </trkpt>
      <trkpt lat="48.74014" lon="7.36668">
        <ele>193</ele>
        <time>2016-07-01T17:56:21Z</time>
      </trkpt>
      <trkpt lat="48.7403" lon="7.36678">
        <ele>192</ele>
        <time>2016-07-01T17:58:21Z</time>
      </trkpt>
      <trkpt lat="48.74037" lon="7.36684">
        <ele>192</ele>
        <time>2016-07-01T18:00:21Z</time>
      </trkpt>
      <trkpt lat="48.74037" lon="7.36684">
        <ele>192</ele>
        <time>2016-07-01T18:02:21Z</time>
      </trkpt>
      <trkpt lat="48.74052" lon="7.36698">
        <ele>191</ele>
        <time>2016-07-01T18:04:21Z</time>
      </trkpt>
      <trkpt lat="48.74101" lon="7.36779">
        <ele>186</ele>
        <time>2016-07-01T18:06:21Z</time>
      </trkpt>
      <trkpt lat="48.74101" lon="7.36779">
        <ele>186</ele>
        <time>2016-07-01T18:08:21Z</time>
      </trkpt>
      <trkpt lat="48.74098" lon="7.36789">
        <ele>186</ele>
        <time>2016-07-01T18:10:21Z</time>
      </trkpt>
      <trkpt lat="48.74097" lon="7.36795">
        <ele>186</ele>
        <time>2016-07-01T18:12:21Z</time>
      </trkpt>
      <trkpt lat="48.74098" lon="7.36803">
        <ele>186</ele>
        <time>2016-07-01T18:14:21Z</time>
      </trkpt>
      <trkpt lat="48.74099" lon="7.3681">
        <ele>186</ele>
        <time>2016-07-01T18:16:21Z</time>
      </trkpt>
      <trkpt lat="48.74135" lon="7.36875">
        <ele>185</ele>
        <time>2016-07-01T18:18:21Z</time>
      </trkpt>
      <trkpt lat="48.74142" lon="7.36876">
        <ele>185</ele>
        <time>2016-07-01T18:20:21Z</time>
      </trkpt>
      <trkpt lat="48.7415" lon="7.36884">
        <ele>184</ele>
        <time>2016-07-01T18:22:21Z</time>
      </trkpt>
      <trkpt lat="48.74155" lon="7.36891">
        <ele>184</ele>
        <time>2016-07-01T18:24:21Z</time>
      </trkpt>
      <trkpt lat="48.74156" lon="7.36892">
        <ele>184</ele>
        <time>2016-07-01T18:26:21Z</time>
      </trkpt>
      <trkpt lat="48.74157" lon="7.36896">
        <ele>184</ele>
        <time>2016-07-01T18:28:21Z</time>
      </trkpt>
      <trkpt lat="48.74163" lon="7.36908">
        <ele>183</ele>
        <time>2016-07-01T18:30:21Z</time>
      </trkpt>
      <trkpt lat="48.74165" lon="7.36918">
        <ele>183</ele>
        <time>2016-07-01T18:32:21Z</time>
      </trkpt>
      <trkpt lat="48.74167" lon="7.36925">
        <ele>183</ele>
        <time>2016-07-01T18:34:21Z</time>
      </trkpt>
      <trkpt lat="48.74208" lon="7.37002">
        <ele>184</ele>
        <time>2016-07-01T18:36:21Z</time>
      </trkpt>
      <trkpt lat="48.74298" lon="7.37169">
        <ele>185</ele>
        <time>2016-07-01T18:38:21Z</time>
      </trkpt>
      <trkpt lat="48.74358" lon="7.37284">
        <ele>185</ele>
        <time>2016-07-01T18:40:21Z</time>
      </trkpt>
      <trkpt lat="48.74441" lon="7.37438">
        <ele>184</ele>
        <time>2016-07-01T18:42:21Z</time>
      </trkpt>
      <trkpt lat="48.74516" lon="7.37577">
        <ele>184</ele>
        <time>2016-07-01T18:44:21Z</time>
      </trkpt>
      <trkpt lat="48.74516" lon="7.37577">
        <ele>184</ele>
        <time>2016-07-01T18:46:21Z</time>
      </trkpt>
      <trkpt lat="48.74522" lon="7.37583">
        <ele>184</ele>
        <time>2016-07-01T18:48:21Z</time>
      </trkpt>
      <trkpt lat="48.7453" lon="7.37588">
        <ele>184</ele>
        <time>2016-07-01T18:50:21Z</time>
      </trkpt>
      <trkpt lat="48.74532" lon="7.3759">
        <ele>184</ele>
        <time>2016-07-01T18:52:21Z</time>
      </trkpt>
      <trkpt lat="48.74536" lon="7.37599">
        <ele>184</ele>
        <time>2016-07-01T18:54:21Z</time>
      </trkpt>
      <trkpt lat="48.74563" lon="7.37649">
        <ele>182</ele>
        <time>2016-07-01T18:56:21Z</time>
      </trkpt>
      <trkpt lat="48.74564" lon="7.37654">
        <ele>182</ele>
        <time>2016-07-01T18:58:21Z</time>
      </trkpt>
      <trkpt lat="48.74565" lon="7.37667">
        <ele>181</ele>
        <time>2016-07-01T19:00:21Z</time>
      </trkpt>
      <trkpt lat="48.74573" lon="7.37686">
        <ele>181</ele>
        <time>2016-07-01T19:02:21Z</time>
      </trkpt>
      <trkpt lat="48.74586" lon="7.37709">
        <ele>180</ele>
        <time>2016-07-01T19:04:21Z</time>
      </trkpt>
      <trkpt lat="48.74633" lon="7.37796">
        <ele>181</ele>
        <time>2016-07-01T19:06:21Z</time>
      </trkpt>
      <trkpt lat="48.74649" lon="7.37826">
        <ele>181</ele>
        <time>2016-07-01T19:08:21Z</time>
      </trkpt>
      <trkpt lat="48.74682" lon="7.37891">
        <ele>181</ele>
        <time>2016-07-01T19:10:21Z</time>
      </trkpt>
      <trkpt lat="48.74713" lon="7.37951">
        <ele>181</ele>
        <time>2016-07-01T19:12:21Z</time>
      </trkpt>
      <trkpt lat="48.74766" lon="7.38044">
        <ele>182</ele>
        <time>2016-07-01T19:14:21Z</time>
      </trkpt>
      <trkpt lat="48.74802" lon="7.38106">
        <ele>181</ele>
        <time>2016-07-01T19:16:21Z</time>
      </trkpt>
      <trkpt lat="48.74856" lon="7.3819">
        <ele>181</ele>
        <time>2016-07-01T19:18:21Z</time>
      </trkpt>
      <trkpt lat="48.74894" lon="7.38246">
        <ele>182</ele>
        <time>2016-07-01T19:20:21Z</time>
      </trkpt>
      <trkpt lat="48.74921" lon="7.38283">
        <ele>183</ele>
        <time>2016-07-01T19:22:21Z</time>
      </trkpt>
      <trkpt lat="48.74973" lon="7.38353">
        <ele>183</ele>
        <time>2016-07-01T19:24:21Z</time>
      </trkpt>
      <trkpt lat="48.75" lon="7.38385">
        <ele>183</ele>
        <time>2016-07-01T19:26:21Z</time>
      </trkpt>
      <trkpt lat="48.75065" lon="7.38451">
        <ele>183</ele>
        <time>2016-07-01T19:28:21Z</time>
      </trkpt>
      <trkpt lat="48.75104" lon="7.38487">
        <ele>183</ele>
        <time>2016-07-01T19:30:21Z</time>
      </trkpt>
      <trkpt lat="48.75115" lon="7.38501">
        <ele>183</ele>
        <time>2016-07-01T19:32:21Z</time>
      </trkpt>
      <trkpt lat="48.75127" lon="7.38519">
        <ele>183</ele>
        <time>2016-07-01T19:34:21Z</time>
      </trkpt>
      <trkpt lat="48.75135" lon="7.38527">
        <ele>183</ele>
        <time>2016-07-01T19:36:21Z</time>
      </trkpt>
      <trkpt lat="48.75162" lon="7.38551">
        <ele>182</ele>
        <time>2016-07-01T19:38:21Z</time>
      </trkpt>
      <trkpt lat="48.75186" lon="7.38572">
        <ele>181</ele>
        <time>2016-07-01T19:40:21Z</time>
      </trkpt>
      <trkpt lat="48.75251" lon="7.38636">
        <ele>181</ele>
        <time>2016-07-01T19:42:21Z</time>
      </trkpt>
      <trkpt lat="48.75272" lon="7.38657">
        <ele>182</ele>
        <time>2016-07-01T19:44:21Z</time>
      </trkpt>
      <trkpt lat="48.75296" lon="7.38684">
        <ele>183</ele>
        <time>2016-07-01T19:46:21Z</time>
      </trkpt>
      <trkpt lat="48.75322" lon="7.38717">
        <ele>184</ele>
        <time>2016-07-01T19:48:21Z</time>
      </trkpt>
      <trkpt lat="48.75346" lon="7.38749">
        <ele>184</ele>
        <time>2016-07-01T19:50:21Z</time>
      </trkpt>
      <trkpt lat="48.7537" lon="7.38783">
        <ele>183</ele>
        <time>2016-07-01T19:52:21Z</time>
      </trkpt>
      <trkpt lat="48.75393" lon="7.38821">
        <ele>182</ele>
        <time>2016-07-01T19:54:21Z</time>
      </trkpt>
      <trkpt lat="48.75416" lon="7.38868">
        <ele>184</ele>
        <time>2016-07-01T19:56:21Z</time>
      </trkpt>
      <trkpt lat="48.75434" lon="7.38907">
        <ele>186</ele>
        <time>2016-07-01T19:58:21Z</time>
      </trkpt>
      <trkpt lat="48.75472" lon="7.39007">
        <ele>185</ele>
        <time>2016-07-01T20:00:21Z</time>
      </trkpt>
      <trkpt lat="48.75513" lon="7.39134">
        <ele>184</ele>
        <time>2016-07-01T20:02:21Z</time>
      </trkpt>
      <trkpt lat="48.75543" lon="7.39235">
        <ele>183</ele>
        <time>2016-07-01T20:04:21Z</time>
      </trkpt>
      <trkpt lat="48.7561" lon="7.39459">
        <ele>185</ele>
        <time>2016-07-01T20:06:21Z</time>
      </trkpt>
      <trkpt lat="48.75651" lon="7.39594">
        <ele>184</ele>
        <time>2016-07-01T20:08:21Z</time>
      </trkpt>
      <trkpt lat="48.75651" lon="7.39594">
        <ele>184</ele>
        <time>2016-07-01T20:10:21Z</time>
      </trkpt>
      <trkpt lat="48.75655" lon="7.39609">
        <ele>183</ele>
        <time>2016-07-01T20:12:21Z</time>
      </trkpt>
      <trkpt lat="48.7566" lon="7.39623">
        <ele>183</ele>
        <time>2016-07-01T20:14:21Z</time>
      </trkpt>
      <trkpt lat="48.75712" lon="7.39801">
        <ele>177</ele>
        <time>2016-07-01T20:16:21Z</time>
      </trkpt>
      <trkpt lat="48.75719" lon="7.39829">
        <ele>177</ele>
        <time>2016-07-01T20:18:21Z</time>
      </trkpt>
      <trkpt lat="48.75719" lon="7.39829">
        <ele>177</ele>
        <time>2016-07-01T20:20:21Z</time>
      </trkpt>
      <trkpt lat="48.75773" lon="7.40003">
        <ele>176</ele>
        <time>2016-07-01T20:22:21Z</time>
      </trkpt>
      <trkpt lat="48.75808" lon="7.4012">
        <ele>175</ele>
        <time>2016-07-01T20:24:21Z</time>
      </trkpt>
      <trkpt lat="48.75813" lon="7.40135">
        <ele>175</ele>
        <time>2016-07-01T20:26:21Z</time>
      </trkpt>
      <trkpt lat="48.75821" lon="7.4016">
        <ele>174</ele>
        <time>2016-07-01T20:28:21Z</time>
      </trkpt>
      <trkpt lat="48.75826" lon="7.40181">
        <ele>174</ele>
        <time>2016-07-01T20:30:21Z</time>
      </trkpt>
      <trkpt lat="48.75831" lon="7.40199">
        <ele>174</ele>
        <time>2016-07-01T20:32:21Z</time>
      </trkpt>
      <trkpt lat="48.75835" lon="7.40214">
        <ele>174</ele>
        <time>2016-07-01T20:34:21Z</time>
      </trkpt>
      <trkpt lat="48.7584" lon="7.40227">
        <ele>174</ele>
        <time>2016-07-01T20:36:21Z</time>
      </trkpt>
      <trkpt lat="48.75844" lon="7.40242">
        <ele>174</ele>
        <time>2016-07-01T20:38:21Z</time>
      </trkpt>
      <trkpt lat="48.75849" lon="7.40257">
        <ele>174</ele>
        <time>2016-07-01T20:40:21Z</time>
      </trkpt>
      <trkpt lat="48.75855" lon="7.40274">
        <ele>174</ele>
        <time>2016-07-01T20:42:21Z</time>
      </trkpt>
      <trkpt lat="48.75885" lon="7.40369">
        <ele>175</ele>
        <time>2016-07-01T20:44:21Z</time>
      </trkpt>
      <trkpt lat="48.75943" lon="7.4056">
        <ele>174</ele>
        <time>2016-07-01T20:46:21Z</time>
      </trkpt>
      <trkpt lat="48.75968" lon="7.40643">
        <ele>174</ele>
        <time>2016-07-01T20:48:21Z</time>
      </trkpt>
      <trkpt lat="48.75973" lon="7.4066">
        <ele>174</ele>
        <time>2016-07-01T20:50:21Z</time>
      </trkpt>
      <trkpt lat="48.75973" lon="7.4066">
        <ele>174</ele>
        <time>2016-07-01T20:52:21Z</time>
      </trkpt>
      <trkpt lat="48.76053" lon="7.4092">
        <ele>174</ele>
        <time>2016-07-01T20:54:21Z</time>
      </trkpt>
      <trkpt lat="48.762" lon="7.41406">
        <ele>173</ele>
        <time>2016-07-01T20:56:21Z</time>
      </trkpt>
      <trkpt lat="48.76229" lon="7.41501">
        <ele>173</ele>
        <time>2016-07-01T20:58:21Z</time>
      </trkpt>
      <trkpt lat="48.76247" lon="7.4156">
        <ele>172</ele>
        <time>2016-07-01T21:00:21Z</time>
      </trkpt>
      <trkpt lat="48.76258" lon="7.41587">
        <ele>172</ele>
        <time>2016-07-01T21:02:21Z</time>
      </trkpt>
      <trkpt lat="48.76262" lon="7.416">
        <ele>172</ele>
        <time>2016-07-01T21:04:21Z</time>
      </trkpt>
      <trkpt lat="48.76264" lon="7.41613">
        <ele>172</ele>
        <time>2016-07-01T21:06:21Z</time>
      </trkpt>
      <trkpt lat="48.76267" lon="7.41645">
        <ele>172</ele>
        <time>2016-07-01T21:08:21Z</time>
      </trkpt>
      <trkpt lat="48.76279" lon="7.41692">
        <ele>172</ele>
        <time>2016-07-01T21:10:21Z</time>
      </trkpt>
      <trkpt lat="48.76292" lon="7.41707">
        <ele>172</ele>
        <time>2016-07-01T21:12:21Z</time>
      </trkpt>
      <trkpt lat="48.76291" lon="7.41716">
        <ele>172</ele>
        <time>2016-07-01T21:14:21Z</time>
      </trkpt>
      <trkpt lat="48.76289" lon="7.41732">
        <ele>172</ele>
        <time>2016-07-01T21:16:21Z</time>
      </trkpt>
      <trkpt lat="48.76278" lon="7.41746">
        <ele>172</ele>
        <time>2016-07-01T21:18:21Z</time>
      </trkpt>
      <trkpt lat="48.76273" lon="7.4176">
        <ele>171</ele>
        <time>2016-07-01T21:20:21Z</time>
      </trkpt>
      <trkpt lat="48.76273" lon="7.4176">
        <ele>171</ele>
        <time>2016-07-01T21:22:21Z</time>
      </trkpt>
      <trkpt lat="48.76269" lon="7.41757">
        <ele>171</ele>
        <time>2016-07-01T21:24:21Z</time>
      </trkpt>
      <trkpt lat="48.76264" lon="7.41758">
        <ele>171</ele>
        <time>2016-07-01T21:26:21Z</time>
      </trkpt>
      <trkpt lat="48.76258" lon="7.41761">
        <ele>171</ele>
        <time>2016-07-01T21:28:21Z</time>
      </trkpt>
      <trkpt lat="48.76252" lon="7.41764">
        <ele>171</ele>
        <time>2016-07-01T21:30:21Z</time>
      </trkpt>
      <trkpt lat="48.76244" lon="7.4177">
        <ele>171</ele>
        <time>2016-07-01T21:32:21Z</time>
      </trkpt>
      <trkpt lat="48.76244" lon="7.4177">
        <ele>171</ele>
        <time>2016-07-01T21:34:21Z</time>
      </trkpt>
      <trkpt lat="48.76273" lon="7.41862">
        <ele>170</ele>
        <time>2016-07-01T21:36:21Z</time>
      </trkpt>
      <trkpt lat="48.76278" lon="7.41879">
        <ele>170</ele>
        <time>2016-07-01T21:38:21Z</time>
      </trkpt>
      <trkpt lat="48.7628" lon="7.41893">
        <ele>170</ele>
        <time>2016-07-01T21:40:21Z</time>
      </trkpt>
      <trkpt lat="48.76282" lon="7.41911">
        <ele>170</ele>
        <time>2016-07-01T21:42:21Z</time>
      </trkpt>
      <trkpt lat="48.76283" lon="7.41932">
        <ele>171</ele>
        <time>2016-07-01T21:44:21Z</time>
      </trkpt>
      <trkpt lat="48.76282" lon="7.41987">
        <ele>172</ele>
        <time>2016-07-01T21:46:21Z</time>
      </trkpt>
      <trkpt lat="48.76282" lon="7.42033">
        <ele>172</ele>
        <time>2016-07-01T21:48:21Z</time>
      </trkpt>
      <trkpt lat="48.76282" lon="7.42085">
        <ele>171</ele>
        <time>2016-07-01T21:50:21Z</time>
      </trkpt>
      <trkpt lat="48.76283" lon="7.42101">
        <ele>172</ele>
        <time>2016-07-01T21:52:21Z</time>
      </trkpt>
      <trkpt lat="48.7629" lon="7.42137">
        <ele>172</ele>
        <time>2016-07-01T21:54:21Z</time>
      </trkpt>
      <trkpt lat="48.76298" lon="7.42175">
        <ele>173</ele>
        <time>2016-07-01T21:56:21Z</time>
      </trkpt>
      <trkpt lat="48.76309" lon="7.42224">
        <ele>172</ele>
        <time>2016-07-01T21:58:21Z</time>
      </trkpt>
      <trkpt lat="48.76313" lon="7.42248">
        <ele>172</ele>
        <time>2016-07-01T22:00:21Z</time>
      </trkpt>
      <trkpt lat="48.76317" lon="7.42276">
        <ele>172</ele>
        <time>2016-07-01T22:02:21Z</time>
      </trkpt>
      <trkpt lat="48.76318" lon="7.42294">
        <ele>173</ele>
        <time>2016-07-01T22:04:21Z</time>
      </trkpt>
      <trkpt lat="48.76317" lon="7.42312">
        <ele>173</ele>
        <time>2016-07-01T22:06:21Z</time>
      </trkpt>
      <trkpt lat="48.76316" lon="7.42328">
        <ele>173</ele>
        <time>2016-07-01T22:08:21Z</time>
      </trkpt>
      <trkpt lat="48.76314" lon="7.42345">
        <ele>173</ele>
        <time>2016-07-01T22:10:21Z</time>
      </trkpt>
      <trkpt lat="48.7631" lon="7.42363">
        <ele>172</ele>
        <time>2016-07-01T22:12:21Z</time>
      </trkpt>
      <trkpt lat="48.76305" lon="7.42381">
        <ele>172</ele>
        <time>2016-07-01T22:14:21Z</time>
      </trkpt>
      <trkpt lat="48.76292" lon="7.42421">
        <ele>172</ele>
        <time>2016-07-01T22:16:21Z</time>
      </trkpt>
      <trkpt lat="48.76287" lon="7.42431">
        <ele>172</ele>
        <time>2016-07-01T22:18:21Z</time>
      </trkpt>
      <trkpt lat="48.7627" lon="7.42458">
        <ele>172</ele>
        <time>2016-07-01T22:20:21Z</time>
      </trkpt>
      <trkpt lat="48.76238" lon="7.425">
        <ele>173</ele>
        <time>2016-07-01T22:22:21Z</time>
      </trkpt>
      <trkpt lat="48.76214" lon="7.42527">
        <ele>174</ele>
        <time>2016-07-01T22:24:21Z</time>
      </trkpt>
      <trkpt lat="48.7621" lon="7.42534">
        <ele>174</ele>
        <time>2016-07-01T22:26:21Z</time>
      </trkpt>
      <trkpt lat="48.76205" lon="7.42545">
        <ele>174</ele>
        <time>2016-07-01T22:28:21Z</time>
      </trkpt>
      <trkpt lat="48.76203" lon="7.42552">
        <ele>174</ele>
        <time>2016-07-01T22:30:21Z</time>
      </trkpt>
      <trkpt lat="48.762" lon="7.42562">
        <ele>174</ele>
        <time>2016-07-01T22:32:21Z</time>
      </trkpt>
      <trkpt lat="48.76196" lon="7.42581">
        <ele>174</ele>
        <time>2016-07-01T22:34:21Z</time>
      </trkpt>
      <trkpt lat="48.76188" lon="7.42638">
        <ele>174</ele>
        <time>2016-07-01T22:36:21Z</time>
      </trkpt>
      <trkpt lat="48.76173" lon="7.42742">
        <ele>176</ele>
        <time>2016-07-01T22:38:21Z</time>
      </trkpt>
      <trkpt lat="48.76169" lon="7.42767">
        <ele>176</ele>
        <time>2016-07-01T22:40:21Z</time>
      </trkpt>
      <trkpt lat="48.76158" lon="7.42824">
        <ele>178</ele>
        <time>2016-07-01T22:42:21Z</time>
      </trkpt>
      <trkpt lat="48.76153" lon="7.42856">
        <ele>179</ele>
        <time>2016-07-01T22:44:21Z</time>
      </trkpt>
      <trkpt lat="48.76151" lon="7.42866">
        <ele>179</ele>
        <time>2016-07-01T22:46:21Z</time>
      </trkpt>
      <trkpt lat="48.76149" lon="7.42894">
        <ele>179</ele>
        <time>2016-07-01T22:48:21Z</time>
      </trkpt>
      <trkpt lat="48.76148" lon="7.42916">
        <ele>179</ele>
        <time>2016-07-01T22:50:21Z</time>
      </trkpt>
      <trkpt lat="48.76148" lon="7.42925">
        <ele>180</ele>
        <time>2016-07-01T22:52:21Z</time>
      </trkpt>
      <trkpt lat="48.76148" lon="7.42932">
        <ele>180</ele>
        <time>2016-07-01T22:54:21Z</time>
      </trkpt>
      <trkpt lat="48.76151" lon="7.42949">
        <ele>181</ele>
        <time>2016-07-01T22:56:21Z</time>
      </trkpt>
      <trkpt lat="48.76155" lon="7.42969">
        <ele>182</ele>
        <time>2016-07-01T22:58:21Z</time>
      </trkpt>
      <trkpt lat="48.76158" lon="7.42989">
        <ele>182</ele>
        <time>2016-07-01T23:00:21Z</time>
      </trkpt>
      <trkpt lat="48.7616" lon="7.43011">
        <ele>183</ele>
        <time>2016-07-01T23:02:21Z</time>
      </trkpt>
      <trkpt lat="48.7616" lon="7.4303">
        <ele>184</ele>
        <time>2016-07-01T23:04:21Z</time>
      </trkpt>
      <trkpt lat="48.76159" lon="7.43061">
        <ele>184</ele>
        <time>2016-07-01T23:06:21Z</time>
      </trkpt>
      <trkpt lat="48.76156" lon="7.43104">
        <ele>184</ele>
        <time>2016-07-01T23:08:21Z</time>
      </trkpt>
      <trkpt lat="48.76152" lon="7.43126">
        <ele>184</ele>
        <time>2016-07-01T23:10:21Z</time>
      </trkpt>
      <trkpt lat="48.76147" lon="7.43151">
        <ele>183</ele>
        <time>2016-07-01T23:12:21Z</time>
      </trkpt>
      <trkpt lat="48.76142" lon="7.4318">
        <ele>182</ele>
        <time>2016-07-01T23:14:21Z</time>
      </trkpt>
      <trkpt lat="48.7614" lon="7.4319">
        <ele>182</ele>
        <time>2016-07-01T23:16:21Z</time>
      </trkpt>
      <trkpt lat="48.76136" lon="7.43212">
        <ele>182</ele>
        <time>2016-07-01T23:18:21Z</time>
      </trkpt>
      <trkpt lat="48.76135" lon="7.43229">
        <ele>182</ele>
        <time>2016-07-01T23:20:21Z</time>
      </trkpt>
      <trkpt lat="48.7613" lon="7.43287">
        <ele>182</ele>
        <time>2016-07-01T23:22:21Z</time>
      </trkpt>
      <trkpt lat="48.76129" lon="7.43296">
        <ele>182</ele>
        <time>2016-07-01T23:24:21Z</time>
      </trkpt>
      <trkpt lat="48.76126" lon="7.43346">
        <ele>182</ele>
        <time>2016-07-01T23:26:21Z</time>
      </trkpt>
      <trkpt lat="48.76125" lon="7.43363">
        <ele>181</ele>
        <time>2016-07-01T23:28:21Z</time>
      </trkpt>
      <trkpt lat="48.76124" lon="7.43377">
        <ele>181</ele>
        <time>2016-07-01T23:30:21Z</time>
      </trkpt>
      <trkpt lat="48.7612" lon="7.43392">
        <ele>181</ele>
        <time>2016-07-01T23:32:21Z</time>
      </trkpt>
      <trkpt lat="48.7611" lon="7.43428">
        <ele>180</ele>
        <time>2016-07-01T23:34:21Z</time>
      </trkpt>
      <trkpt lat="48.76095" lon="7.43463">
        <ele>179</ele>
        <time>2016-07-01T23:36:21Z</time>
      </trkpt>
      <trkpt lat="48.76089" lon="7.43474">
        <ele>179</ele>
        <time>2016-07-01T23:38:21Z</time>
      </trkpt>
      <trkpt lat="48.76066" lon="7.43518">
        <ele>178</ele>
        <time>2016-07-01T23:40:21Z</time>
      </trkpt>
      <trkpt lat="48.76039" lon="7.43572">
        <ele>178</ele>
        <time>2016-07-01T23:42:21Z</time>
      </trkpt>
      <trkpt lat="48.76037" lon="7.43578">
        <ele>178</ele>
        <time>2016-07-01T23:44:21Z</time>
      </trkpt>
      <trkpt lat="48.76034" lon="7.4359">
        <ele>178</ele>
        <time>2016-07-01T23:46:21Z</time>
      </trkpt>
      <trkpt lat="48.76026" lon="7.43606">
        <ele>178</ele>
        <time>2016-07-01T23:48:21Z</time>
      </trkpt>
      <trkpt lat="48.76016" lon="7.43633">
        <ele>178</ele>
        <time>2016-07-01T23:50:21Z</time>
      </trkpt>
      <trkpt lat="48.76009" lon="7.43656">
        <ele>178</ele>
        <time>2016-07-01T23:52:21Z</time>
      </trkpt>
      <trkpt lat="48.75998" lon="7.43696">
        <ele>178</ele>
        <time>2016-07-01T23:54:21Z</time>
      </trkpt>
      <trkpt lat="48.75959" lon="7.43909">
        <ele>177</ele>
        <time>2016-07-01T23:56:21Z</time>
      </trkpt>
      <trkpt lat="48.75952" lon="7.43948">
        <ele>177</ele>
        <time>2016-07-01T23:58:21Z</time>
      </trkpt>
      <trkpt lat="48.7595" lon="7.4397">
        <ele>176</ele>
        <time>2016-07-02T00:00:21Z</time>
      </trkpt>
      <trkpt lat="48.75949" lon="7.4398">
        <ele>176</ele>
        <time>2016-07-02T00:02:21Z</time>
      </trkpt>
      <trkpt lat="48.75944" lon="7.44006">
        <ele>175</ele>
        <time>2016-07-02T00:04:21Z</time>
      </trkpt>
      <trkpt lat="48.75919" lon="7.44086">
        <ele>173</ele>
        <time>2016-07-02T00:06:21Z</time>
      </trkpt>
      <trkpt lat="48.75909" lon="7.44123">
        <ele>174</ele>
        <time>2016-07-02T00:08:21Z</time>
      </trkpt>
      <trkpt lat="48.75898" lon="7.44161">
        <ele>174</ele>
        <time>2016-07-02T00:10:21Z</time>
      </trkpt>
      <trkpt lat="48.75884" lon="7.44203">
        <ele>175</ele>
        <time>2016-07-02T00:12:21Z</time>
      </trkpt>
      <trkpt lat="48.7585" lon="7.44305">
        <ele>174</ele>
        <time>2016-07-02T00:14:21Z</time>
      </trkpt>
      <trkpt lat="48.75845" lon="7.44317">
        <ele>174</ele>
        <time>2016-07-02T00:16:21Z</time>
      </trkpt>
      <trkpt lat="48.75838" lon="7.44333">
        <ele>174</ele>
        <time>2016-07-02T00:18:21Z</time>
      </trkpt>
      <trkpt lat="48.75803" lon="7.44395">
        <ele>175</ele>
        <time>2016-07-02T00:20:21Z</time>
      </trkpt>
      <trkpt lat="48.75755" lon="7.44463">
        <ele>176</ele>
        <time>2016-07-02T00:22:21Z</time>
      </trkpt>
      <trkpt lat="48.75754" lon="7.44474">
        <ele>177</ele>
        <time>2016-07-02T00:24:21Z</time>
      </trkpt>
      <trkpt lat="48.75751" lon="7.44487">
        <ele>177</ele>
        <time>2016-07-02T00:26:21Z</time>
      </trkpt>
      <trkpt lat="48.75726" lon="7.4455">
        <ele>176</ele>
        <time>2016-07-02T00:28:21Z</time>
      </trkpt>
      <trkpt lat="48.75715" lon="7.44584">
        <ele>175</ele>
        <time>2016-07-02T00:30:21Z</time>
      </trkpt>
      <trkpt lat="48.7571" lon="7.44603">
        <ele>175</ele>
        <time>2016-07-02T00:32:21Z</time>
      </trkpt>
      <trkpt lat="48.75703" lon="7.44651">
        <ele>173</ele>
        <time>2016-07-02T00:34:21Z</time>
      </trkpt>
      <trkpt lat="48.757" lon="7.4466">
        <ele>173</ele>
        <time>2016-07-02T00:36:21Z</time>
      </trkpt>
      <trkpt lat="48.75697" lon="7.44665">
        <ele>173</ele>
        <time>2016-07-02T00:38:21Z</time>
      </trkpt>
      <trkpt lat="48.75694" lon="7.44669">
        <ele>173</ele>
        <time>2016-07-02T00:40:21Z</time>
      </trkpt>
      <trkpt lat="48.7569" lon="7.44671">
        <ele>173</ele>
        <time>2016-07-02T00:42:21Z</time>
      </trkpt>
      <trkpt lat="48.75684" lon="7.44675">
        <ele>172</ele>
        <time>2016-07-02T00:44:21Z</time>
      </trkpt>
      <trkpt lat="48.75626" lon="7.44702">
        <ele>174</ele>
        <time>2016-07-02T00:46:21Z</time>
      </trkpt>
      <trkpt lat="48.75569" lon="7.44731">
        <ele>174</ele>
        <time>2016-07-02T00:48:21Z</time>
      </trkpt>
      <trkpt lat="48.75541" lon="7.44744">
        <ele>172</ele>
        <time>2016-07-02T00:50:21Z</time>
      </trkpt>
      <trkpt lat="48.75523" lon="7.44753">
        <ele>170</ele>
        <time>2016-07-02T00:52:21Z</time>
      </trkpt>
      <trkpt lat="48.75507" lon="7.44763">
        <ele>169</ele>
        <time>2016-07-02T00:54:21Z</time>
      </trkpt>
      <trkpt lat="48.75494" lon="7.44771">
        <ele>169</ele>
        <time>2016-07-02T00:56:21Z</time>
      </trkpt>
      <trkpt lat="48.7548" lon="7.44781">
        <ele>170</ele>
        <time>2016-07-02T00:58:21Z</time>
      </trkpt>
      <trkpt lat="48.75445" lon="7.44807">
        <ele>171</ele>
        <time>2016-07-02T01:00:21Z</time>
      </trkpt>
      <trkpt lat="48.75431" lon="7.44819">
        <ele>171</ele>
        <time>2016-07-02T01:02:21Z</time>
      </trkpt>
      <trkpt lat="48.75415" lon="7.44835">
        <ele>172</ele>
        <time>2016-07-02T01:04:21Z</time>
      </trkpt>
      <trkpt lat="48.75376" lon="7.44878">
        <ele>171</ele>
        <time>2016-07-02T01:06:21Z</time>
      </trkpt>
      <trkpt lat="48.75368" lon="7.44885">
        <ele>171</ele>
        <time>2016-07-02T01:08:21Z</time>
      </trkpt>
      <trkpt lat="48.75307" lon="7.44952">
        <ele>171</ele>
        <time>2016-07-02T01:10:21Z</time>
      </trkpt>
      <trkpt lat="48.75271" lon="7.44991">
        <ele>171</ele>
        <time>2016-07-02T01:12:21Z</time>
      </trkpt>
      <trkpt lat="48.75257" lon="7.45008">
        <ele>171</ele>
        <time>2016-07-02T01:14:21Z</time>
      </trkpt>
      <trkpt lat="48.7525" lon="7.45015">
        <ele>172</ele>
        <time>2016-07-02T01:16:21Z</time>
      </trkpt>
      <trkpt lat="48.75245" lon="7.4502">
        <ele>172</ele>
        <time>2016-07-02T01:18:21Z</time>
      </trkpt>
      <trkpt lat="48.75239" lon="7.45023">
        <ele>172</ele>
        <time>2016-07-02T01:20:21Z</time>
      </trkpt>
      <trkpt lat="48.75228" lon="7.45027">
        <ele>172</ele>
        <time>2016-07-02T01:22:21Z</time>
      </trkpt>
      <trkpt lat="48.75228" lon="7.45027">
        <ele>172</ele>
        <time>2016-07-02T01:24:21Z</time>
      </trkpt>
      <trkpt lat="48.7523" lon="7.45041">
        <ele>172</ele>
        <time>2016-07-02T01:26:21Z</time>
      </trkpt>
      <trkpt lat="48.7523" lon="7.45041">
        <ele>172</ele>
        <time>2016-07-02T01:28:21Z</time>
      </trkpt>
      <trkpt lat="48.75177" lon="7.45058">
        <ele>173</ele>
        <time>2016-07-02T01:30:21Z</time>
      </trkpt>
      <trkpt lat="48.75163" lon="7.45066">
        <ele>173</ele>
        <time>2016-07-02T01:32:21Z</time>
      </trkpt>
      <trkpt lat="48.7513" lon="7.45092">
        <ele>172</ele>
        <time>2016-07-02T01:34:21Z</time>
      </trkpt>
      <trkpt lat="48.75114" lon="7.45106">
        <ele>172</ele>
        <time>2016-07-02T01:36:21Z</time>
      </trkpt>
      <trkpt lat="48.75074" lon="7.45149">
        <ele>172</ele>
        <time>2016-07-02T01:38:21Z</time>
      </trkpt>
      <trkpt lat="48.75058" lon="7.45163">
        <ele>171</ele>
        <time>2016-07-02T01:40:21Z</time>
      </trkpt>
      <trkpt lat="48.75048" lon="7.4517">
        <ele>171</ele>
        <time>2016-07-02T01:42:21Z</time>
      </trkpt>
      <trkpt lat="48.75018" lon="7.45192">
        <ele>170</ele>
        <time>2016-07-02T01:44:21Z</time>
      </trkpt>
      <trkpt lat="48.75009" lon="7.45198">
        <ele>170</ele>
        <time>2016-07-02T01:46:21Z</time>
      </trkpt>
      <trkpt lat="48.75009" lon="7.45198">
        <ele>170</ele>
        <time>2016-07-02T01:48:21Z</time>
      </trkpt>
      <trkpt lat="48.7501" lon="7.45209">
        <ele>170</ele>
        <time>2016-07-02T01:50:21Z</time>
      </trkpt>
      <trkpt lat="48.75012" lon="7.45224">
        <ele>170</ele>
        <time>2016-07-02T01:52:21Z</time>
      </trkpt>
      <trkpt lat="48.75016" lon="7.4524">
        <ele>170</ele>
        <time>2016-07-02T01:54:21Z</time>
      </trkpt>
      <trkpt lat="48.75017" lon="7.45242">
        <ele>170</ele>
        <time>2016-07-02T01:56:21Z</time>
      </trkpt>
      <trkpt lat="48.75024" lon="7.45264">
        <ele>170</ele>
        <time>2016-07-02T01:58:21Z</time>
      </trkpt>
      <trkpt lat="48.75028" lon="7.45275">
        <ele>169</ele>
        <time>2016-07-02T02:00:21Z</time>
      </trkpt>
      <trkpt lat="48.75029" lon="7.45278">
        <ele>169</ele>
        <time>2016-07-02T02:02:21Z</time>
      </trkpt>
      <trkpt lat="48.75037" lon="7.45302">
        <ele>169</ele>
        <time>2016-07-02T02:04:21Z</time>
      </trkpt>
      <trkpt lat="48.7504" lon="7.45312">
        <ele>169</ele>
        <time>2016-07-02T02:06:21Z</time>
      </trkpt>
      <trkpt lat="48.75041" lon="7.45314">
        <ele>169</ele>
        <time>2016-07-02T02:08:21Z</time>
      </trkpt>
      <trkpt lat="48.7505" lon="7.45346">
        <ele>168</ele>
        <time>2016-07-02T02:10:21Z</time>
      </trkpt>
      <trkpt lat="48.75056" lon="7.45367">
        <ele>168</ele>
        <time>2016-07-02T02:12:21Z</time>
      </trkpt>
      <trkpt lat="48.75075" lon="7.45464">
        <ele>168</ele>
        <time>2016-07-02T02:14:21Z</time>
      </trkpt>
      <trkpt lat="48.75077" lon="7.45478">
        <ele>168</ele>
        <time>2016-07-02T02:16:21Z</time>
      </trkpt>
      <trkpt lat="48.7508" lon="7.4549">
        <ele>168</ele>
        <time>2016-07-02T02:18:21Z</time>
      </trkpt>
      <trkpt lat="48.75081" lon="7.45492">
        <ele>168</ele>
        <time>2016-07-02T02:20:21Z</time>
      </trkpt>
      <trkpt lat="48.75082" lon="7.45495">
        <ele>168</ele>
        <time>2016-07-02T02:22:21Z</time>
      </trkpt>
      <trkpt lat="48.75082" lon="7.45497">
        <ele>168</ele>
        <time>2016-07-02T02:24:21Z</time>
      </trkpt>
      <trkpt lat="48.75083" lon="7.45499">
        <ele>168</ele>
        <time>2016-07-02T02:26:21Z</time>
      </trkpt>
      <trkpt lat="48.75084" lon="7.455">
        <ele>168</ele>
        <time>2016-07-02T02:28:21Z</time>
      </trkpt>
      <trkpt lat="48.75088" lon="7.45504">
        <ele>168</ele>
        <time>2016-07-02T02:30:21Z</time>
      </trkpt>
      <trkpt lat="48.75088" lon="7.45504">
        <ele>168</ele>
        <time>2016-07-02T02:32:21Z</time>
      </trkpt>
      <trkpt lat="48.75089" lon="7.45486">
        <ele>168</ele>
        <time>2016-07-02T02:34:21Z</time>
      </trkpt>
      <trkpt lat="48.75091" lon="7.45444">
        <ele>168</ele>
        <time>2016-07-02T02:36:21Z</time>
      </trkpt>
      <trkpt lat="48.75092" lon="7.45441">
        <ele>168</ele>
        <time>2016-07-02T02:38:21Z</time>
      </trkpt>
      <trkpt lat="48.75094" lon="7.45418">
        <ele>168</ele>
        <time>2016-07-02T02:40:21Z</time>
      </trkpt>
      <trkpt lat="48.75088" lon="7.45405">
        <ele>168</ele>
        <time>2016-07-02T02:42:21Z</time>
      </trkpt>
      <trkpt lat="48.75084" lon="7.45397">
        <ele>168</ele>
        <time>2016-07-02T02:44:21Z</time>
      </trkpt>
      <trkpt lat="48.7508" lon="7.45385">
        <ele>168</ele>
        <time>2016-07-02T02:46:21Z</time>
      </trkpt>
      <trkpt lat="48.75058" lon="7.45327">
        <ele>168</ele>
        <time>2016-07-02T02:48:21Z</time>
      </trkpt>
      <trkpt lat="48.75049" lon="7.45293">
        <ele>169</ele>
        <time>2016-07-02T02:50:21Z</time>
      </trkpt>
      <trkpt lat="48.75049" lon="7.45293">
        <ele>169</ele>
        <time>2016-07-02T02:52:21Z</time>
      </trkpt>
      <trkpt lat="48.75027" lon="7.45314">
        <ele>169</ele>
        <time>2016-07-02T02:54:21Z</time>
      </trkpt>
      <trkpt lat="48.75008" lon="7.45336">
        <ele>170</ele>
        <time>2016-07-02T02:56:21Z</time>
      </trkpt>
      <trkpt lat="48.74997" lon="7.45349">
        <ele>170</ele>
        <time>2016-07-02T02:58:21Z</time>
      </trkpt>
      <trkpt lat="48.74965" lon="7.45386">
        <ele>169</ele>
        <time>2016-07-02T03:00:21Z</time>
      </trkpt>
      <trkpt lat="48.74958" lon="7.45396">
        <ele>168</ele>
        <time>2016-07-02T03:02:21Z</time>
      </trkpt>
      <trkpt lat="48.74945" lon="7.45416">
        <ele>168</ele>
        <time>2016-07-02T03:04:21Z</time>
      </trkpt>
      <trkpt lat="48.74936" lon="7.45428">
        <ele>168</ele>
        <time>2016-07-02T03:06:21Z</time>
      </trkpt>
      <trkpt lat="48.74906" lon="7.45485">
        <ele>168</ele>
        <time>2016-07-02T03:08:21Z</time>
      </trkpt>
      <trkpt lat="48.74892" lon="7.45521">
        <ele>167</ele>
        <time>2016-07-02T03:10:21Z</time>
      </trkpt>
      <trkpt lat="48.74876" lon="7.45569">
        <ele>167</ele>
        <time>2016-07-02T03:12:21Z</time>
      </trkpt>
      <trkpt lat="48.7487" lon="7.45595">
        <ele>168</ele>
        <time>2016-07-02T03:14:21Z</time>
      </trkpt>
      <trkpt lat="48.74857" lon="7.45656">
        <ele>168</ele>
        <time>2016-07-02T03:16:21Z</time>
      </trkpt>
      <trkpt lat="48.74853" lon="7.45687">
        <ele>168</ele>
        <time>2016-07-02T03:18:21Z</time>
      </trkpt>
      <trkpt lat="48.74851" lon="7.4571">
        <ele>168</ele>
        <time>2016-07-02T03:20:21Z</time>
      </trkpt>
      <trkpt lat="48.74847" lon="7.45781">
        <ele>168</ele>
        <time>2016-07-02T03:22:21Z</time>
      </trkpt>
      <trkpt lat="48.74847" lon="7.45785">
        <ele>168</ele>
        <time>2016-07-02T03:24:21Z</time>
      </trkpt>
      <trkpt lat="48.74847" lon="7.4579">
        <ele>168</ele>
        <time>2016-07-02T03:26:21Z</time>
      </trkpt>
      <trkpt lat="48.74846" lon="7.45796">
        <ele>169</ele>
        <time>2016-07-02T03:28:21Z</time>
      </trkpt>
      <trkpt lat="48.74845" lon="7.458">
        <ele>169</ele>
        <time>2016-07-02T03:30:21Z</time>
      </trkpt>
      <trkpt lat="48.74841" lon="7.45807">
        <ele>169</ele>
        <time>2016-07-02T03:32:21Z</time>
      </trkpt>
      <trkpt lat="48.74841" lon="7.45818">
        <ele>169</ele>
        <time>2016-07-02T03:34:21Z</time>
      </trkpt>
      <trkpt lat="48.74842" lon="7.45827">
        <ele>170</ele>
        <time>2016-07-02T03:36:21Z</time>
      </trkpt>
      <trkpt lat="48.74842" lon="7.45838">
        <ele>170</ele>
        <time>2016-07-02T03:38:21Z</time>
      </trkpt>
      <trkpt lat="48.74847" lon="7.45885">
        <ele>170</ele>
        <time>2016-07-02T03:40:21Z</time>
      </trkpt>
      <trkpt lat="48.74848" lon="7.45898">
        <ele>171</ele>
        <time>2016-07-02T03:42:21Z</time>
      </trkpt>
      <trkpt lat="48.74849" lon="7.46022">
        <ele>170</ele>
        <time>2016-07-02T03:44:21Z</time>
      </trkpt>
      <trkpt lat="48.74849" lon="7.4604">
        <ele>170</ele>
        <time>2016-07-02T03:46:21Z</time>
      </trkpt>
      <trkpt lat="48.7485" lon="7.46115">
        <ele>170</ele>
        <time>2016-07-02T03:48:21Z</time>
      </trkpt>
      <trkpt lat="48.74851" lon="7.46185">
        <ele>170</ele>
        <time>2016-07-02T03:50:21Z</time>
      </trkpt>
      <trkpt lat="48.7485" lon="7.46217">
        <ele>170</ele>
        <time>2016-07-02T03:52:21Z</time>
      </trkpt>
      <trkpt lat="48.74848" lon="7.46242">
        <ele>169</ele>
        <time>2016-07-02T03:54:21Z</time>
      </trkpt>
      <trkpt lat="48.74844" lon="7.46267">
        <ele>169</ele>
        <time>2016-07-02T03:56:21Z</time>
      </trkpt>
      <trkpt lat="48.7484" lon="7.46294">
        <ele>168</ele>
        <time>2016-07-02T03:58:21Z</time>
      </trkpt>
      <trkpt lat="48.74829" lon="7.46338">
        <ele>167</ele>
        <time>2016-07-02T04:00:21Z</time>
      </trkpt>
      <trkpt lat="48.74821" lon="7.46365">
        <ele>167</ele>
        <time>2016-07-02T04:02:21Z</time>
      </trkpt>
      <trkpt lat="48.74811" lon="7.46396">
        <ele>167</ele>
        <time>2016-07-02T04:04:21Z</time>
      </trkpt>
      <trkpt lat="48.74802" lon="7.46419">
        <ele>167</ele>
        <time>2016-07-02T04:06:21Z</time>
      </trkpt>
      <trkpt lat="48.74791" lon="7.46443">
        <ele>168</ele>
        <time>2016-07-02T04:08:21Z</time>
      </trkpt>
      <trkpt lat="48.74775" lon="7.46472">
        <ele>168</ele>
        <time>2016-07-02T04:10:21Z</time>
      </trkpt>
      <trkpt lat="48.74755" lon="7.46507">
        <ele>168</ele>
        <time>2016-07-02T04:12:21Z</time>
      </trkpt>
      <trkpt lat="48.74715" lon="7.46566">
        <ele>168</ele>
        <time>2016-07-02T04:14:21Z</time>
      </trkpt>
      <trkpt lat="48.74704" lon="7.46583">
        <ele>168</ele>
        <time>2016-07-02T04:16:21Z</time>
      </trkpt>
      <trkpt lat="48.74694" lon="7.46601">
        <ele>168</ele>
        <time>2016-07-02T04:18:21Z</time>
      </trkpt>
      <trkpt lat="48.74688" lon="7.4661">
        <ele>168</ele>
        <time>2016-07-02T04:20:21Z</time>
      </trkpt>
      <trkpt lat="48.74666" lon="7.46652">
        <ele>170</ele>
        <time>2016-07-02T04:22:21Z</time>
      </trkpt>
      <trkpt lat="48.74657" lon="7.46669">
        <ele>170</ele>
        <time>2016-07-02T04:24:21Z</time>
      </trkpt>
      <trkpt lat="48.74636" lon="7.4671">
        <ele>169</ele>
        <time>2016-07-02T04:26:21Z</time>
      </trkpt>
      <trkpt lat="48.74616" lon="7.46752">
        <ele>168</ele>
        <time>2016-07-02T04:28:21Z</time>
      </trkpt>
      <trkpt lat="48.74595" lon="7.468">
        <ele>168</ele>
        <time>2016-07-02T04:30:21Z</time>
      </trkpt>
      <trkpt lat="48.7457" lon="7.46866">
        <ele>167</ele>
        <time>2016-07-02T04:32:21Z</time>
      </trkpt>
      <trkpt lat="48.74543" lon="7.46936">
        <ele>168</ele>
        <time>2016-07-02T04:34:21Z</time>
      </trkpt>
      <trkpt lat="48.74502" lon="7.47069">
        <ele>171</ele>
        <time>2016-07-02T04:36:21Z</time>
      </trkpt>
      <trkpt lat="48.74478" lon="7.47143">
        <ele>169</ele>
        <time>2016-07-02T04:38:21Z</time>
      </trkpt>
      <trkpt lat="48.74441" lon="7.47268">
        <ele>166</ele>
        <time>2016-07-02T04:40:21Z</time>
      </trkpt>
      <trkpt lat="48.74411" lon="7.47371">
        <ele>165</ele>
        <time>2016-07-02T04:42:21Z</time>
      </trkpt>
      <trkpt lat="48.74403" lon="7.47394">
        <ele>165</ele>
        <time>2016-07-02T04:44:21Z</time>
      </trkpt>
      <trkpt lat="48.74399" lon="7.47405">
        <ele>165</ele>
        <time>2016-07-02T04:46:21Z</time>
      </trkpt>
      <trkpt lat="48.74396" lon="7.47412">
        <ele>165</ele>
        <time>2016-07-02T04:48:21Z</time>
      </trkpt>
      <trkpt lat="48.74393" lon="7.47418">
        <ele>165</ele>
        <time>2016-07-02T04:50:21Z</time>
      </trkpt>
      <trkpt lat="48.74388" lon="7.47426">
        <ele>165</ele>
        <time>2016-07-02T04:52:21Z</time>
      </trkpt>
      <trkpt lat="48.74384" lon="7.47433">
        <ele>165</ele>
        <time>2016-07-02T04:54:21Z</time>
      </trkpt>
      <trkpt lat="48.74383" lon="7.47437">
        <ele>165</ele>
        <time>2016-07-02T04:56:21Z</time>
      </trkpt>
      <trkpt lat="48.74381" lon="7.4744">
        <ele>165</ele>
        <time>2016-07-02T04:58:21Z</time>
      </trkpt>
      <trkpt lat="48.7438" lon="7.47445">
        <ele>165</ele>
        <time>2016-07-02T05:00:21Z</time>
      </trkpt>
      <trkpt lat="48.74378" lon="7.47452">
        <ele>165</ele>
        <time>2016-07-02T05:02:21Z</time>
      </trkpt>
      <trkpt lat="48.74377" lon="7.47459">
        <ele>165</ele>
        <time>2016-07-02T05:04:21Z</time>
      </trkpt>
      <trkpt lat="48.74378" lon="7.47466">
        <ele>165</ele>
        <time>2016-07-02T05:06:21Z</time>
      </trkpt>
      <trkpt lat="48.74379" lon="7.47469">
        <ele>165</ele>
        <time>2016-07-02T05:08:21Z</time>
      </trkpt>
      <trkpt lat="48.74379" lon="7.47473">
        <ele>165</ele>
        <time>2016-07-02T05:10:21Z</time>
      </trkpt>
      <trkpt lat="48.74377" lon="7.47484">
        <ele>165</ele>
        <time>2016-07-02T05:12:21Z</time>
      </trkpt>
      <trkpt lat="48.74363" lon="7.47529">
        <ele>165</ele>
        <time>2016-07-02T05:14:21Z</time>
      </trkpt>
      <trkpt lat="48.74349" lon="7.4757">
        <ele>165</ele>
        <time>2016-07-02T05:16:21Z</time>
      </trkpt>
      <trkpt lat="48.74295" lon="7.47751">
        <ele>166</ele>
        <time>2016-07-02T05:18:21Z</time>
      </trkpt>
      <trkpt lat="48.74257" lon="7.47871">
        <ele>166</ele>
        <time>2016-07-02T05:20:21Z</time>
      </trkpt>
      <trkpt lat="48.74256" lon="7.47876">
        <ele>166</ele>
        <time>2016-07-02T05:22:21Z</time>
      </trkpt>
      <trkpt lat="48.74256" lon="7.47876">
        <ele>166</ele>
        <time>2016-07-02T05:24:21Z</time>
      </trkpt>
      <trkpt lat="48.7427" lon="7.47896">
        <ele>166</ele>
        <time>2016-07-02T05:26:21Z</time>
      </trkpt>
      <trkpt lat="48.7427" lon="7.47896">
        <ele>166</ele>
        <time>2016-07-02T05:28:21Z</time>
      </trkpt>
      <trkpt lat="48.74258" lon="7.47893">
        <ele>166</ele>
        <time>2016-07-02T05:30:21Z</time>
      </trkpt>
      <trkpt lat="48.74248" lon="7.47887">
        <ele>167</ele>
        <time>2016-07-02T05:32:21Z</time>
      </trkpt>
      <trkpt lat="48.74247" lon="7.47886">
        <ele>167</ele>
        <time>2016-07-02T05:34:21Z</time>
      </trkpt>
      <trkpt lat="48.74241" lon="7.47883">
        <ele>167</ele>
        <time>2016-07-02T05:36:21Z</time>
      </trkpt>
      <trkpt lat="48.74235" lon="7.47879">
        <ele>167</ele>
        <time>2016-07-02T05:38:21Z</time>
      </trkpt>
      <trkpt lat="48.74224" lon="7.47872">
        <ele>167</ele>
        <time>2016-07-02T05:40:21Z</time>
      </trkpt>
      <trkpt lat="48.74224" lon="7.47872">
        <ele>167</ele>
        <time>2016-07-02T05:42:21Z</time>
      </trkpt>
      <trkpt lat="48.74219" lon="7.47897">
        <ele>167</ele>
        <time>2016-07-02T05:44:21Z</time>
      </trkpt>
      <trkpt lat="48.74206" lon="7.47956">
        <ele>166</ele>
        <time>2016-07-02T05:46:21Z</time>
      </trkpt>
      <trkpt lat="48.7418" lon="7.48063">
        <ele>163</ele>
        <time>2016-07-02T05:48:21Z</time>
      </trkpt>
      <trkpt lat="48.7417" lon="7.48124">
        <ele>164</ele>
        <time>2016-07-02T05:50:21Z</time>
      </trkpt>
      <trkpt lat="48.74167" lon="7.4821">
        <ele>164</ele>
        <time>2016-07-02T05:52:21Z</time>
      </trkpt>
      <trkpt lat="48.74169" lon="7.4837">
        <ele>163</ele>
        <time>2016-07-02T05:54:21Z</time>
      </trkpt>
      <trkpt lat="48.7417" lon="7.48463">
        <ele>164</ele>
        <time>2016-07-02T05:56:21Z</time>
      </trkpt>
      <trkpt lat="48.74173" lon="7.48585">
        <ele>164</ele>
        <time>2016-07-02T05:58:21Z</time>
      </trkpt>
      <trkpt lat="48.7417" lon="7.48608">
        <ele>164</ele>
        <time>2016-07-02T06:00:21Z</time>
      </trkpt>
      <trkpt lat="48.7417" lon="7.48618">
        <ele>163</ele>
        <time>2016-07-02T06:02:21Z</time>
      </trkpt>
      <trkpt lat="48.74171" lon="7.48668">
        <ele>163</ele>
        <time>2016-07-02T06:04:21Z</time>
      </trkpt>
      <trkpt lat="48.74173" lon="7.48939">
        <ele>162</ele>
        <time>2016-07-02T06:06:21Z</time>
      </trkpt>
      <trkpt lat="48.74173" lon="7.48954">
        <ele>162</ele>
        <time>2016-07-02T06:08:21Z</time>
      </trkpt>
      <trkpt lat="48.7417" lon="7.49017">
        <ele>161</ele>
        <time>2016-07-02T06:10:21Z</time>
      </trkpt>
      <trkpt lat="48.7417" lon="7.49025">
        <ele>161</ele>
        <time>2016-07-02T06:12:21Z</time>
      </trkpt>
      <trkpt lat="48.74172" lon="7.49052">
        <ele>161</ele>
        <time>2016-07-02T06:14:21Z</time>
      </trkpt>
      <trkpt lat="48.74174" lon="7.49099">
        <ele>161</ele>
        <time>2016-07-02T06:16:21Z</time>
      </trkpt>
      <trkpt lat="48.74175" lon="7.49124">
        <ele>161</ele>
        <time>2016-07-02T06:18:21Z</time>
      </trkpt>
      <trkpt lat="48.74176" lon="7.4921">
        <ele>162</ele>
        <time>2016-07-02T06:20:21Z</time>
      </trkpt>
      <trkpt lat="48.74176" lon="7.49331">
        <ele>163</ele>
        <time>2016-07-02T06:22:21Z</time>
      </trkpt>
      <trkpt lat="48.74173" lon="7.4946">
        <ele>161</ele>
        <time>2016-07-02T06:24:21Z</time>
      </trkpt>
      <trkpt lat="48.74161" lon="7.49818">
        <ele>166</ele>
        <time>2016-07-02T06:26:21Z</time>
      </trkpt>
      <trkpt lat="48.74161" lon="7.4988">
        <ele>166</ele>
        <time>2016-07-02T06:28:21Z</time>
      </trkpt>
      <trkpt lat="48.74164" lon="7.49929">
        <ele>165</ele>
        <time>2016-07-02T06:30:21Z</time>
      </trkpt>
      <trkpt lat="48.74166" lon="7.49949">
        <ele>165</ele>
        <time>2016-07-02T06:32:21Z</time>
      </trkpt>
      <trkpt lat="48.7418" lon="7.50052">
        <ele>169</ele>
        <time>2016-07-02T06:34:21Z</time>
      </trkpt>
      <trkpt lat="48.74211" lon="7.50188">
        <ele>167</ele>
        <time>2016-07-02T06:36:21Z</time>
      </trkpt>
      <trkpt lat="48.74225" lon="7.50273">
        <ele>165</ele>
        <time>2016-07-02T06:38:21Z</time>
      </trkpt>
      <trkpt lat="48.74229" lon="7.50302">
        <ele>164</ele>
        <time>2016-07-02T06:40:21Z</time>
      </trkpt>
      <trkpt lat="48.74236" lon="7.50369">
        <ele>163</ele>
        <time>2016-07-02T06:42:21Z</time>
      </trkpt>
      <trkpt lat="48.74244" lon="7.50465">
        <ele>163</ele>
        <time>2016-07-02T06:44:21Z</time>
      </trkpt>
      <trkpt lat="48.74247" lon="7.50564">
        <ele>161</ele>
        <time>2016-07-02T06:46:21Z</time>
      </trkpt>
      <trkpt lat="48.74244" lon="7.50622">
        <ele>161</ele>
        <time>2016-07-02T06:48:21Z</time>
      </trkpt>
      <trkpt lat="48.74236" lon="7.50707">
        <ele>162</ele>
        <time>2016-07-02T06:50:21Z</time>
      </trkpt>
      <trkpt lat="48.74229" lon="7.50768">
        <ele>162</ele>
        <time>2016-07-02T06:52:21Z</time>
      </trkpt>
      <trkpt lat="48.74228" lon="7.50771">
        <ele>162</ele>
        <time>2016-07-02T06:54:21Z</time>
      </trkpt>
      <trkpt lat="48.74227" lon="7.50775">
        <ele>162</ele>
        <time>2016-07-02T06:56:21Z</time>
      </trkpt>
      <trkpt lat="48.74226" lon="7.50779">
        <ele>162</ele>
        <time>2016-07-02T06:58:21Z</time>
      </trkpt>
      <trkpt lat="48.74225" lon="7.50782">
        <ele>162</ele>
        <time>2016-07-02T07:00:21Z</time>
      </trkpt>
      <trkpt lat="48.74223" lon="7.50785">
        <ele>162</ele>
        <time>2016-07-02T07:02:21Z</time>
      </trkpt>
      <trkpt lat="48.74224" lon="7.50794">
        <ele>162</ele>
        <time>2016-07-02T07:04:21Z</time>
      </trkpt>
      <trkpt lat="48.74223" lon="7.50802">
        <ele>162</ele>
        <time>2016-07-02T07:06:21Z</time>
      </trkpt>
      <trkpt lat="48.7422" lon="7.50845">
        <ele>161</ele>
        <time>2016-07-02T07:08:21Z</time>
      </trkpt>
      <trkpt lat="48.74219" lon="7.50859">
        <ele>161</ele>
        <time>2016-07-02T07:10:21Z</time>
      </trkpt>
      <trkpt lat="48.74212" lon="7.50926">
        <ele>160</ele>
        <time>2016-07-02T07:12:21Z</time>
      </trkpt>
      <trkpt lat="48.74204" lon="7.51009">
        <ele>159</ele>
        <time>2016-07-02T07:14:21Z</time>
      </trkpt>
      <trkpt lat="48.742" lon="7.51046">
        <ele>158</ele>
        <time>2016-07-02T07:16:21Z</time>
      </trkpt>
      <trkpt lat="48.74191" lon="7.51129">
        <ele>158</ele>
        <time>2016-07-02T07:18:21Z</time>
      </trkpt>
      <trkpt lat="48.74179" lon="7.51249">
        <ele>158</ele>
        <time>2016-07-02T07:20:21Z</time>
      </trkpt>
      <trkpt lat="48.74174" lon="7.51281">
        <ele>158</ele>
        <time>2016-07-02T07:22:21Z</time>
      </trkpt>
      <trkpt lat="48.7417" lon="7.51313">
        <ele>159</ele>
        <time>2016-07-02T07:24:21Z</time>
      </trkpt>
      <trkpt lat="48.74167" lon="7.51325">
        <ele>159</ele>
        <time>2016-07-02T07:26:21Z</time>
      </trkpt>
      <trkpt lat="48.74165" lon="7.51334">
        <ele>159</ele>
        <time>2016-07-02T07:28:21Z</time>
      </trkpt>
      <trkpt lat="48.74165" lon="7.51346">
        <ele>159</ele>
        <time>2016-07-02T07:30:21Z</time>
      </trkpt>
      <trkpt lat="48.74165" lon="7.51367">
        <ele>159</ele>
        <time>2016-07-02T07:32:21Z</time>
      </trkpt>
      <trkpt lat="48.74163" lon="7.51397">
        <ele>158</ele>
        <time>2016-07-02T07:34:21Z</time>
      </trkpt>
      <trkpt lat="48.74161" lon="7.51417">
        <ele>158</ele>
        <time>2016-07-02T07:36:21Z</time>
      </trkpt>
      <trkpt lat="48.74145" lon="7.51576">
        <ele>159</ele>
        <time>2016-07-02T07:38:21Z</time>
      </trkpt>
      <trkpt lat="48.74123" lon="7.51772">
        <ele>156</ele>
        <time>2016-07-02T07:40:21Z</time>
      </trkpt>
      <trkpt lat="48.74104" lon="7.51957">
        <ele>158</ele>
        <time>2016-07-02T07:42:21Z</time>
      </trkpt>
      <trkpt lat="48.74087" lon="7.52109">
        <ele>161</ele>
        <time>2016-07-02T07:44:21Z</time>
      </trkpt>
      <trkpt lat="48.74063" lon="7.52346">
        <ele>158</ele>
        <time>2016-07-02T07:46:21Z</time>
      </trkpt>
      <trkpt lat="48.7405" lon="7.52456">
        <ele>158</ele>
        <time>2016-07-02T07:48:21Z</time>
      </trkpt>
      <trkpt lat="48.74027" lon="7.52679">
        <ele>158</ele>
        <time>2016-07-02T07:50:21Z</time>
      </trkpt>
      <trkpt lat="48.74013" lon="7.528">
        <ele>159</ele>
        <time>2016-07-02T07:52:21Z</time>
      </trkpt>
      <trkpt lat="48.74006" lon="7.52866">
        <ele>159</ele>
        <time>2016-07-02T07:54:21Z</time>
      </trkpt>
      <trkpt lat="48.74001" lon="7.52904">
        <ele>160</ele>
        <time>2016-07-02T07:56:21Z</time>
      </trkpt>
      <trkpt lat="48.73998" lon="7.52935">
        <ele>160</ele>
        <time>2016-07-02T07:58:21Z</time>
      </trkpt>
      <trkpt lat="48.73997" lon="7.52957">
        <ele>161</ele>
        <time>2016-07-02T08:00:21Z</time>
      </trkpt>
      <trkpt lat="48.73998" lon="7.53021">
        <ele>162</ele>
        <time>2016-07-02T08:02:21Z</time>
      </trkpt>
      <trkpt lat="48.73996" lon="7.53039">
        <ele>163</ele>
        <time>2016-07-02T08:04:21Z</time>
      </trkpt>
      <trkpt lat="48.73994" lon="7.53048">
        <ele>163</ele>
        <time>2016-07-02T08:06:21Z</time>
      </trkpt>
      <trkpt lat="48.73992" lon="7.5306">
        <ele>163</ele>
        <time>2016-07-02T08:08:21Z</time>
      </trkpt>
      <trkpt lat="48.73991" lon="7.53069">
        <ele>163</ele>
        <time>2016-07-02T08:10:21Z</time>
      </trkpt>
      <trkpt lat="48.73992" lon="7.5309">
        <ele>163</ele>
        <time>2016-07-02T08:12:21Z</time>
      </trkpt>
      <trkpt lat="48.73994" lon="7.53104">
        <ele>164</ele>
        <time>2016-07-02T08:14:21Z</time>
      </trkpt>
      <trkpt lat="48.74" lon="7.53119">
        <ele>163</ele>
        <time>2016-07-02T08:16:21Z</time>
      </trkpt>
      <trkpt lat="48.74004" lon="7.53128">
        <ele>163</ele>
        <time>2016-07-02T08:18:21Z</time>
      </trkpt>
      <trkpt lat="48.74005" lon="7.53137">
        <ele>164</ele>
        <time>2016-07-02T08:20:21Z</time>
      </trkpt>
      <trkpt lat="48.74006" lon="7.53152">
        <ele>164</ele>
        <time>2016-07-02T08:22:21Z</time>
      </trkpt>
      <trkpt lat="48.7401" lon="7.5317">
        <ele>164</ele>
        <time>2016-07-02T08:24:21Z</time>
      </trkpt>
      <trkpt lat="48.74013" lon="7.53188">
        <ele>164</ele>
        <time>2016-07-02T08:26:21Z</time>
      </trkpt>
      <trkpt lat="48.74017" lon="7.53226">
        <ele>165</ele>
        <time>2016-07-02T08:28:21Z</time>
      </trkpt>
      <trkpt lat="48.74026" lon="7.53317">
        <ele>164</ele>
        <time>2016-07-02T08:30:21Z</time>
      </trkpt>
      <trkpt lat="48.74033" lon="7.53375">
        <ele>163</ele>
        <time>2016-07-02T08:32:21Z</time>
      </trkpt>
      <trkpt lat="48.74047" lon="7.53464">
        <ele>161</ele>
        <time>2016-07-02T08:34:21Z</time>
      </trkpt>
      <trkpt lat="48.74058" lon="7.5354">
        <ele>160</ele>
        <time>2016-07-02T08:36:21Z</time>
      </trkpt>
      <trkpt lat="48.7406" lon="7.53554">
        <ele>160</ele>
        <time>2016-07-02T08:38:21Z</time>
      </trkpt>
      <trkpt lat="48.74067" lon="7.53585">
        <ele>159</ele>
        <time>2016-07-02T08:40:21Z</time>
      </trkpt>
      <trkpt lat="48.74072" lon="7.53605">
        <ele>159</ele>
        <time>2016-07-02T08:42:21Z</time>
      </trkpt>
      <trkpt lat="48.74079" lon="7.5362">
        <ele>159</ele>
        <time>2016-07-02T08:44:21Z</time>
      </trkpt>
      <trkpt lat="48.74087" lon="7.53637">
        <ele>158</ele>
        <time>2016-07-02T08:46:21Z</time>
      </trkpt>
      <trkpt lat="48.74091" lon="7.5365">
        <ele>158</ele>
        <time>2016-07-02T08:48:21Z</time>
      </trkpt>
      <trkpt lat="48.74096" lon="7.5367">
        <ele>158</ele>
        <time>2016-07-02T08:50:21Z</time>
      </trkpt>
      <trkpt lat="48.74098" lon="7.53675">
        <ele>158</ele>
        <time>2016-07-02T08:52:21Z</time>
      </trkpt>
      <trkpt lat="48.74101" lon="7.53682">
        <ele>158</ele>
        <time>2016-07-02T08:54:21Z</time>
      </trkpt>
      <trkpt lat="48.74102" lon="7.53698">
        <ele>158</ele>
        <time>2016-07-02T08:56:21Z</time>
      </trkpt>
      <trkpt lat="48.74116" lon="7.53735">
        <ele>158</ele>
        <time>2016-07-02T08:58:21Z</time>
      </trkpt>
      <trkpt lat="48.74133" lon="7.5378">
        <ele>158</ele>
        <time>2016-07-02T09:00:21Z</time>
      </trkpt>
      <trkpt lat="48.74203" lon="7.53976">
        <ele>157</ele>
        <time>2016-07-02T09:02:21Z</time>
      </trkpt>
      <trkpt lat="48.74215" lon="7.5401">
        <ele>157</ele>
        <time>2016-07-02T09:04:21Z</time>
      </trkpt>
      <trkpt lat="48.743" lon="7.5425">
        <ele>156</ele>
        <time>2016-07-02T09:06:21Z</time>
      </trkpt>
      <trkpt lat="48.74328" lon="7.54334">
        <ele>154</ele>
        <time>2016-07-02T09:08:21Z</time>
      </trkpt>
      <trkpt lat="48.74338" lon="7.54375">
        <ele>155</ele>
        <time>2016-07-02T09:10:21Z</time>
      </trkpt>
      <trkpt lat="48.74351" lon="7.54433">
        <ele>157</ele>
        <time>2016-07-02T09:12:21Z</time>
      </trkpt>
      <trkpt lat="48.7438" lon="7.5457">
        <ele>159</ele>
        <time>2016-07-02T09:14:21Z</time>
      </trkpt>
      <trkpt lat="48.74389" lon="7.54616">
        <ele>159</ele>
        <time>2016-07-02T09:16:21Z</time>
      </trkpt>
      <trkpt lat="48.744" lon="7.54676">
        <ele>158</ele>
        <time>2016-07-02T09:18:21Z</time>
      </trkpt>
      <trkpt lat="48.74406" lon="7.54727">
        <ele>158</ele>
        <time>2016-07-02T09:20:21Z</time>
      </trkpt>
      <trkpt lat="48.74408" lon="7.54748">
        <ele>158</ele>
        <time>2016-07-02T09:22:21Z</time>
      </trkpt>
      <trkpt lat="48.74409" lon="7.54787">
        <ele>158</ele>
        <time>2016-07-02T09:24:21Z</time>
      </trkpt>
      <trkpt lat="48.74408" lon="7.54829">
        <ele>159</ele>
        <time>2016-07-02T09:26:21Z</time>
      </trkpt>
      <trkpt lat="48.74404" lon="7.54876">
        <ele>159</ele>
        <time>2016-07-02T09:28:21Z</time>
      </trkpt>
      <trkpt lat="48.74401" lon="7.54906">
        <ele>160</ele>
        <time>2016-07-02T09:30:21Z</time>
      </trkpt>
      <trkpt lat="48.74397" lon="7.54929">
        <ele>160</ele>
        <time>2016-07-02T09:32:21Z</time>
      </trkpt>
      <trkpt lat="48.74389" lon="7.54989">
        <ele>161</ele>
        <time>2016-07-02T09:34:21Z</time>
      </trkpt>
      <trkpt lat="48.74388" lon="7.54995">
        <ele>161</ele>
        <time>2016-07-02T09:36:21Z</time>
      </trkpt>
      <trkpt lat="48.74364" lon="7.5517">
        <ele>165</ele>
        <time>2016-07-02T09:38:21Z</time>
      </trkpt>
      <trkpt lat="48.74354" lon="7.55263">
        <ele>166</ele>
        <time>2016-07-02T09:40:21Z</time>
      </trkpt>
      <trkpt lat="48.74353" lon="7.55282">
        <ele>166</ele>
        <time>2016-07-02T09:42:21Z</time>
      </trkpt>
      <trkpt lat="48.74353" lon="7.55298">
        <ele>166</ele>
        <time>2016-07-02T09:44:21Z</time>
      </trkpt>
      <trkpt lat="48.74355" lon="7.55342">
        <ele>166</ele>
        <time>2016-07-02T09:46:21Z</time>
      </trkpt>
      <trkpt lat="48.74354" lon="7.55367">
        <ele>166</ele>
        <time>2016-07-02T09:48:21Z</time>
      </trkpt>
      <trkpt lat="48.7436" lon="7.55402">
        <ele>166</ele>
        <time>2016-07-02T09:50:21Z</time>
      </trkpt>
      <trkpt lat="48.74372" lon="7.55453">
        <ele>166</ele>
        <time>2016-07-02T09:52:21Z</time>
      </trkpt>
      <trkpt lat="48.74388" lon="7.55512">
        <ele>164</ele>
        <time>2016-07-02T09:54:21Z</time>
      </trkpt>
      <trkpt lat="48.74404" lon="7.55554">
        <ele>164</ele>
        <time>2016-07-02T09:56:21Z</time>
      </trkpt>
      <trkpt lat="48.74436" lon="7.55629">
        <ele>164</ele>
        <time>2016-07-02T09:58:21Z</time>
      </trkpt>
      <trkpt lat="48.74456" lon="7.55669">
        <ele>164</ele>
        <time>2016-07-02T10:00:21Z</time>
      </trkpt>
      <trkpt lat="48.74457" lon="7.55672">
        <ele>164</ele>
        <time>2016-07-02T10:02:21Z</time>
      </trkpt>
      <trkpt lat="48.74471" lon="7.55681">
        <ele>162</ele>
        <time>2016-07-02T10:04:21Z</time>
      </trkpt>
      <trkpt lat="48.74486" lon="7.55706">
        <ele>162</ele>
        <time>2016-07-02T10:06:21Z</time>
      </trkpt>
      <trkpt lat="48.74508" lon="7.55734">
        <ele>162</ele>
        <time>2016-07-02T10:08:21Z</time>
      </trkpt>
      <trkpt lat="48.74529" lon="7.55758">
        <ele>162</ele>
        <time>2016-07-02T10:10:21Z</time>
      </trkpt>
      <trkpt lat="48.74564" lon="7.55802">
        <ele>160</ele>
        <time>2016-07-02T10:12:21Z</time>
      </trkpt>
      <trkpt lat="48.74593" lon="7.55844">
        <ele>160</ele>
        <time>2016-07-02T10:14:21Z</time>
      </trkpt>
      <trkpt lat="48.74614" lon="7.55884">
        <ele>160</ele>
        <time>2016-07-02T10:16:21Z</time>
      </trkpt>
      <trkpt lat="48.74629" lon="7.55921">
        <ele>160</ele>
        <time>2016-07-02T10:18:21Z</time>
      </trkpt>
      <trkpt lat="48.74654" lon="7.56002">
        <ele>156</ele>
        <time>2016-07-02T10:20:21Z</time>
      </trkpt>
      <trkpt lat="48.7466" lon="7.5602">
        <ele>156</ele>
        <time>2016-07-02T10:22:21Z</time>
      </trkpt>
      <trkpt lat="48.74674" lon="7.56065">
        <ele>156</ele>
        <time>2016-07-02T10:24:21Z</time>
      </trkpt>
      <trkpt lat="48.74692" lon="7.5613">
        <ele>158</ele>
        <time>2016-07-02T10:26:21Z</time>
      </trkpt>
      <trkpt lat="48.74725" lon="7.56242">
        <ele>160</ele>
        <time>2016-07-02T10:28:21Z</time>
      </trkpt>
      <trkpt lat="48.74759" lon="7.56361">
        <ele>161</ele>
        <time>2016-07-02T10:30:21Z</time>
      </trkpt>
      <trkpt lat="48.74787" lon="7.5646">
        <ele>161</ele>
        <time>2016-07-02T10:32:21Z</time>
      </trkpt>
      <trkpt lat="48.7481" lon="7.5654">
        <ele>161</ele>
        <time>2016-07-02T10:34:21Z</time>
      </trkpt>
      <trkpt lat="48.74818" lon="7.56573">
        <ele>161</ele>
        <time>2016-07-02T10:36:21Z</time>
      </trkpt>
      <trkpt lat="48.74825" lon="7.5662">
        <ele>161</ele>
        <time>2016-07-02T10:38:21Z</time>
      </trkpt>
      <trkpt lat="48.74833" lon="7.56679">
        <ele>159</ele>
        <time>2016-07-02T10:40:21Z</time>
      </trkpt>
      <trkpt lat="48.74837" lon="7.56709">
        <ele>158</ele>
        <time>2016-07-02T10:42:21Z</time>
      </trkpt>
      <trkpt lat="48.74838" lon="7.56734">
        <ele>158</ele>
        <time>2016-07-02T10:44:21Z</time>
      </trkpt>
      <trkpt lat="48.74845" lon="7.56791">
        <ele>158</ele>
        <time>2016-07-02T10:46:21Z</time>
      </trkpt>
      <trkpt lat="48.74848" lon="7.56803">
        <ele>159</ele>
        <time>2016-07-02T10:48:21Z</time>
      </trkpt>
      <trkpt lat="48.74852" lon="7.56808">
        <ele>159</ele>
        <time>2016-07-02T10:50:21Z</time>
      </trkpt>
      <trkpt lat="48.74856" lon="7.56815">
        <ele>159</ele>
        <time>2016-07-02T10:52:21Z</time>
      </trkpt>
      <trkpt lat="48.74858" lon="7.56824">
        <ele>159</ele>
        <time>2016-07-02T10:54:21Z</time>
      </trkpt>
      <trkpt lat="48.7486" lon="7.56837">
        <ele>159</ele>
        <time>2016-07-02T10:56:21Z</time>
      </trkpt>
      <trkpt lat="48.7486" lon="7.56844">
        <ele>159</ele>
        <time>2016-07-02T10:58:21Z</time>
      </trkpt>
      <trkpt lat="48.74859" lon="7.5685">
        <ele>159</ele>
        <time>2016-07-02T11:00:21Z</time>
      </trkpt>
      <trkpt lat="48.74857" lon="7.56855">
        <ele>159</ele>
        <time>2016-07-02T11:02:21Z</time>
      </trkpt>
      <trkpt lat="48.74854" lon="7.56859">
        <ele>159</ele>
        <time>2016-07-02T11:04:21Z</time>
      </trkpt>
      <trkpt lat="48.74847" lon="7.56862">
        <ele>159</ele>
        <time>2016-07-02T11:06:21Z</time>
      </trkpt>
      <trkpt lat="48.74844" lon="7.56866">
        <ele>159</ele>
        <time>2016-07-02T11:08:21Z</time>
      </trkpt>
      <trkpt lat="48.74842" lon="7.5687">
        <ele>159</ele>
        <time>2016-07-02T11:10:21Z</time>
      </trkpt>
      <trkpt lat="48.7484" lon="7.56874">
        <ele>159</ele>
        <time>2016-07-02T11:12:21Z</time>
      </trkpt>
      <trkpt lat="48.7484" lon="7.5688">
        <ele>159</ele>
        <time>2016-07-02T11:14:21Z</time>
      </trkpt>
      <trkpt lat="48.7484" lon="7.56885">
        <ele>159</ele>
        <time>2016-07-02T11:16:21Z</time>
      </trkpt>
      <trkpt lat="48.74841" lon="7.56893">
        <ele>159</ele>
        <time>2016-07-02T11:18:21Z</time>
      </trkpt>
      <trkpt lat="48.74859" lon="7.57005">
        <ele>160</ele>
        <time>2016-07-02T11:20:21Z</time>
      </trkpt>
      <trkpt lat="48.74859" lon="7.5701">
        <ele>160</ele>
        <time>2016-07-02T11:22:21Z</time>
      </trkpt>
      <trkpt lat="48.74858" lon="7.57014">
        <ele>160</ele>
        <time>2016-07-02T11:24:21Z</time>
      </trkpt>
      <trkpt lat="48.74857" lon="7.57017">
        <ele>160</ele>
        <time>2016-07-02T11:26:21Z</time>
      </trkpt>
      <trkpt lat="48.74855" lon="7.57019">
        <ele>160</ele>
        <time>2016-07-02T11:28:21Z</time>
      </trkpt>
      <trkpt lat="48.7485" lon="7.57024">
        <ele>160</ele>
        <time>2016-07-02T11:30:21Z</time>
      </trkpt>
      <trkpt lat="48.7485" lon="7.57024">
        <ele>160</ele>
        <time>2016-07-02T11:32:21Z</time>
      </trkpt>
      <trkpt lat="48.74846" lon="7.57002">
        <ele>161</ele>
        <time>2016-07-02T11:34:21Z</time>
      </trkpt>
      <trkpt lat="48.74829" lon="7.56904">
        <ele>159</ele>
        <time>2016-07-02T11:36:21Z</time>
      </trkpt>
      <trkpt lat="48.74823" lon="7.5687">
        <ele>159</ele>
        <time>2016-07-02T11:38:21Z</time>
      </trkpt>
      <trkpt lat="48.74821" lon="7.5686">
        <ele>159</ele>
        <time>2016-07-02T11:40:21Z</time>
      </trkpt>
      <trkpt lat="48.74821" lon="7.56856">
        <ele>159</ele>
        <time>2016-07-02T11:42:21Z</time>
      </trkpt>
      <trkpt lat="48.74821" lon="7.56854">
        <ele>159</ele>
        <time>2016-07-02T11:44:21Z</time>
      </trkpt>
      <trkpt lat="48.7482" lon="7.56849">
        <ele>159</ele>
        <time>2016-07-02T11:46:21Z</time>
      </trkpt>
      <trkpt lat="48.7482" lon="7.56845">
        <ele>159</ele>
        <time>2016-07-02T11:48:21Z</time>
      </trkpt>
      <trkpt lat="48.7482" lon="7.56836">
        <ele>159</ele>
        <time>2016-07-02T11:50:21Z</time>
      </trkpt>
      <trkpt lat="48.7482" lon="7.56836">
        <ele>159</ele>
        <time>2016-07-02T11:52:21Z</time>
      </trkpt>
      <trkpt lat="48.74849" lon="7.56827">
        <ele>159</ele>
        <time>2016-07-02T11:54:21Z</time>
      </trkpt>
      <trkpt lat="48.74858" lon="7.56824">
        <ele>159</ele>
        <time>2016-07-02T11:56:21Z</time>
      </trkpt>
      <trkpt lat="48.74865" lon="7.56822">
        <ele>159</ele>
        <time>2016-07-02T11:58:21Z</time>
      </trkpt>
      <trkpt lat="48.74875" lon="7.56819">
        <ele>159</ele>
        <time>2016-07-02T12:00:21Z</time>
      </trkpt>
      <trkpt lat="48.74882" lon="7.56816">
        <ele>159</ele>
        <time>2016-07-02T12:02:21Z</time>
      </trkpt>
      <trkpt lat="48.74985" lon="7.56784">
        <ele>154</ele>
        <time>2016-07-02T12:04:21Z</time>
      </trkpt>
      <trkpt lat="48.74985" lon="7.56784">
        <ele>154</ele>
        <time>2016-07-02T12:06:21Z</time>
      </trkpt>
      <trkpt lat="48.74983" lon="7.56789">
        <ele>155</ele>
        <time>2016-07-02T12:08:21Z</time>
      </trkpt>
      <trkpt lat="48.74983" lon="7.5679">
        <ele>155</ele>
        <time>2016-07-02T12:10:21Z</time>
      </trkpt>
      <trkpt lat="48.74982" lon="7.56792">
        <ele>155</ele>
        <time>2016-07-02T12:12:21Z</time>
      </trkpt>
      <trkpt lat="48.74981" lon="7.56794">
        <ele>155</ele>
        <time>2016-07-02T12:14:21Z</time>
      </trkpt>
      <trkpt lat="48.74979" lon="7.56795">
        <ele>155</ele>
        <time>2016-07-02T12:16:21Z</time>
      </trkpt>
      <trkpt lat="48.74978" lon="7.56798">
        <ele>155</ele>
        <time>2016-07-02T12:18:21Z</time>
      </trkpt>
      <trkpt lat="48.74976" lon="7.568">
        <ele>155</ele>
        <time>2016-07-02T12:20:21Z</time>
      </trkpt>
      <trkpt lat="48.74975" lon="7.56801">
        <ele>155</ele>
        <time>2016-07-02T12:22:21Z</time>
      </trkpt>
      <trkpt lat="48.74973" lon="7.56804">
        <ele>155</ele>
        <time>2016-07-02T12:24:21Z</time>
      </trkpt>
      <trkpt lat="48.74969" lon="7.56808">
        <ele>156</ele>
        <time>2016-07-02T12:26:21Z</time>
      </trkpt>
      <trkpt lat="48.74965" lon="7.5681">
        <ele>156</ele>
        <time>2016-07-02T12:28:21Z</time>
      </trkpt>
      <trkpt lat="48.74962" lon="7.56813">
        <ele>156</ele>
        <time>2016-07-02T12:30:21Z</time>
      </trkpt>
      <trkpt lat="48.74922" lon="7.56836">
        <ele>159</ele>
        <time>2016-07-02T12:32:21Z</time>
      </trkpt>
      <trkpt lat="48.74921" lon="7.56837">
        <ele>159</ele>
        <time>2016-07-02T12:34:21Z</time>
      </trkpt>
      <trkpt lat="48.74913" lon="7.56842">
        <ele>159</ele>
        <time>2016-07-02T12:36:21Z</time>
      </trkpt>
      <trkpt lat="48.74911" lon="7.56843">
        <ele>158</ele>
        <time>2016-07-02T12:38:21Z</time>
      </trkpt>
      <trkpt lat="48.7491" lon="7.56845">
        <ele>158</ele>
        <time>2016-07-02T12:40:21Z</time>
      </trkpt>
      <trkpt lat="48.7491" lon="7.56847">
        <ele>158</ele>
        <time>2016-07-02T12:42:21Z</time>
      </trkpt>
      <trkpt lat="48.7491" lon="7.56849">
        <ele>158</ele>
        <time>2016-07-02T12:44:21Z</time>
      </trkpt>
      <trkpt lat="48.7491" lon="7.56851">
        <ele>158</ele>
        <time>2016-07-02T12:46:21Z</time>
      </trkpt>
      <trkpt lat="48.7491" lon="7.56854">
        <ele>158</ele>
        <time>2016-07-02T12:48:21Z</time>
      </trkpt>
      <trkpt lat="48.74911" lon="7.56864">
        <ele>157</ele>
        <time>2016-07-02T12:50:21Z</time>
      </trkpt>
      <trkpt lat="48.74914" lon="7.56878">
        <ele>156</ele>
        <time>2016-07-02T12:52:21Z</time>
      </trkpt>
      <trkpt lat="48.74922" lon="7.56915">
        <ele>154</ele>
        <time>2016-07-02T12:54:21Z</time>
      </trkpt>
      <trkpt lat="48.74928" lon="7.56936">
        <ele>154</ele>
        <time>2016-07-02T12:56:21Z</time>
      </trkpt>
      <trkpt lat="48.74933" lon="7.56954">
        <ele>154</ele>
        <time>2016-07-02T12:58:21Z</time>
      </trkpt>
      <trkpt lat="48.74942" lon="7.56982">
        <ele>154</ele>
        <time>2016-07-02T13:00:21Z</time>
      </trkpt>
      <trkpt lat="48.74949" lon="7.57006">
        <ele>154</ele>
        <time>2016-07-02T13:02:21Z</time>
      </trkpt>
      <trkpt lat="48.74955" lon="7.57027">
        <ele>154</ele>
        <time>2016-07-02T13:04:21Z</time>
      </trkpt>
      <trkpt lat="48.74958" lon="7.57044">
        <ele>154</ele>
        <time>2016-07-02T13:06:21Z</time>
      </trkpt>
      <trkpt lat="48.74965" lon="7.57083">
        <ele>154</ele>
        <time>2016-07-02T13:08:21Z</time>
      </trkpt>
      <trkpt lat="48.74969" lon="7.57105">
        <ele>154</ele>
        <time>2016-07-02T13:10:21Z</time>
      </trkpt>
      <trkpt lat="48.74974" lon="7.57146">
        <ele>154</ele>
        <time>2016-07-02T13:12:21Z</time>
      </trkpt>
      <trkpt lat="48.74978" lon="7.57184">
        <ele>154</ele>
        <time>2016-07-02T13:14:21Z</time>
      </trkpt>
      <trkpt lat="48.74979" lon="7.57204">
        <ele>154</ele>
        <time>2016-07-02T13:16:21Z</time>
      </trkpt>
      <trkpt lat="48.74981" lon="7.57241">
        <ele>155</ele>
        <time>2016-07-02T13:18:21Z</time>
      </trkpt>
      <trkpt lat="48.74981" lon="7.57255">
        <ele>155</ele>
        <time>2016-07-02T13:20:21Z</time>
      </trkpt>
      <trkpt lat="48.74981" lon="7.57275">
        <ele>154</ele>
        <time>2016-07-02T13:22:21Z</time>
      </trkpt>
      <trkpt lat="48.74977" lon="7.5731">
        <ele>154</ele>
        <time>2016-07-02T13:24:21Z</time>
      </trkpt>
      <trkpt lat="48.74974" lon="7.57328">
        <ele>154</ele>
        <time>2016-07-02T13:26:21Z</time>
      </trkpt>
      <trkpt lat="48.74966" lon="7.57363">
        <ele>154</ele>
        <time>2016-07-02T13:28:21Z</time>
      </trkpt>
      <trkpt lat="48.7496" lon="7.57389">
        <ele>154</ele>
        <time>2016-07-02T13:30:21Z</time>
      </trkpt>
      <trkpt lat="48.7496" lon="7.57394">
        <ele>154</ele>
        <time>2016-07-02T13:32:21Z</time>
      </trkpt>
      <trkpt lat="48.74959" lon="7.57399">
        <ele>154</ele>
        <time>2016-07-02T13:34:21Z</time>
      </trkpt>
      <trkpt lat="48.74959" lon="7.57414">
        <ele>154</ele>
        <time>2016-07-02T13:36:21Z</time>
      </trkpt>
      <trkpt lat="48.74959" lon="7.57432">
        <ele>154</ele>
        <time>2016-07-02T13:38:21Z</time>
      </trkpt>
      <trkpt lat="48.74959" lon="7.57447">
        <ele>154</ele>
        <time>2016-07-02T13:40:21Z</time>
      </trkpt>
      <trkpt lat="48.7496" lon="7.57453">
        <ele>154</ele>
        <time>2016-07-02T13:42:21Z</time>
      </trkpt>
      <trkpt lat="48.7496" lon="7.57458">
        <ele>154</ele>
        <time>2016-07-02T13:44:21Z</time>
      </trkpt>
      <trkpt lat="48.74961" lon="7.57464">
        <ele>155</ele>
        <time>2016-07-02T13:46:21Z</time>
      </trkpt>
      <trkpt lat="48.74963" lon="7.5748">
        <ele>155</ele>
        <time>2016-07-02T13:48:21Z</time>
      </trkpt>
      <trkpt lat="48.74964" lon="7.57487">
        <ele>155</ele>
        <time>2016-07-02T13:50:21Z</time>
      </trkpt>
      <trkpt lat="48.74964" lon="7.57501">
        <ele>155</ele>
        <time>2016-07-02T13:52:21Z</time>
      </trkpt>
      <trkpt lat="48.7497" lon="7.57615">
        <ele>154</ele>
        <time>2016-07-02T13:54:21Z</time>
      </trkpt>
      <trkpt lat="48.74976" lon="7.57749">
        <ele>155</ele>
        <time>2016-07-02T13:56:21Z</time>
      </trkpt>
      <trkpt lat="48.74976" lon="7.57749">
        <ele>155</ele>
        <time>2016-07-02T13:58:21Z</time>
      </trkpt>
      <trkpt lat="48.7497" lon="7.57615">
        <ele>154</ele>
        <time>2016-07-02T14:00:21Z</time>
      </trkpt>
      <trkpt lat="48.74964" lon="7.57501">
        <ele>155</ele>
        <time>2016-07-02T14:02:21Z</time>
      </trkpt>
      <trkpt lat="48.74964" lon="7.57487">
        <ele>155</ele>
        <time>2016-07-02T14:04:21Z</time>
      </trkpt>
      <trkpt lat="48.74963" lon="7.5748">
        <ele>155</ele>
        <time>2016-07-02T14:06:21Z</time>
      </trkpt>
      <trkpt lat="48.74961" lon="7.57464">
        <ele>155</ele>
        <time>2016-07-02T14:08:21Z</time>
      </trkpt>
      <trkpt lat="48.7496" lon="7.57458">
        <ele>154</ele>
        <time>2016-07-02T14:10:21Z</time>
      </trkpt>
      <trkpt lat="48.7496" lon="7.57453">
        <ele>154</ele>
        <time>2016-07-02T14:12:21Z</time>
      </trkpt>
      <trkpt lat="48.74959" lon="7.57447">
        <ele>154</ele>
        <time>2016-07-02T14:14:21Z</time>
      </trkpt>
      <trkpt lat="48.74959" lon="7.57432">
        <ele>154</ele>
        <time>2016-07-02T14:16:21Z</time>
      </trkpt>
      <trkpt lat="48.74959" lon="7.57414">
        <ele>154</ele>
        <time>2016-07-02T14:18:21Z</time>
      </trkpt>
      <trkpt lat="48.74959" lon="7.57399">
        <ele>154</ele>
        <time>2016-07-02T14:20:21Z</time>
      </trkpt>
      <trkpt lat="48.7496" lon="7.57394">
        <ele>154</ele>
        <time>2016-07-02T14:22:21Z</time>
      </trkpt>
      <trkpt lat="48.7496" lon="7.57389">
        <ele>154</ele>
        <time>2016-07-02T14:24:21Z</time>
      </trkpt>
      <trkpt lat="48.74966" lon="7.57363">
        <ele>154</ele>
        <time>2016-07-02T14:26:21Z</time>
      </trkpt>
      <trkpt lat="48.74974" lon="7.57328">
        <ele>154</ele>
        <time>2016-07-02T14:28:21Z</time>
      </trkpt>
      <trkpt lat="48.74977" lon="7.5731">
        <ele>154</ele>
        <time>2016-07-02T14:30:21Z</time>
      </trkpt>
      <trkpt lat="48.74981" lon="7.57275">
        <ele>154</ele>
        <time>2016-07-02T14:32:21Z</time>
      </trkpt>
      <trkpt lat="48.74981" lon="7.57255">
        <ele>155</ele>
        <time>2016-07-02T14:34:21Z</time>
      </trkpt>
      <trkpt lat="48.74981" lon="7.57241">
        <ele>155</ele>
        <time>2016-07-02T14:36:21Z</time>
      </trkpt>
      <trkpt lat="48.74979" lon="7.57204">
        <ele>154</ele>
        <time>2016-07-02T14:38:21Z</time>
      </trkpt>
      <trkpt lat="48.74978" lon="7.57184">
        <ele>154</ele>
        <time>2016-07-02T14:40:21Z</time>
      </trkpt>
      <trkpt lat="48.74974" lon="7.57146">
        <ele>154</ele>
        <time>2016-07-02T14:42:21Z</time>
      </trkpt>
      <trkpt lat="48.74969" lon="7.57105">
        <ele>154</ele>
        <time>2016-07-02T14:44:21Z</time>
      </trkpt>
      <trkpt lat="48.74965" lon="7.57083">
        <ele>154</ele>
        <time>2016-07-02T14:46:21Z</time>
      </trkpt>
      <trkpt lat="48.74958" lon="7.57044">
        <ele>154</ele>
        <time>2016-07-02T14:48:21Z</time>
      </trkpt>
      <trkpt lat="48.74955" lon="7.57027">
        <ele>154</ele>
        <time>2016-07-02T14:50:21Z</time>
      </trkpt>
      <trkpt lat="48.74949" lon="7.57006">
        <ele>154</ele>
        <time>2016-07-02T14:52:21Z</time>
      </trkpt>
      <trkpt lat="48.74942" lon="7.56982">
        <ele>154</ele>
        <time>2016-07-02T14:54:21Z</time>
      </trkpt>
      <trkpt lat="48.74933" lon="7.56954">
        <ele>154</ele>
        <time>2016-07-02T14:56:21Z</time>
      </trkpt>
      <trkpt lat="48.74928" lon="7.56936">
        <ele>154</ele>
        <time>2016-07-02T14:58:21Z</time>
      </trkpt>
      <trkpt lat="48.74922" lon="7.56915">
        <ele>154</ele>
        <time>2016-07-02T15:00:21Z</time>
      </trkpt>
      <trkpt lat="48.74914" lon="7.56878">
        <ele>156</ele>
        <time>2016-07-02T15:02:21Z</time>
      </trkpt>
      <trkpt lat="48.74911" lon="7.56864">
        <ele>157</ele>
        <time>2016-07-02T15:04:21Z</time>
      </trkpt>
      <trkpt lat="48.7491" lon="7.56854">
        <ele>158</ele>
        <time>2016-07-02T15:06:21Z</time>
      </trkpt>
      <trkpt lat="48.7491" lon="7.56851">
        <ele>158</ele>
        <time>2016-07-02T15:08:21Z</time>
      </trkpt>
      <trkpt lat="48.7491" lon="7.56849">
        <ele>158</ele>
        <time>2016-07-02T15:10:21Z</time>
      </trkpt>
      <trkpt lat="48.7491" lon="7.56847">
        <ele>158</ele>
        <time>2016-07-02T15:12:21Z</time>
      </trkpt>
      <trkpt lat="48.7491" lon="7.56845">
        <ele>158</ele>
        <time>2016-07-02T15:14:21Z</time>
      </trkpt>
      <trkpt lat="48.74911" lon="7.56843">
        <ele>158</ele>
        <time>2016-07-02T15:16:21Z</time>
      </trkpt>
      <trkpt lat="48.74913" lon="7.56842">
        <ele>159</ele>
        <time>2016-07-02T15:18:21Z</time>
      </trkpt>
      <trkpt lat="48.74921" lon="7.56837">
        <ele>159</ele>
        <time>2016-07-02T15:20:21Z</time>
      </trkpt>
      <trkpt lat="48.74922" lon="7.56836">
        <ele>159</ele>
        <time>2016-07-02T15:22:21Z</time>
      </trkpt>
      <trkpt lat="48.74962" lon="7.56813">
        <ele>156</ele>
        <time>2016-07-02T15:24:21Z</time>
      </trkpt>
      <trkpt lat="48.74965" lon="7.5681">
        <ele>156</ele>
        <time>2016-07-02T15:26:21Z</time>
      </trkpt>
      <trkpt lat="48.74969" lon="7.56808">
        <ele>156</ele>
        <time>2016-07-02T15:28:21Z</time>
      </trkpt>
      <trkpt lat="48.74973" lon="7.56804">
        <ele>155</ele>
        <time>2016-07-02T15:30:21Z</time>
      </trkpt>
      <trkpt lat="48.74975" lon="7.56801">
        <ele>155</ele>
        <time>2016-07-02T15:32:21Z</time>
      </trkpt>
      <trkpt lat="48.74976" lon="7.568">
        <ele>155</ele>
        <time>2016-07-02T15:34:21Z</time>
      </trkpt>
      <trkpt lat="48.74978" lon="7.56798">
        <ele>155</ele>
        <time>2016-07-02T15:36:21Z</time>
      </trkpt>
      <trkpt lat="48.74979" lon="7.56795">
        <ele>155</ele>
        <time>2016-07-02T15:38:21Z</time>
      </trkpt>
      <trkpt lat="48.74981" lon="7.56794">
        <ele>155</ele>
        <time>2016-07-02T15:40:21Z</time>
      </trkpt>
      <trkpt lat="48.74982" lon="7.56792">
        <ele>155</ele>
        <time>2016-07-02T15:42:21Z</time>
      </trkpt>
      <trkpt lat="48.74983" lon="7.5679">
        <ele>155</ele>
        <time>2016-07-02T15:44:21Z</time>
      </trkpt>
      <trkpt lat="48.74983" lon="7.56789">
        <ele>155</ele>
        <time>2016-07-02T15:46:21Z</time>
      </trkpt>
      <trkpt lat="48.74985" lon="7.56784">
        <ele>154</ele>
        <time>2016-07-02T15:48:21Z</time>
      </trkpt>
      <trkpt lat="48.74985" lon="7.56784">
        <ele>154</ele>
        <time>2016-07-02T15:50:21Z</time>
      </trkpt>
      <trkpt lat="48.74882" lon="7.56816">
        <ele>159</ele>
        <time>2016-07-02T15:52:21Z</time>
      </trkpt>
      <trkpt lat="48.74875" lon="7.56819">
        <ele>159</ele>
        <time>2016-07-02T15:54:21Z</time>
      </trkpt>
      <trkpt lat="48.74865" lon="7.56822">
        <ele>159</ele>
        <time>2016-07-02T15:56:21Z</time>
      </trkpt>
      <trkpt lat="48.74858" lon="7.56824">
        <ele>159</ele>
        <time>2016-07-02T15:58:21Z</time>
      </trkpt>
      <trkpt lat="48.74849" lon="7.56827">
        <ele>159</ele>
        <time>2016-07-02T16:00:21Z</time>
      </trkpt>
      <trkpt lat="48.7482" lon="7.56836">
        <ele>159</ele>
        <time>2016-07-02T16:02:21Z</time>
      </trkpt>
      <trkpt lat="48.7482" lon="7.56836">
        <ele>159</ele>
        <time>2016-07-02T16:04:21Z</time>
      </trkpt>
      <trkpt lat="48.7482" lon="7.56845">
        <ele>159</ele>
        <time>2016-07-02T16:06:21Z</time>
      </trkpt>
      <trkpt lat="48.7482" lon="7.56849">
        <ele>159</ele>
        <time>2016-07-02T16:08:21Z</time>
      </trkpt>
      <trkpt lat="48.74821" lon="7.56854">
        <ele>159</ele>
        <time>2016-07-02T16:10:21Z</time>
      </trkpt>
      <trkpt lat="48.74821" lon="7.56856">
        <ele>159</ele>
        <time>2016-07-02T16:12:21Z</time>
      </trkpt>
      <trkpt lat="48.74821" lon="7.5686">
        <ele>159</ele>
        <time>2016-07-02T16:14:21Z</time>
      </trkpt>
      <trkpt lat="48.74823" lon="7.5687">
        <ele>159</ele>
        <time>2016-07-02T16:16:21Z</time>
      </trkpt>
      <trkpt lat="48.74829" lon="7.56904">
        <ele>159</ele>
        <time>2016-07-02T16:18:21Z</time>
      </trkpt>
      <trkpt lat="48.74846" lon="7.57002">
        <ele>161</ele>
        <time>2016-07-02T16:20:21Z</time>
      </trkpt>
      <trkpt lat="48.7485" lon="7.57024">
        <ele>160</ele>
        <time>2016-07-02T16:22:21Z</time>
      </trkpt>
      <trkpt lat="48.74864" lon="7.57101">
        <ele>158</ele>
        <time>2016-07-02T16:24:21Z</time>
      </trkpt>
      <trkpt lat="48.74867" lon="7.57117">
        <ele>158</ele>
        <time>2016-07-02T16:26:21Z</time>
      </trkpt>
      <trkpt lat="48.7487" lon="7.57133">
        <ele>158</ele>
        <time>2016-07-02T16:28:21Z</time>
      </trkpt>
      <trkpt lat="48.74873" lon="7.57147">
        <ele>157</ele>
        <time>2016-07-02T16:30:21Z</time>
      </trkpt>
      <trkpt lat="48.74876" lon="7.5716">
        <ele>157</ele>
        <time>2016-07-02T16:32:21Z</time>
      </trkpt>
      <trkpt lat="48.74879" lon="7.57169">
        <ele>157</ele>
        <time>2016-07-02T16:34:21Z</time>
      </trkpt>
      <trkpt lat="48.74882" lon="7.57176">
        <ele>157</ele>
        <time>2016-07-02T16:36:21Z</time>
      </trkpt>
      <trkpt lat="48.74885" lon="7.57185">
        <ele>157</ele>
        <time>2016-07-02T16:38:21Z</time>
      </trkpt>
      <trkpt lat="48.74885" lon="7.57185">
        <ele>157</ele>
        <time>2016-07-02T16:40:21Z</time>
      </trkpt>
      <trkpt lat="48.74887" lon="7.57184">
        <ele>157</ele>
        <time>2016-07-02T16:42:21Z</time>
      </trkpt>
      <trkpt lat="48.74888" lon="7.57184">
        <ele>157</ele>
        <time>2016-07-02T16:44:21Z</time>
      </trkpt>
      <trkpt lat="48.74889" lon="7.57184">
        <ele>157</ele>
        <time>2016-07-02T16:46:21Z</time>
      </trkpt>
      <trkpt lat="48.7489" lon="7.57184">
        <ele>157</ele>
        <time>2016-07-02T16:48:21Z</time>
      </trkpt>
      <trkpt lat="48.74891" lon="7.57185">
        <ele>157</ele>
        <time>2016-07-02T16:50:21Z</time>
      </trkpt>
      <trkpt lat="48.74893" lon="7.57187">
        <ele>157</ele>
        <time>2016-07-02T16:52:21Z</time>
      </trkpt>
      <trkpt lat="48.74895" lon="7.57191">
        <ele>157</ele>
        <time>2016-07-02T16:54:21Z</time>
      </trkpt>
      <trkpt lat="48.74898" lon="7.57201">
        <ele>157</ele>
        <time>2016-07-02T16:56:21Z</time>
      </trkpt>
      <trkpt lat="48.749" lon="7.57206">
        <ele>157</ele>
        <time>2016-07-02T16:58:21Z</time>
      </trkpt>
      <trkpt lat="48.74902" lon="7.57214">
        <ele>157</ele>
        <time>2016-07-02T17:00:21Z</time>
      </trkpt>
      <trkpt lat="48.74905" lon="7.57227">
        <ele>157</ele>
        <time>2016-07-02T17:02:21Z</time>
      </trkpt>
      <trkpt lat="48.74907" lon="7.5724">
        <ele>157</ele>
        <time>2016-07-02T17:04:21Z</time>
      </trkpt>
      <trkpt lat="48.7491" lon="7.57258">
        <ele>157</ele>
        <time>2016-07-02T17:06:21Z</time>
      </trkpt>
      <trkpt lat="48.74928" lon="7.57408">
        <ele>154</ele>
        <time>2016-07-02T17:08:21Z</time>
      </trkpt>
      <trkpt lat="48.74931" lon="7.57452">
        <ele>155</ele>
        <time>2016-07-02T17:10:21Z</time>
      </trkpt>
      <trkpt lat="48.74933" lon="7.57486">
        <ele>155</ele>
        <time>2016-07-02T17:12:21Z</time>
      </trkpt>
      <trkpt lat="48.74935" lon="7.57526">
        <ele>155</ele>
        <time>2016-07-02T17:14:21Z</time>
      </trkpt>
      <trkpt lat="48.74939" lon="7.57598">
        <ele>155</ele>
        <time>2016-07-02T17:16:21Z</time>
      </trkpt>
      <trkpt lat="48.74943" lon="7.57675">
        <ele>155</ele>
        <time>2016-07-02T17:18:21Z</time>
      </trkpt>
      <trkpt lat="48.74949" lon="7.57797">
        <ele>156</ele>
        <time>2016-07-02T17:20:21Z</time>
      </trkpt>
      <trkpt lat="48.74957" lon="7.57939">
        <ele>159</ele>
        <time>2016-07-02T17:22:21Z</time>
      </trkpt>
      <trkpt lat="48.74959" lon="7.57993">
        <ele>158</ele>
        <time>2016-07-02T17:24:21Z</time>
      </trkpt>
      <trkpt lat="48.74959" lon="7.5803">
        <ele>158</ele>
        <time>2016-07-02T17:26:21Z</time>
      </trkpt>
      <trkpt lat="48.74957" lon="7.58082">
        <ele>158</ele>
        <time>2016-07-02T17:28:21Z</time>
      </trkpt>
      <trkpt lat="48.74952" lon="7.58151">
        <ele>157</ele>
        <time>2016-07-02T17:30:21Z</time>
      </trkpt>
      <trkpt lat="48.74946" lon="7.58215">
        <ele>157</ele>
        <time>2016-07-02T17:32:21Z</time>
      </trkpt>
      <trkpt lat="48.74935" lon="7.58314">
        <ele>157</ele>
        <time>2016-07-02T17:34:21Z</time>
      </trkpt>
      <trkpt lat="48.74931" lon="7.5835">
        <ele>156</ele>
        <time>2016-07-02T17:36:21Z</time>
      </trkpt>
      <trkpt lat="48.74922" lon="7.58429">
        <ele>157</ele>
        <time>2016-07-02T17:38:21Z</time>
      </trkpt>
      <trkpt lat="48.74911" lon="7.58542">
        <ele>156</ele>
        <time>2016-07-02T17:40:21Z</time>
      </trkpt>
      <trkpt lat="48.74909" lon="7.58554">
        <ele>156</ele>
        <time>2016-07-02T17:42:21Z</time>
      </trkpt>
      <trkpt lat="48.74899" lon="7.58642">
        <ele>157</ele>
        <time>2016-07-02T17:44:21Z</time>
      </trkpt>
      <trkpt lat="48.74892" lon="7.58718">
        <ele>156</ele>
        <time>2016-07-02T17:46:21Z</time>
      </trkpt>
      <trkpt lat="48.74888" lon="7.58763">
        <ele>156</ele>
        <time>2016-07-02T17:48:21Z</time>
      </trkpt>
      <trkpt lat="48.74886" lon="7.58796">
        <ele>157</ele>
        <time>2016-07-02T17:50:21Z</time>
      </trkpt>
      <trkpt lat="48.74885" lon="7.58811">
        <ele>157</ele>
        <time>2016-07-02T17:52:21Z</time>
      </trkpt>
      <trkpt lat="48.74887" lon="7.58848">
        <ele>157</ele>
        <time>2016-07-02T17:54:21Z</time>
      </trkpt>
      <trkpt lat="48.74888" lon="7.58906">
        <ele>159</ele>
        <time>2016-07-02T17:56:21Z</time>
      </trkpt>
      <trkpt lat="48.74889" lon="7.58911">
        <ele>159</ele>
        <time>2016-07-02T17:58:21Z</time>
      </trkpt>
      <trkpt lat="48.74891" lon="7.58971">
        <ele>158</ele>
        <time>2016-07-02T18:00:21Z</time>
      </trkpt>
      <trkpt lat="48.74892" lon="7.59048">
        <ele>157</ele>
        <time>2016-07-02T18:02:21Z</time>
      </trkpt>
      <trkpt lat="48.74896" lon="7.59192">
        <ele>158</ele>
        <time>2016-07-02T18:04:21Z</time>
      </trkpt>
      <trkpt lat="48.74896" lon="7.5927">
        <ele>157</ele>
        <time>2016-07-02T18:06:21Z</time>
      </trkpt>
      <trkpt lat="48.74885" lon="7.59346">
        <ele>157</ele>
        <time>2016-07-02T18:08:21Z</time>
      </trkpt>
      <trkpt lat="48.74869" lon="7.59406">
        <ele>158</ele>
        <time>2016-07-02T18:10:21Z</time>
      </trkpt>
      <trkpt lat="48.74869" lon="7.59406">
        <ele>158</ele>
        <time>2016-07-02T18:12:21Z</time>
      </trkpt>
      <trkpt lat="48.74853" lon="7.59399">
        <ele>158</ele>
        <time>2016-07-02T18:14:21Z</time>
      </trkpt>
      <trkpt lat="48.74853" lon="7.59399">
        <ele>158</ele>
        <time>2016-07-02T18:16:21Z</time>
      </trkpt>
      <trkpt lat="48.74848" lon="7.59423">
        <ele>158</ele>
        <time>2016-07-02T18:18:21Z</time>
      </trkpt>
      <trkpt lat="48.74796" lon="7.59652">
        <ele>153</ele>
        <time>2016-07-02T18:20:21Z</time>
      </trkpt>
      <trkpt lat="48.74792" lon="7.59673">
        <ele>153</ele>
        <time>2016-07-02T18:22:21Z</time>
      </trkpt>
      <trkpt lat="48.74792" lon="7.59679">
        <ele>153</ele>
        <time>2016-07-02T18:24:21Z</time>
      </trkpt>
      <trkpt lat="48.74794" lon="7.59685">
        <ele>153</ele>
        <time>2016-07-02T18:26:21Z</time>
      </trkpt>
      <trkpt lat="48.74796" lon="7.59691">
        <ele>153</ele>
        <time>2016-07-02T18:28:21Z</time>
      </trkpt>
      <trkpt lat="48.74798" lon="7.59694">
        <ele>153</ele>
        <time>2016-07-02T18:30:21Z</time>
      </trkpt>
      <trkpt lat="48.74801" lon="7.59701">
        <ele>153</ele>
        <time>2016-07-02T18:32:21Z</time>
      </trkpt>
      <trkpt lat="48.74803" lon="7.59706">
        <ele>153</ele>
        <time>2016-07-02T18:34:21Z</time>
      </trkpt>
      <trkpt lat="48.74803" lon="7.59708">
        <ele>153</ele>
        <time>2016-07-02T18:36:21Z</time>
      </trkpt>
      <trkpt lat="48.74803" lon="7.59712">
        <ele>153</ele>
        <time>2016-07-02T18:38:21Z</time>
      </trkpt>
      <trkpt lat="48.74784" lon="7.59799">
        <ele>153</ele>
        <time>2016-07-02T18:40:21Z</time>
      </trkpt>
      <trkpt lat="48.74783" lon="7.59802">
        <ele>153</ele>
        <time>2016-07-02T18:42:21Z</time>
      </trkpt>
      <trkpt lat="48.74768" lon="7.59866">
        <ele>153</ele>
        <time>2016-07-02T18:44:21Z</time>
      </trkpt>
      <trkpt lat="48.74755" lon="7.59924">
        <ele>153</ele>
        <time>2016-07-02T18:46:21Z</time>
      </trkpt>
      <trkpt lat="48.74743" lon="7.59981">
        <ele>152</ele>
        <time>2016-07-02T18:48:21Z</time>
      </trkpt>
      <trkpt lat="48.74737" lon="7.60013">
        <ele>153</ele>
        <time>2016-07-02T18:50:21Z</time>
      </trkpt>
      <trkpt lat="48.74734" lon="7.60048">
        <ele>153</ele>
        <time>2016-07-02T18:52:21Z</time>
      </trkpt>
      <trkpt lat="48.7473" lon="7.60097">
        <ele>154</ele>
        <time>2016-07-02T18:54:21Z</time>
      </trkpt>
      <trkpt lat="48.7473" lon="7.60103">
        <ele>154</ele>
        <time>2016-07-02T18:56:21Z</time>
      </trkpt>
      <trkpt lat="48.7473" lon="7.60141">
        <ele>153</ele>
        <time>2016-07-02T18:58:21Z</time>
      </trkpt>
      <trkpt lat="48.74731" lon="7.60152">
        <ele>153</ele>
        <time>2016-07-02T19:00:21Z</time>
      </trkpt>
      <trkpt lat="48.74732" lon="7.60194">
        <ele>154</ele>
        <time>2016-07-02T19:02:21Z</time>
      </trkpt>
      <trkpt lat="48.74733" lon="7.60211">
        <ele>155</ele>
        <time>2016-07-02T19:04:21Z</time>
      </trkpt>
      <trkpt lat="48.74735" lon="7.60229">
        <ele>155</ele>
        <time>2016-07-02T19:06:21Z</time>
      </trkpt>
      <trkpt lat="48.74741" lon="7.60261">
        <ele>156</ele>
        <time>2016-07-02T19:08:21Z</time>
      </trkpt>
      <trkpt lat="48.74747" lon="7.60295">
        <ele>158</ele>
        <time>2016-07-02T19:10:21Z</time>
      </trkpt>
      <trkpt lat="48.74749" lon="7.60315">
        <ele>159</ele>
        <time>2016-07-02T19:12:21Z</time>
      </trkpt>
      <trkpt lat="48.7475" lon="7.6032">
        <ele>159</ele>
        <time>2016-07-02T19:14:21Z</time>
      </trkpt>
      <trkpt lat="48.7475" lon="7.60325">
        <ele>159</ele>
        <time>2016-07-02T19:16:21Z</time>
      </trkpt>
      <trkpt lat="48.74749" lon="7.6033">
        <ele>160</ele>
        <time>2016-07-02T19:18:21Z</time>
      </trkpt>
      <trkpt lat="48.74747" lon="7.60339">
        <ele>160</ele>
        <time>2016-07-02T19:20:21Z</time>
      </trkpt>
      <trkpt lat="48.74747" lon="7.60349">
        <ele>161</ele>
        <time>2016-07-02T19:22:21Z</time>
      </trkpt>
      <trkpt lat="48.74748" lon="7.60361">
        <ele>161</ele>
        <time>2016-07-02T19:24:21Z</time>
      </trkpt>
      <trkpt lat="48.74748" lon="7.60361">
        <ele>161</ele>
        <time>2016-07-02T19:26:21Z</time>
      </trkpt>
      <trkpt lat="48.74755" lon="7.6037">
        <ele>160</ele>
        <time>2016-07-02T19:28:21Z</time>
      </trkpt>
      <trkpt lat="48.74758" lon="7.60374">
        <ele>160</ele>
        <time>2016-07-02T19:30:21Z</time>
      </trkpt>
      <trkpt lat="48.74761" lon="7.60379">
        <ele>160</ele>
        <time>2016-07-02T19:32:21Z</time>
      </trkpt>
      <trkpt lat="48.74772" lon="7.60404">
        <ele>160</ele>
        <time>2016-07-02T19:34:21Z</time>
      </trkpt>
      <trkpt lat="48.74776" lon="7.60414">
        <ele>159</ele>
        <time>2016-07-02T19:36:21Z</time>
      </trkpt>
      <trkpt lat="48.74781" lon="7.60423">
        <ele>159</ele>
        <time>2016-07-02T19:38:21Z</time>
      </trkpt>
      <trkpt lat="48.74806" lon="7.60469">
        <ele>157</ele>
        <time>2016-07-02T19:40:21Z</time>
      </trkpt>
      <trkpt lat="48.74815" lon="7.60488">
        <ele>156</ele>
        <time>2016-07-02T19:42:21Z</time>
      </trkpt>
      <trkpt lat="48.74821" lon="7.60502">
        <ele>156</ele>
        <time>2016-07-02T19:44:21Z</time>
      </trkpt>
      <trkpt lat="48.74825" lon="7.60513">
        <ele>155</ele>
        <time>2016-07-02T19:46:21Z</time>
      </trkpt>
      <trkpt lat="48.74835" lon="7.60542">
        <ele>155</ele>
        <time>2016-07-02T19:48:21Z</time>
      </trkpt>
      <trkpt lat="48.74843" lon="7.60567">
        <ele>155</ele>
        <time>2016-07-02T19:50:21Z</time>
      </trkpt>
      <trkpt lat="48.74848" lon="7.60588">
        <ele>155</ele>
        <time>2016-07-02T19:52:21Z</time>
      </trkpt>
      <trkpt lat="48.74852" lon="7.60612">
        <ele>156</ele>
        <time>2016-07-02T19:54:21Z</time>
      </trkpt>
      <trkpt lat="48.74856" lon="7.60723">
        <ele>159</ele>
        <time>2016-07-02T19:56:21Z</time>
      </trkpt>
      <trkpt lat="48.74858" lon="7.60766">
        <ele>159</ele>
        <time>2016-07-02T19:58:21Z</time>
      </trkpt>
      <trkpt lat="48.74861" lon="7.60808">
        <ele>160</ele>
        <time>2016-07-02T20:00:21Z</time>
      </trkpt>
      <trkpt lat="48.74866" lon="7.60973">
        <ele>158</ele>
        <time>2016-07-02T20:02:21Z</time>
      </trkpt>
      <trkpt lat="48.74873" lon="7.6116">
        <ele>155</ele>
        <time>2016-07-02T20:04:21Z</time>
      </trkpt>
      <trkpt lat="48.74876" lon="7.61263">
        <ele>156</ele>
        <time>2016-07-02T20:06:21Z</time>
      </trkpt>
      <trkpt lat="48.74879" lon="7.61333">
        <ele>156</ele>
        <time>2016-07-02T20:08:21Z</time>
      </trkpt>
      <trkpt lat="48.74882" lon="7.61437">
        <ele>155</ele>
        <time>2016-07-02T20:10:21Z</time>
      </trkpt>
      <trkpt lat="48.74883" lon="7.61457">
        <ele>156</ele>
        <time>2016-07-02T20:12:21Z</time>
      </trkpt>
      <trkpt lat="48.74883" lon="7.61475">
        <ele>157</ele>
        <time>2016-07-02T20:14:21Z</time>
      </trkpt>
      <trkpt lat="48.74883" lon="7.61502">
        <ele>158</ele>
        <time>2016-07-02T20:16:21Z</time>
      </trkpt>
      <trkpt lat="48.74885" lon="7.6155">
        <ele>160</ele>
        <time>2016-07-02T20:18:21Z</time>
      </trkpt>
      <trkpt lat="48.7489" lon="7.61604">
        <ele>161</ele>
        <time>2016-07-02T20:20:21Z</time>
      </trkpt>
      <trkpt lat="48.74897" lon="7.61648">
        <ele>161</ele>
        <time>2016-07-02T20:22:21Z</time>
      </trkpt>
      <trkpt lat="48.74905" lon="7.61688">
        <ele>161</ele>
        <time>2016-07-02T20:24:21Z</time>
      </trkpt>
      <trkpt lat="48.74924" lon="7.6175">
        <ele>160</ele>
        <time>2016-07-02T20:26:21Z</time>
      </trkpt>
      <trkpt lat="48.74943" lon="7.61811">
        <ele>163</ele>
        <time>2016-07-02T20:28:21Z</time>
      </trkpt>
      <trkpt lat="48.74943" lon="7.61812">
        <ele>163</ele>
        <time>2016-07-02T20:30:21Z</time>
      </trkpt>
      <trkpt lat="48.7496" lon="7.61862">
        <ele>162</ele>
        <time>2016-07-02T20:32:21Z</time>
      </trkpt>
      <trkpt lat="48.74971" lon="7.61905">
        <ele>160</ele>
        <time>2016-07-02T20:34:21Z</time>
      </trkpt>
      <trkpt lat="48.74976" lon="7.6193">
        <ele>160</ele>
        <time>2016-07-02T20:36:21Z</time>
      </trkpt>
      <trkpt lat="48.74981" lon="7.61956">
        <ele>159</ele>
        <time>2016-07-02T20:38:21Z</time>
      </trkpt>
      <trkpt lat="48.74983" lon="7.6197">
        <ele>159</ele>
        <time>2016-07-02T20:40:21Z</time>
      </trkpt>
      <trkpt lat="48.74986" lon="7.61994">
        <ele>159</ele>
        <time>2016-07-02T20:42:21Z</time>
      </trkpt>
      <trkpt lat="48.74988" lon="7.62025">
        <ele>159</ele>
        <time>2016-07-02T20:44:21Z</time>
      </trkpt>
      <trkpt lat="48.74988" lon="7.62058">
        <ele>160</ele>
        <time>2016-07-02T20:46:21Z</time>
      </trkpt>
      <trkpt lat="48.74986" lon="7.62084">
        <ele>160</ele>
        <time>2016-07-02T20:48:21Z</time>
      </trkpt>
      <trkpt lat="48.74983" lon="7.62117">
        <ele>160</ele>
        <time>2016-07-02T20:50:21Z</time>
      </trkpt>
      <trkpt lat="48.74977" lon="7.62153">
        <ele>160</ele>
        <time>2016-07-02T20:52:21Z</time>
      </trkpt>
      <trkpt lat="48.74972" lon="7.62177">
        <ele>160</ele>
        <time>2016-07-02T20:54:21Z</time>
      </trkpt>
      <trkpt lat="48.74971" lon="7.62185">
        <ele>160</ele>
        <time>2016-07-02T20:56:21Z</time>
      </trkpt>
      <trkpt lat="48.74971" lon="7.6219">
        <ele>160</ele>
        <time>2016-07-02T20:58:21Z</time>
      </trkpt>
      <trkpt lat="48.74967" lon="7.62219">
        <ele>161</ele>
        <time>2016-07-02T21:00:21Z</time>
      </trkpt>
      <trkpt lat="48.74964" lon="7.62249">
        <ele>161</ele>
        <time>2016-07-02T21:02:21Z</time>
      </trkpt>
      <trkpt lat="48.74961" lon="7.62285">
        <ele>161</ele>
        <time>2016-07-02T21:04:21Z</time>
      </trkpt>
      <trkpt lat="48.7496" lon="7.62316">
        <ele>161</ele>
        <time>2016-07-02T21:06:21Z</time>
      </trkpt>
      <trkpt lat="48.7496" lon="7.62351">
        <ele>160</ele>
        <time>2016-07-02T21:08:21Z</time>
      </trkpt>
      <trkpt lat="48.74962" lon="7.62393">
        <ele>159</ele>
        <time>2016-07-02T21:10:21Z</time>
      </trkpt>
      <trkpt lat="48.74964" lon="7.62427">
        <ele>158</ele>
        <time>2016-07-02T21:12:21Z</time>
      </trkpt>
      <trkpt lat="48.74968" lon="7.6247">
        <ele>156</ele>
        <time>2016-07-02T21:14:21Z</time>
      </trkpt>
      <trkpt lat="48.74971" lon="7.62515">
        <ele>156</ele>
        <time>2016-07-02T21:16:21Z</time>
      </trkpt>
      <trkpt lat="48.74976" lon="7.62555">
        <ele>155</ele>
        <time>2016-07-02T21:18:21Z</time>
      </trkpt>
      <trkpt lat="48.74981" lon="7.62603">
        <ele>155</ele>
        <time>2016-07-02T21:20:21Z</time>
      </trkpt>
      <trkpt lat="48.74986" lon="7.62651">
        <ele>157</ele>
        <time>2016-07-02T21:22:21Z</time>
      </trkpt>
      <trkpt lat="48.7499" lon="7.62697">
        <ele>156</ele>
        <time>2016-07-02T21:24:21Z</time>
      </trkpt>
      <trkpt lat="48.74994" lon="7.62735">
        <ele>155</ele>
        <time>2016-07-02T21:26:21Z</time>
      </trkpt>
      <trkpt lat="48.74996" lon="7.62776">
        <ele>154</ele>
        <time>2016-07-02T21:28:21Z</time>
      </trkpt>
      <trkpt lat="48.74997" lon="7.62794">
        <ele>154</ele>
        <time>2016-07-02T21:30:21Z</time>
      </trkpt>
      <trkpt lat="48.74997" lon="7.62809">
        <ele>154</ele>
        <time>2016-07-02T21:32:21Z</time>
      </trkpt>
      <trkpt lat="48.74996" lon="7.62841">
        <ele>154</ele>
        <time>2016-07-02T21:34:21Z</time>
      </trkpt>
      <trkpt lat="48.74996" lon="7.62869">
        <ele>154</ele>
        <time>2016-07-02T21:36:21Z</time>
      </trkpt>
      <trkpt lat="48.74993" lon="7.62901">
        <ele>155</ele>
        <time>2016-07-02T21:38:21Z</time>
      </trkpt>
      <trkpt lat="48.74991" lon="7.62918">
        <ele>156</ele>
        <time>2016-07-02T21:40:21Z</time>
      </trkpt>
      <trkpt lat="48.74991" lon="7.62918">
        <ele>156</ele>
        <time>2016-07-02T21:42:21Z</time>
      </trkpt>
      <trkpt lat="48.74997" lon="7.62919">
        <ele>155</ele>
        <time>2016-07-02T21:44:21Z</time>
      </trkpt>
      <trkpt lat="48.75" lon="7.6292">
        <ele>155</ele>
        <time>2016-07-02T21:46:21Z</time>
      </trkpt>
      <trkpt lat="48.75009" lon="7.62922">
        <ele>154</ele>
        <time>2016-07-02T21:48:21Z</time>
      </trkpt>
      <trkpt lat="48.75013" lon="7.62923">
        <ele>154</ele>
        <time>2016-07-02T21:50:21Z</time>
      </trkpt>
      <trkpt lat="48.75019" lon="7.62924">
        <ele>153</ele>
        <time>2016-07-02T21:52:21Z</time>
      </trkpt>
      <trkpt lat="48.75022" lon="7.62924">
        <ele>153</ele>
        <time>2016-07-02T21:54:21Z</time>
      </trkpt>
      <trkpt lat="48.75022" lon="7.62924">
        <ele>153</ele>
        <time>2016-07-02T21:56:21Z</time>
      </trkpt>
      <trkpt lat="48.75023" lon="7.62918">
        <ele>153</ele>
        <time>2016-07-02T21:58:21Z</time>
      </trkpt>
      <trkpt lat="48.75023" lon="7.62916">
        <ele>153</ele>
        <time>2016-07-02T22:00:21Z</time>
      </trkpt>
      <trkpt lat="48.75022" lon="7.62915">
        <ele>153</ele>
        <time>2016-07-02T22:02:21Z</time>
      </trkpt>
      <trkpt lat="48.75022" lon="7.62911">
        <ele>153</ele>
        <time>2016-07-02T22:04:21Z</time>
      </trkpt>
      <trkpt lat="48.7502" lon="7.62905">
        <ele>153</ele>
        <time>2016-07-02T22:06:21Z</time>
      </trkpt>
      <trkpt lat="48.7502" lon="7.62905">
        <ele>153</ele>
        <time>2016-07-02T22:08:21Z</time>
      </trkpt>
      <trkpt lat="48.75016" lon="7.62915">
        <ele>154</ele>
        <time>2016-07-02T22:10:21Z</time>
      </trkpt>
      <trkpt lat="48.75014" lon="7.62918">
        <ele>154</ele>
        <time>2016-07-02T22:12:21Z</time>
      </trkpt>
      <trkpt lat="48.75013" lon="7.62921">
        <ele>154</ele>
        <time>2016-07-02T22:14:21Z</time>
      </trkpt>
      <trkpt lat="48.75013" lon="7.62923">
        <ele>154</ele>
        <time>2016-07-02T22:16:21Z</time>
      </trkpt>
      <trkpt lat="48.75013" lon="7.62926">
        <ele>154</ele>
        <time>2016-07-02T22:18:21Z</time>
      </trkpt>
      <trkpt lat="48.75013" lon="7.6293">
        <ele>154</ele>
        <time>2016-07-02T22:20:21Z</time>
      </trkpt>
      <trkpt lat="48.75013" lon="7.62934">
        <ele>154</ele>
        <time>2016-07-02T22:22:21Z</time>
      </trkpt>
      <trkpt lat="48.75014" lon="7.62938">
        <ele>154</ele>
        <time>2016-07-02T22:24:21Z</time>
      </trkpt>
      <trkpt lat="48.75015" lon="7.62941">
        <ele>154</ele>
        <time>2016-07-02T22:26:21Z</time>
      </trkpt>
      <trkpt lat="48.75015" lon="7.62943">
        <ele>154</ele>
        <time>2016-07-02T22:28:21Z</time>
      </trkpt>
      <trkpt lat="48.75015" lon="7.62948">
        <ele>154</ele>
        <time>2016-07-02T22:30:21Z</time>
      </trkpt>
      <trkpt lat="48.75015" lon="7.62958">
        <ele>154</ele>
        <time>2016-07-02T22:32:21Z</time>
      </trkpt>
      <trkpt lat="48.75014" lon="7.62965">
        <ele>154</ele>
        <time>2016-07-02T22:34:21Z</time>
      </trkpt>
      <trkpt lat="48.75009" lon="7.62994">
        <ele>155</ele>
        <time>2016-07-02T22:36:21Z</time>
      </trkpt>
      <trkpt lat="48.74993" lon="7.63075">
        <ele>150</ele>
        <time>2016-07-02T22:38:21Z</time>
      </trkpt>
      <trkpt lat="48.74986" lon="7.63109">
        <ele>151</ele>
        <time>2016-07-02T22:40:21Z</time>
      </trkpt>
      <trkpt lat="48.74981" lon="7.6313">
        <ele>151</ele>
        <time>2016-07-02T22:42:21Z</time>
      </trkpt>
      <trkpt lat="48.74971" lon="7.63161">
        <ele>152</ele>
        <time>2016-07-02T22:44:21Z</time>
      </trkpt>
      <trkpt lat="48.74962" lon="7.63187">
        <ele>152</ele>
        <time>2016-07-02T22:46:21Z</time>
      </trkpt>
      <trkpt lat="48.74948" lon="7.6322">
        <ele>152</ele>
        <time>2016-07-02T22:48:21Z</time>
      </trkpt>
      <trkpt lat="48.74945" lon="7.63226">
        <ele>152</ele>
        <time>2016-07-02T22:50:21Z</time>
      </trkpt>
      <trkpt lat="48.74942" lon="7.63232">
        <ele>152</ele>
        <time>2016-07-02T22:52:21Z</time>
      </trkpt>
      <trkpt lat="48.74939" lon="7.63236">
        <ele>151</ele>
        <time>2016-07-02T22:54:21Z</time>
      </trkpt>
      <trkpt lat="48.74933" lon="7.63245">
        <ele>151</ele>
        <time>2016-07-02T22:56:21Z</time>
      </trkpt>
      <trkpt lat="48.74924" lon="7.63262">
        <ele>151</ele>
        <time>2016-07-02T22:58:21Z</time>
      </trkpt>
      <trkpt lat="48.74923" lon="7.63266">
        <ele>151</ele>
        <time>2016-07-02T23:00:21Z</time>
      </trkpt>
      <trkpt lat="48.74921" lon="7.6327">
        <ele>151</ele>
        <time>2016-07-02T23:02:21Z</time>
      </trkpt>
      <trkpt lat="48.7492" lon="7.63274">
        <ele>151</ele>
        <time>2016-07-02T23:04:21Z</time>
      </trkpt>
      <trkpt lat="48.74919" lon="7.63279">
        <ele>151</ele>
        <time>2016-07-02T23:06:21Z</time>
      </trkpt>
      <trkpt lat="48.74918" lon="7.63286">
        <ele>151</ele>
        <time>2016-07-02T23:08:21Z</time>
      </trkpt>
      <trkpt lat="48.74918" lon="7.63298">
        <ele>151</ele>
        <time>2016-07-02T23:10:21Z</time>
      </trkpt>
      <trkpt lat="48.74918" lon="7.63298">
        <ele>151</ele>
        <time>2016-07-02T23:12:21Z</time>
      </trkpt>
      <trkpt lat="48.74907" lon="7.63288">
        <ele>151</ele>
        <time>2016-07-02T23:14:21Z</time>
      </trkpt>
      <trkpt lat="48.74898" lon="7.63279">
        <ele>152</ele>
        <time>2016-07-02T23:16:21Z</time>
      </trkpt>
      <trkpt lat="48.74891" lon="7.63273">
        <ele>152</ele>
        <time>2016-07-02T23:18:21Z</time>
      </trkpt>
      <trkpt lat="48.74891" lon="7.63273">
        <ele>152</ele>
        <time>2016-07-02T23:20:21Z</time>
      </trkpt>
      <trkpt lat="48.74888" lon="7.6328">
        <ele>152</ele>
        <time>2016-07-02T23:22:21Z</time>
      </trkpt>
      <trkpt lat="48.74884" lon="7.6329">
        <ele>152</ele>
        <time>2016-07-02T23:24:21Z</time>
      </trkpt>
      <trkpt lat="48.74868" lon="7.63329">
        <ele>152</ele>
        <time>2016-07-02T23:26:21Z</time>
      </trkpt>
      <trkpt lat="48.7485" lon="7.63363">
        <ele>151</ele>
        <time>2016-07-02T23:28:21Z</time>
      </trkpt>
      <trkpt lat="48.74834" lon="7.63388">
        <ele>150</ele>
        <time>2016-07-02T23:30:21Z</time>
      </trkpt>
      <trkpt lat="48.74814" lon="7.63416">
        <ele>149</ele>
        <time>2016-07-02T23:32:21Z</time>
      </trkpt>
      <trkpt lat="48.74799" lon="7.63435">
        <ele>150</ele>
        <time>2016-07-02T23:34:21Z</time>
      </trkpt>
      <trkpt lat="48.74786" lon="7.63445">
        <ele>150</ele>
        <time>2016-07-02T23:36:21Z</time>
      </trkpt>
      <trkpt lat="48.74786" lon="7.63446">
        <ele>150</ele>
        <time>2016-07-02T23:38:21Z</time>
      </trkpt>
      <trkpt lat="48.74783" lon="7.6345">
        <ele>150</ele>
        <time>2016-07-02T23:40:21Z</time>
      </trkpt>
      <trkpt lat="48.74767" lon="7.63471">
        <ele>151</ele>
        <time>2016-07-02T23:42:21Z</time>
      </trkpt>
      <trkpt lat="48.74761" lon="7.63478">
        <ele>151</ele>
        <time>2016-07-02T23:44:21Z</time>
      </trkpt>
      <trkpt lat="48.74725" lon="7.63521">
        <ele>151</ele>
        <time>2016-07-02T23:46:21Z</time>
      </trkpt>
      <trkpt lat="48.74678" lon="7.63579">
        <ele>150</ele>
        <time>2016-07-02T23:48:21Z</time>
      </trkpt>
      <trkpt lat="48.74632" lon="7.6364">
        <ele>150</ele>
        <time>2016-07-02T23:50:21Z</time>
      </trkpt>
      <trkpt lat="48.74593" lon="7.6369">
        <ele>150</ele>
        <time>2016-07-02T23:52:21Z</time>
      </trkpt>
      <trkpt lat="48.74543" lon="7.63757">
        <ele>149</ele>
        <time>2016-07-02T23:54:21Z</time>
      </trkpt>
      <trkpt lat="48.74493" lon="7.63823">
        <ele>148</ele>
        <time>2016-07-02T23:56:21Z</time>
      </trkpt>
      <trkpt lat="48.74443" lon="7.63889">
        <ele>149</ele>
        <time>2016-07-02T23:58:21Z</time>
      </trkpt>
      <trkpt lat="48.74425" lon="7.63916">
        <ele>150</ele>
        <time>2016-07-03T00:00:21Z</time>
      </trkpt>
      <trkpt lat="48.74416" lon="7.63932">
        <ele>150</ele>
        <time>2016-07-03T00:02:21Z</time>
      </trkpt>
      <trkpt lat="48.74394" lon="7.6397">
        <ele>149</ele>
        <time>2016-07-03T00:04:21Z</time>
      </trkpt>
      <trkpt lat="48.74359" lon="7.64033">
        <ele>148</ele>
        <time>2016-07-03T00:06:21Z</time>
      </trkpt>
      <trkpt lat="48.74354" lon="7.64044">
        <ele>148</ele>
        <time>2016-07-03T00:08:21Z</time>
      </trkpt>
      <trkpt lat="48.74331" lon="7.64088">
        <ele>147</ele>
        <time>2016-07-03T00:10:21Z</time>
      </trkpt>
      <trkpt lat="48.74305" lon="7.64134">
        <ele>147</ele>
        <time>2016-07-03T00:12:21Z</time>
      </trkpt>
      <trkpt lat="48.74263" lon="7.64214">
        <ele>148</ele>
        <time>2016-07-03T00:14:21Z</time>
      </trkpt>
      <trkpt lat="48.74229" lon="7.64279">
        <ele>148</ele>
        <time>2016-07-03T00:16:21Z</time>
      </trkpt>
      <trkpt lat="48.74197" lon="7.64338">
        <ele>147</ele>
        <time>2016-07-03T00:18:21Z</time>
      </trkpt>
      <trkpt lat="48.7419" lon="7.6435">
        <ele>146</ele>
        <time>2016-07-03T00:20:21Z</time>
      </trkpt>
      <trkpt lat="48.74177" lon="7.64373">
        <ele>146</ele>
        <time>2016-07-03T00:22:21Z</time>
      </trkpt>
      <trkpt lat="48.74173" lon="7.64381">
        <ele>146</ele>
        <time>2016-07-03T00:24:21Z</time>
      </trkpt>
      <trkpt lat="48.74167" lon="7.64392">
        <ele>145</ele>
        <time>2016-07-03T00:26:21Z</time>
      </trkpt>
      <trkpt lat="48.7414" lon="7.64444">
        <ele>146</ele>
        <time>2016-07-03T00:28:21Z</time>
      </trkpt>
      <trkpt lat="48.74104" lon="7.6451">
        <ele>147</ele>
        <time>2016-07-03T00:30:21Z</time>
      </trkpt>
      <trkpt lat="48.74079" lon="7.64558">
        <ele>149</ele>
        <time>2016-07-03T00:32:21Z</time>
      </trkpt>
      <trkpt lat="48.7407" lon="7.64575">
        <ele>149</ele>
        <time>2016-07-03T00:34:21Z</time>
      </trkpt>
      <trkpt lat="48.74026" lon="7.64659">
        <ele>149</ele>
        <time>2016-07-03T00:36:21Z</time>
      </trkpt>
      <trkpt lat="48.73982" lon="7.64742">
        <ele>148</ele>
        <time>2016-07-03T00:38:21Z</time>
      </trkpt>
      <trkpt lat="48.73944" lon="7.64813">
        <ele>148</ele>
        <time>2016-07-03T00:40:21Z</time>
      </trkpt>
      <trkpt lat="48.7391" lon="7.64874">
        <ele>147</ele>
        <time>2016-07-03T00:42:21Z</time>
      </trkpt>
      <trkpt lat="48.73877" lon="7.64937">
        <ele>147</ele>
        <time>2016-07-03T00:44:21Z</time>
      </trkpt>
      <trkpt lat="48.73857" lon="7.64976">
        <ele>148</ele>
        <time>2016-07-03T00:46:21Z</time>
      </trkpt>
      <trkpt lat="48.73845" lon="7.65">
        <ele>149</ele>
        <time>2016-07-03T00:48:21Z</time>
      </trkpt>
      <trkpt lat="48.73812" lon="7.65061">
        <ele>148</ele>
        <time>2016-07-03T00:50:21Z</time>
      </trkpt>
      <trkpt lat="48.7378" lon="7.65122">
        <ele>149</ele>
        <time>2016-07-03T00:52:21Z</time>
      </trkpt>
      <trkpt lat="48.73757" lon="7.65169">
        <ele>149</ele>
        <time>2016-07-03T00:54:21Z</time>
      </trkpt>
      <trkpt lat="48.73742" lon="7.65191">
        <ele>149</ele>
        <time>2016-07-03T00:56:21Z</time>
      </trkpt>
      <trkpt lat="48.73729" lon="7.65211">
        <ele>148</ele>
        <time>2016-07-03T00:58:21Z</time>
      </trkpt>
      <trkpt lat="48.73713" lon="7.65236">
        <ele>148</ele>
        <time>2016-07-03T01:00:21Z</time>
      </trkpt>
      <trkpt lat="48.73707" lon="7.65245">
        <ele>148</ele>
        <time>2016-07-03T01:02:21Z</time>
      </trkpt>
      <trkpt lat="48.73702" lon="7.65257">
        <ele>148</ele>
        <time>2016-07-03T01:04:21Z</time>
      </trkpt>
      <trkpt lat="48.73677" lon="7.65311">
        <ele>148</ele>
        <time>2016-07-03T01:06:21Z</time>
      </trkpt>
      <trkpt lat="48.73648" lon="7.6537">
        <ele>148</ele>
        <time>2016-07-03T01:08:21Z</time>
      </trkpt>
      <trkpt lat="48.73615" lon="7.65433">
        <ele>147</ele>
        <time>2016-07-03T01:10:21Z</time>
      </trkpt>
      <trkpt lat="48.7351" lon="7.65632">
        <ele>145</ele>
        <time>2016-07-03T01:12:21Z</time>
      </trkpt>
      <trkpt lat="48.73489" lon="7.65671">
        <ele>145</ele>
        <time>2016-07-03T01:14:21Z</time>
      </trkpt>
      <trkpt lat="48.7346" lon="7.65727">
        <ele>145</ele>
        <time>2016-07-03T01:16:21Z</time>
      </trkpt>
      <trkpt lat="48.73423" lon="7.65794">
        <ele>145</ele>
        <time>2016-07-03T01:18:21Z</time>
      </trkpt>
      <trkpt lat="48.73377" lon="7.65881">
        <ele>148</ele>
        <time>2016-07-03T01:20:21Z</time>
      </trkpt>
      <trkpt lat="48.73351" lon="7.6593">
        <ele>148</ele>
        <time>2016-07-03T01:22:21Z</time>
      </trkpt>
      <trkpt lat="48.73334" lon="7.65963">
        <ele>147</ele>
        <time>2016-07-03T01:24:21Z</time>
      </trkpt>
      <trkpt lat="48.73292" lon="7.66041">
        <ele>146</ele>
        <time>2016-07-03T01:26:21Z</time>
      </trkpt>
      <trkpt lat="48.73283" lon="7.66058">
        <ele>147</ele>
        <time>2016-07-03T01:28:21Z</time>
      </trkpt>
      <trkpt lat="48.73268" lon="7.66088">
        <ele>147</ele>
        <time>2016-07-03T01:30:21Z</time>
      </trkpt>
      <trkpt lat="48.73249" lon="7.66124">
        <ele>145</ele>
        <time>2016-07-03T01:32:21Z</time>
      </trkpt>
      <trkpt lat="48.73248" lon="7.66126">
        <ele>145</ele>
        <time>2016-07-03T01:34:21Z</time>
      </trkpt>
      <trkpt lat="48.73204" lon="7.66215">
        <ele>144</ele>
        <time>2016-07-03T01:36:21Z</time>
      </trkpt>
      <trkpt lat="48.73196" lon="7.66231">
        <ele>144</ele>
        <time>2016-07-03T01:38:21Z</time>
      </trkpt>
      <trkpt lat="48.73169" lon="7.66282">
        <ele>145</ele>
        <time>2016-07-03T01:40:21Z</time>
      </trkpt>
      <trkpt lat="48.731" lon="7.66403">
        <ele>147</ele>
        <time>2016-07-03T01:42:21Z</time>
      </trkpt>
      <trkpt lat="48.731" lon="7.66403">
        <ele>147</ele>
        <time>2016-07-03T01:44:21Z</time>
      </trkpt>
      <trkpt lat="48.73113" lon="7.66416">
        <ele>146</ele>
        <time>2016-07-03T01:46:21Z</time>
      </trkpt>
      <trkpt lat="48.7313" lon="7.66433">
        <ele>146</ele>
        <time>2016-07-03T01:48:21Z</time>
      </trkpt>
      <trkpt lat="48.7313" lon="7.66433">
        <ele>146</ele>
        <time>2016-07-03T01:50:21Z</time>
      </trkpt>
      <trkpt lat="48.73129" lon="7.66431">
        <ele>146</ele>
        <time>2016-07-03T01:52:21Z</time>
      </trkpt>
      <trkpt lat="48.73131" lon="7.66434">
        <ele>146</ele>
        <time>2016-07-03T01:54:21Z</time>
      </trkpt>
      <trkpt lat="48.73134" lon="7.66436">
        <ele>146</ele>
        <time>2016-07-03T01:56:21Z</time>
      </trkpt>
      <trkpt lat="48.73139" lon="7.6644">
        <ele>146</ele>
        <time>2016-07-03T01:58:21Z</time>
      </trkpt>
      <trkpt lat="48.73143" lon="7.66443">
        <ele>145</ele>
        <time>2016-07-03T02:00:21Z</time>
      </trkpt>
      <trkpt lat="48.73155" lon="7.6645">
        <ele>145</ele>
        <time>2016-07-03T02:02:21Z</time>
      </trkpt>
      <trkpt lat="48.73163" lon="7.66454">
        <ele>145</ele>
        <time>2016-07-03T02:04:21Z</time>
      </trkpt>
      <trkpt lat="48.73175" lon="7.66459">
        <ele>145</ele>
        <time>2016-07-03T02:06:21Z</time>
      </trkpt>
      <trkpt lat="48.73183" lon="7.66462">
        <ele>145</ele>
        <time>2016-07-03T02:08:21Z</time>
      </trkpt>
      <trkpt lat="48.73189" lon="7.66464">
        <ele>145</ele>
        <time>2016-07-03T02:10:21Z</time>
      </trkpt>
      <trkpt lat="48.73202" lon="7.66469">
        <ele>145</ele>
        <time>2016-07-03T02:12:21Z</time>
      </trkpt>
      <trkpt lat="48.73202" lon="7.66469">
        <ele>145</ele>
        <time>2016-07-03T02:14:21Z</time>
      </trkpt>
      <trkpt lat="48.73202" lon="7.66457">
        <ele>145</ele>
        <time>2016-07-03T02:16:21Z</time>
      </trkpt>
      <trkpt lat="48.73203" lon="7.6645">
        <ele>145</ele>
        <time>2016-07-03T02:18:21Z</time>
      </trkpt>
      <trkpt lat="48.73206" lon="7.66439">
        <ele>145</ele>
        <time>2016-07-03T02:20:21Z</time>
      </trkpt>
      <trkpt lat="48.73209" lon="7.66431">
        <ele>145</ele>
        <time>2016-07-03T02:22:21Z</time>
      </trkpt>
      <trkpt lat="48.73216" lon="7.66415">
        <ele>145</ele>
        <time>2016-07-03T02:24:21Z</time>
      </trkpt>
      <trkpt lat="48.73228" lon="7.6639">
        <ele>145</ele>
        <time>2016-07-03T02:26:21Z</time>
      </trkpt>
      <trkpt lat="48.73238" lon="7.66369">
        <ele>145</ele>
        <time>2016-07-03T02:28:21Z</time>
      </trkpt>
      <trkpt lat="48.7324" lon="7.66365">
        <ele>145</ele>
        <time>2016-07-03T02:30:21Z</time>
      </trkpt>
      <trkpt lat="48.73242" lon="7.66361">
        <ele>144</ele>
        <time>2016-07-03T02:32:21Z</time>
      </trkpt>
      <trkpt lat="48.73243" lon="7.66359">
        <ele>144</ele>
        <time>2016-07-03T02:34:21Z</time>
      </trkpt>
      <trkpt lat="48.73293" lon="7.66277">
        <ele>144</ele>
        <time>2016-07-03T02:36:21Z</time>
      </trkpt>
      <trkpt lat="48.7335" lon="7.66179">
        <ele>144</ele>
        <time>2016-07-03T02:38:21Z</time>
      </trkpt>
      <trkpt lat="48.73407" lon="7.66081">
        <ele>145</ele>
        <time>2016-07-03T02:40:21Z</time>
      </trkpt>
      <trkpt lat="48.73415" lon="7.66068">
        <ele>145</ele>
        <time>2016-07-03T02:42:21Z</time>
      </trkpt>
      <trkpt lat="48.73423" lon="7.66056">
        <ele>145</ele>
        <time>2016-07-03T02:44:21Z</time>
      </trkpt>
      <trkpt lat="48.73433" lon="7.6604">
        <ele>146</ele>
        <time>2016-07-03T02:46:21Z</time>
      </trkpt>
      <trkpt lat="48.73453" lon="7.66009">
        <ele>146</ele>
        <time>2016-07-03T02:48:21Z</time>
      </trkpt>
      <trkpt lat="48.73472" lon="7.65974">
        <ele>147</ele>
        <time>2016-07-03T02:50:21Z</time>
      </trkpt>
      <trkpt lat="48.73473" lon="7.65972">
        <ele>147</ele>
        <time>2016-07-03T02:52:21Z</time>
      </trkpt>
      <trkpt lat="48.73474" lon="7.6597">
        <ele>147</ele>
        <time>2016-07-03T02:54:21Z</time>
      </trkpt>
      <trkpt lat="48.73474" lon="7.65968">
        <ele>147</ele>
        <time>2016-07-03T02:56:21Z</time>
      </trkpt>
      <trkpt lat="48.73478" lon="7.6594">
        <ele>147</ele>
        <time>2016-07-03T02:58:21Z</time>
      </trkpt>
      <trkpt lat="48.73478" lon="7.6594">
        <ele>147</ele>
        <time>2016-07-03T03:00:21Z</time>
      </trkpt>
      <trkpt lat="48.73474" lon="7.65968">
        <ele>147</ele>
        <time>2016-07-03T03:02:21Z</time>
      </trkpt>
      <trkpt lat="48.73474" lon="7.6597">
        <ele>147</ele>
        <time>2016-07-03T03:04:21Z</time>
      </trkpt>
      <trkpt lat="48.73473" lon="7.65972">
        <ele>147</ele>
        <time>2016-07-03T03:06:21Z</time>
      </trkpt>
      <trkpt lat="48.73472" lon="7.65974">
        <ele>147</ele>
        <time>2016-07-03T03:08:21Z</time>
      </trkpt>
      <trkpt lat="48.73453" lon="7.66009">
        <ele>146</ele>
        <time>2016-07-03T03:10:21Z</time>
      </trkpt>
      <trkpt lat="48.73433" lon="7.6604">
        <ele>146</ele>
        <time>2016-07-03T03:12:21Z</time>
      </trkpt>
      <trkpt lat="48.73423" lon="7.66056">
        <ele>145</ele>
        <time>2016-07-03T03:14:21Z</time>
      </trkpt>
      <trkpt lat="48.73415" lon="7.66068">
        <ele>145</ele>
        <time>2016-07-03T03:16:21Z</time>
      </trkpt>
      <trkpt lat="48.73407" lon="7.66081">
        <ele>145</ele>
        <time>2016-07-03T03:18:21Z</time>
      </trkpt>
      <trkpt lat="48.7335" lon="7.66179">
        <ele>144</ele>
        <time>2016-07-03T03:20:21Z</time>
      </trkpt>
      <trkpt lat="48.73293" lon="7.66277">
        <ele>144</ele>
        <time>2016-07-03T03:22:21Z</time>
      </trkpt>
      <trkpt lat="48.73243" lon="7.66359">
        <ele>144</ele>
        <time>2016-07-03T03:24:21Z</time>
      </trkpt>
      <trkpt lat="48.73242" lon="7.66361">
        <ele>144</ele>
        <time>2016-07-03T03:26:21Z</time>
      </trkpt>
      <trkpt lat="48.7324" lon="7.66365">
        <ele>145</ele>
        <time>2016-07-03T03:28:21Z</time>
      </trkpt>
      <trkpt lat="48.73238" lon="7.66369">
        <ele>145</ele>
        <time>2016-07-03T03:30:21Z</time>
      </trkpt>
      <trkpt lat="48.73228" lon="7.6639">
        <ele>145</ele>
        <time>2016-07-03T03:32:21Z</time>
      </trkpt>
      <trkpt lat="48.73216" lon="7.66415">
        <ele>145</ele>
        <time>2016-07-03T03:34:21Z</time>
      </trkpt>
      <trkpt lat="48.73209" lon="7.66431">
        <ele>145</ele>
        <time>2016-07-03T03:36:21Z</time>
      </trkpt>
      <trkpt lat="48.73206" lon="7.66439">
        <ele>145</ele>
        <time>2016-07-03T03:38:21Z</time>
      </trkpt>
      <trkpt lat="48.73203" lon="7.6645">
        <ele>145</ele>
        <time>2016-07-03T03:40:21Z</time>
      </trkpt>
      <trkpt lat="48.73202" lon="7.66457">
        <ele>145</ele>
        <time>2016-07-03T03:42:21Z</time>
      </trkpt>
      <trkpt lat="48.73202" lon="7.66469">
        <ele>145</ele>
        <time>2016-07-03T03:44:21Z</time>
      </trkpt>
      <trkpt lat="48.73202" lon="7.66469">
        <ele>145</ele>
        <time>2016-07-03T03:46:21Z</time>
      </trkpt>
      <trkpt lat="48.73189" lon="7.66464">
        <ele>145</ele>
        <time>2016-07-03T03:48:21Z</time>
      </trkpt>
      <trkpt lat="48.73183" lon="7.66462">
        <ele>145</ele>
        <time>2016-07-03T03:50:21Z</time>
      </trkpt>
      <trkpt lat="48.73175" lon="7.66459">
        <ele>145</ele>
        <time>2016-07-03T03:52:21Z</time>
      </trkpt>
      <trkpt lat="48.73163" lon="7.66454">
        <ele>145</ele>
        <time>2016-07-03T03:54:21Z</time>
      </trkpt>
      <trkpt lat="48.73155" lon="7.6645">
        <ele>145</ele>
        <time>2016-07-03T03:56:21Z</time>
      </trkpt>
      <trkpt lat="48.73143" lon="7.66443">
        <ele>145</ele>
        <time>2016-07-03T03:58:21Z</time>
      </trkpt>
      <trkpt lat="48.73139" lon="7.6644">
        <ele>146</ele>
        <time>2016-07-03T04:00:21Z</time>
      </trkpt>
      <trkpt lat="48.73134" lon="7.66436">
        <ele>146</ele>
        <time>2016-07-03T04:02:21Z</time>
      </trkpt>
      <trkpt lat="48.73131" lon="7.66434">
        <ele>146</ele>
        <time>2016-07-03T04:04:21Z</time>
      </trkpt>
      <trkpt lat="48.73129" lon="7.66431">
        <ele>146</ele>
        <time>2016-07-03T04:06:21Z</time>
      </trkpt>
      <trkpt lat="48.7313" lon="7.66433">
        <ele>146</ele>
        <time>2016-07-03T04:08:21Z</time>
      </trkpt>
      <trkpt lat="48.7313" lon="7.66433">
        <ele>146</ele>
        <time>2016-07-03T04:10:21Z</time>
      </trkpt>
      <trkpt lat="48.72985" lon="7.66734">
        <ele>144</ele>
        <time>2016-07-03T04:12:21Z</time>
      </trkpt>
      <trkpt lat="48.72922" lon="7.66859">
        <ele>143</ele>
        <time>2016-07-03T04:14:21Z</time>
      </trkpt>
      <trkpt lat="48.72895" lon="7.66919">
        <ele>144</ele>
        <time>2016-07-03T04:16:21Z</time>
      </trkpt>
      <trkpt lat="48.72847" lon="7.67017">
        <ele>147</ele>
        <time>2016-07-03T04:18:21Z</time>
      </trkpt>
      <trkpt lat="48.72819" lon="7.67076">
        <ele>145</ele>
        <time>2016-07-03T04:20:21Z</time>
      </trkpt>
      <trkpt lat="48.72785" lon="7.67146">
        <ele>145</ele>
        <time>2016-07-03T04:22:21Z</time>
      </trkpt>
      <trkpt lat="48.72751" lon="7.67215">
        <ele>145</ele>
        <time>2016-07-03T04:24:21Z</time>
      </trkpt>
      <trkpt lat="48.72649" lon="7.67427">
        <ele>148</ele>
        <time>2016-07-03T04:26:21Z</time>
      </trkpt>
      <trkpt lat="48.72559" lon="7.67614">
        <ele>151</ele>
        <time>2016-07-03T04:28:21Z</time>
      </trkpt>
      <trkpt lat="48.72393" lon="7.67957">
        <ele>149</ele>
        <time>2016-07-03T04:30:21Z</time>
      </trkpt>
      <trkpt lat="48.72328" lon="7.68093">
        <ele>152</ele>
        <time>2016-07-03T04:32:21Z</time>
      </trkpt>
      <trkpt lat="48.72284" lon="7.68185">
        <ele>148</ele>
        <time>2016-07-03T04:34:21Z</time>
      </trkpt>
      <trkpt lat="48.72245" lon="7.68265">
        <ele>146</ele>
        <time>2016-07-03T04:36:21Z</time>
      </trkpt>
      <trkpt lat="48.72221" lon="7.68313">
        <ele>145</ele>
        <time>2016-07-03T04:38:21Z</time>
      </trkpt>
      <trkpt lat="48.72199" lon="7.68345">
        <ele>146</ele>
        <time>2016-07-03T04:40:21Z</time>
      </trkpt>
      <trkpt lat="48.72174" lon="7.68385">
        <ele>146</ele>
        <time>2016-07-03T04:42:21Z</time>
      </trkpt>
      <trkpt lat="48.72167" lon="7.68396">
        <ele>146</ele>
        <time>2016-07-03T04:44:21Z</time>
      </trkpt>
      <trkpt lat="48.72143" lon="7.68431">
        <ele>146</ele>
        <time>2016-07-03T04:46:21Z</time>
      </trkpt>
      <trkpt lat="48.72124" lon="7.68454">
        <ele>146</ele>
        <time>2016-07-03T04:48:21Z</time>
      </trkpt>
      <trkpt lat="48.72086" lon="7.68495">
        <ele>146</ele>
        <time>2016-07-03T04:50:21Z</time>
      </trkpt>
      <trkpt lat="48.72045" lon="7.68533">
        <ele>146</ele>
        <time>2016-07-03T04:52:21Z</time>
      </trkpt>
      <trkpt lat="48.72002" lon="7.6857">
        <ele>146</ele>
        <time>2016-07-03T04:54:21Z</time>
      </trkpt>
      <trkpt lat="48.71965" lon="7.68599">
        <ele>146</ele>
        <time>2016-07-03T04:56:21Z</time>
      </trkpt>
      <trkpt lat="48.71912" lon="7.68642">
        <ele>146</ele>
        <time>2016-07-03T04:58:21Z</time>
      </trkpt>
      <trkpt lat="48.71799" lon="7.68735">
        <ele>145</ele>
        <time>2016-07-03T05:00:21Z</time>
      </trkpt>
      <trkpt lat="48.71765" lon="7.68763">
        <ele>145</ele>
        <time>2016-07-03T05:02:21Z</time>
      </trkpt>
      <trkpt lat="48.71611" lon="7.68887">
        <ele>144</ele>
        <time>2016-07-03T05:04:21Z</time>
      </trkpt>
      <trkpt lat="48.71478" lon="7.69">
        <ele>146</ele>
        <time>2016-07-03T05:06:21Z</time>
      </trkpt>
      <trkpt lat="48.71473" lon="7.69001">
        <ele>146</ele>
        <time>2016-07-03T05:08:21Z</time>
      </trkpt>
      <trkpt lat="48.7147" lon="7.69001">
        <ele>146</ele>
        <time>2016-07-03T05:10:21Z</time>
      </trkpt>
      <trkpt lat="48.71466" lon="7.69003">
        <ele>146</ele>
        <time>2016-07-03T05:12:21Z</time>
      </trkpt>
      <trkpt lat="48.71463" lon="7.69004">
        <ele>146</ele>
        <time>2016-07-03T05:14:21Z</time>
      </trkpt>
      <trkpt lat="48.71433" lon="7.69036">
        <ele>147</ele>
        <time>2016-07-03T05:16:21Z</time>
      </trkpt>
      <trkpt lat="48.71413" lon="7.69057">
        <ele>148</ele>
        <time>2016-07-03T05:18:21Z</time>
      </trkpt>
      <trkpt lat="48.71389" lon="7.69079">
        <ele>147</ele>
        <time>2016-07-03T05:20:21Z</time>
      </trkpt>
      <trkpt lat="48.71376" lon="7.6909">
        <ele>146</ele>
        <time>2016-07-03T05:22:21Z</time>
      </trkpt>
      <trkpt lat="48.71351" lon="7.69108">
        <ele>146</ele>
        <time>2016-07-03T05:24:21Z</time>
      </trkpt>
      <trkpt lat="48.71325" lon="7.69126">
        <ele>145</ele>
        <time>2016-07-03T05:26:21Z</time>
      </trkpt>
      <trkpt lat="48.71298" lon="7.69146">
        <ele>146</ele>
        <time>2016-07-03T05:28:21Z</time>
      </trkpt>
      <trkpt lat="48.71259" lon="7.69177">
        <ele>146</ele>
        <time>2016-07-03T05:30:21Z</time>
      </trkpt>
      <trkpt lat="48.71201" lon="7.69222">
        <ele>149</ele>
        <time>2016-07-03T05:32:21Z</time>
      </trkpt>
      <trkpt lat="48.71129" lon="7.69282">
        <ele>150</ele>
        <time>2016-07-03T05:34:21Z</time>
      </trkpt>
      <trkpt lat="48.71071" lon="7.6933">
        <ele>150</ele>
        <time>2016-07-03T05:36:21Z</time>
      </trkpt>
      <trkpt lat="48.70984" lon="7.694">
        <ele>150</ele>
        <time>2016-07-03T05:38:21Z</time>
      </trkpt>
      <trkpt lat="48.70934" lon="7.69442">
        <ele>149</ele>
        <time>2016-07-03T05:40:21Z</time>
      </trkpt>
      <trkpt lat="48.70923" lon="7.69451">
        <ele>149</ele>
        <time>2016-07-03T05:42:21Z</time>
      </trkpt>
      <trkpt lat="48.70886" lon="7.69482">
        <ele>149</ele>
        <time>2016-07-03T05:44:21Z</time>
      </trkpt>
      <trkpt lat="48.7088" lon="7.69486">
        <ele>149</ele>
        <time>2016-07-03T05:46:21Z</time>
      </trkpt>
      <trkpt lat="48.70876" lon="7.69486">
        <ele>149</ele>
        <time>2016-07-03T05:48:21Z</time>
      </trkpt>
      <trkpt lat="48.7087" lon="7.69485">
        <ele>149</ele>
        <time>2016-07-03T05:50:21Z</time>
      </trkpt>
      <trkpt lat="48.70865" lon="7.69485">
        <ele>149</ele>
        <time>2016-07-03T05:52:21Z</time>
      </trkpt>
      <trkpt lat="48.70865" lon="7.69487">
        <ele>149</ele>
        <time>2016-07-03T05:54:21Z</time>
      </trkpt>
      <trkpt lat="48.70861" lon="7.69494">
        <ele>149</ele>
        <time>2016-07-03T05:56:21Z</time>
      </trkpt>
      <trkpt lat="48.70858" lon="7.69501">
        <ele>149</ele>
        <time>2016-07-03T05:58:21Z</time>
      </trkpt>
      <trkpt lat="48.70854" lon="7.69508">
        <ele>148</ele>
        <time>2016-07-03T06:00:21Z</time>
      </trkpt>
      <trkpt lat="48.70821" lon="7.69535">
        <ele>147</ele>
        <time>2016-07-03T06:02:21Z</time>
      </trkpt>
      <trkpt lat="48.70796" lon="7.69556">
        <ele>146</ele>
        <time>2016-07-03T06:04:21Z</time>
      </trkpt>
      <trkpt lat="48.70727" lon="7.6961">
        <ele>147</ele>
        <time>2016-07-03T06:06:21Z</time>
      </trkpt>
      <trkpt lat="48.7072" lon="7.69615">
        <ele>147</ele>
        <time>2016-07-03T06:08:21Z</time>
      </trkpt>
      <trkpt lat="48.70717" lon="7.69618">
        <ele>147</ele>
        <time>2016-07-03T06:10:21Z</time>
      </trkpt>
      <trkpt lat="48.70681" lon="7.69643">
        <ele>146</ele>
        <time>2016-07-03T06:12:21Z</time>
      </trkpt>
      <trkpt lat="48.70618" lon="7.69687">
        <ele>147</ele>
        <time>2016-07-03T06:14:21Z</time>
      </trkpt>
      <trkpt lat="48.70567" lon="7.69719">
        <ele>147</ele>
        <time>2016-07-03T06:16:21Z</time>
      </trkpt>
      <trkpt lat="48.70488" lon="7.69765">
        <ele>148</ele>
        <time>2016-07-03T06:18:21Z</time>
      </trkpt>
      <trkpt lat="48.70357" lon="7.69835">
        <ele>148</ele>
        <time>2016-07-03T06:20:21Z</time>
      </trkpt>
      <trkpt lat="48.70316" lon="7.69858">
        <ele>148</ele>
        <time>2016-07-03T06:22:21Z</time>
      </trkpt>
      <trkpt lat="48.70305" lon="7.69863">
        <ele>148</ele>
        <time>2016-07-03T06:24:21Z</time>
      </trkpt>
      <trkpt lat="48.70226" lon="7.69904">
        <ele>147</ele>
        <time>2016-07-03T06:26:21Z</time>
      </trkpt>
      <trkpt lat="48.70148" lon="7.69945">
        <ele>146</ele>
        <time>2016-07-03T06:28:21Z</time>
      </trkpt>
      <trkpt lat="48.70077" lon="7.69983">
        <ele>146</ele>
        <time>2016-07-03T06:30:21Z</time>
      </trkpt>
      <trkpt lat="48.70004" lon="7.70022">
        <ele>146</ele>
        <time>2016-07-03T06:32:21Z</time>
      </trkpt>
      <trkpt lat="48.69923" lon="7.70064">
        <ele>145</ele>
        <time>2016-07-03T06:34:21Z</time>
      </trkpt>
      <trkpt lat="48.6988" lon="7.70088">
        <ele>147</ele>
        <time>2016-07-03T06:36:21Z</time>
      </trkpt>
      <trkpt lat="48.69875" lon="7.70091">
        <ele>147</ele>
        <time>2016-07-03T06:38:21Z</time>
      </trkpt>
      <trkpt lat="48.69849" lon="7.70106">
        <ele>148</ele>
        <time>2016-07-03T06:40:21Z</time>
      </trkpt>
      <trkpt lat="48.69791" lon="7.70136">
        <ele>148</ele>
        <time>2016-07-03T06:42:21Z</time>
      </trkpt>
      <trkpt lat="48.69776" lon="7.70144">
        <ele>148</ele>
        <time>2016-07-03T06:44:21Z</time>
      </trkpt>
      <trkpt lat="48.69775" lon="7.70144">
        <ele>148</ele>
        <time>2016-07-03T06:46:21Z</time>
      </trkpt>
      <trkpt lat="48.6974" lon="7.70163">
        <ele>146</ele>
        <time>2016-07-03T06:48:21Z</time>
      </trkpt>
      <trkpt lat="48.69737" lon="7.70165">
        <ele>146</ele>
        <time>2016-07-03T06:50:21Z</time>
      </trkpt>
      <trkpt lat="48.69682" lon="7.70195">
        <ele>144</ele>
        <time>2016-07-03T06:52:21Z</time>
      </trkpt>
      <trkpt lat="48.69594" lon="7.70241">
        <ele>145</ele>
        <time>2016-07-03T06:54:21Z</time>
      </trkpt>
      <trkpt lat="48.69577" lon="7.70251">
        <ele>145</ele>
        <time>2016-07-03T06:56:21Z</time>
      </trkpt>
      <trkpt lat="48.69494" lon="7.70295">
        <ele>142</ele>
        <time>2016-07-03T06:58:21Z</time>
      </trkpt>
      <trkpt lat="48.69412" lon="7.70338">
        <ele>144</ele>
        <time>2016-07-03T07:00:21Z</time>
      </trkpt>
      <trkpt lat="48.69356" lon="7.70369">
        <ele>143</ele>
        <time>2016-07-03T07:02:21Z</time>
      </trkpt>
      <trkpt lat="48.69344" lon="7.70375">
        <ele>142</ele>
        <time>2016-07-03T07:04:21Z</time>
      </trkpt>
      <trkpt lat="48.69318" lon="7.70389">
        <ele>142</ele>
        <time>2016-07-03T07:06:21Z</time>
      </trkpt>
      <trkpt lat="48.69108" lon="7.70502">
        <ele>143</ele>
        <time>2016-07-03T07:08:21Z</time>
      </trkpt>
      <trkpt lat="48.69005" lon="7.70558">
        <ele>143</ele>
        <time>2016-07-03T07:10:21Z</time>
      </trkpt>
      <trkpt lat="48.68925" lon="7.706">
        <ele>144</ele>
        <time>2016-07-03T07:12:21Z</time>
      </trkpt>
      <trkpt lat="48.68866" lon="7.70632">
        <ele>143</ele>
        <time>2016-07-03T07:14:21Z</time>
      </trkpt>
      <trkpt lat="48.6886" lon="7.70635">
        <ele>143</ele>
        <time>2016-07-03T07:16:21Z</time>
      </trkpt>
      <trkpt lat="48.68793" lon="7.70671">
        <ele>142</ele>
        <time>2016-07-03T07:18:21Z</time>
      </trkpt>
      <trkpt lat="48.68658" lon="7.70743">
        <ele>144</ele>
        <time>2016-07-03T07:20:21Z</time>
      </trkpt>
      <trkpt lat="48.68544" lon="7.70805">
        <ele>145</ele>
        <time>2016-07-03T07:22:21Z</time>
      </trkpt>
      <trkpt lat="48.68539" lon="7.70808">
        <ele>145</ele>
        <time>2016-07-03T07:24:21Z</time>
      </trkpt>
      <trkpt lat="48.68535" lon="7.70809">
        <ele>145</ele>
        <time>2016-07-03T07:26:21Z</time>
      </trkpt>
      <trkpt lat="48.68532" lon="7.7081">
        <ele>145</ele>
        <time>2016-07-03T07:28:21Z</time>
      </trkpt>
      <trkpt lat="48.68529" lon="7.7081">
        <ele>145</ele>
        <time>2016-07-03T07:30:21Z</time>
      </trkpt>
      <trkpt lat="48.68527" lon="7.70809">
        <ele>145</ele>
        <time>2016-07-03T07:32:21Z</time>
      </trkpt>
      <trkpt lat="48.68526" lon="7.70808">
        <ele>145</ele>
        <time>2016-07-03T07:34:21Z</time>
      </trkpt>
      <trkpt lat="48.68524" lon="7.70808">
        <ele>146</ele>
        <time>2016-07-03T07:36:21Z</time>
      </trkpt>
      <trkpt lat="48.68522" lon="7.70808">
        <ele>146</ele>
        <time>2016-07-03T07:38:21Z</time>
      </trkpt>
      <trkpt lat="48.68517" lon="7.70811">
        <ele>146</ele>
        <time>2016-07-03T07:40:21Z</time>
      </trkpt>
      <trkpt lat="48.68515" lon="7.70813">
        <ele>146</ele>
        <time>2016-07-03T07:42:21Z</time>
      </trkpt>
      <trkpt lat="48.68514" lon="7.70814">
        <ele>146</ele>
        <time>2016-07-03T07:44:21Z</time>
      </trkpt>
      <trkpt lat="48.68512" lon="7.70817">
        <ele>146</ele>
        <time>2016-07-03T07:46:21Z</time>
      </trkpt>
      <trkpt lat="48.68511" lon="7.70819">
        <ele>146</ele>
        <time>2016-07-03T07:48:21Z</time>
      </trkpt>
      <trkpt lat="48.68509" lon="7.70823">
        <ele>146</ele>
        <time>2016-07-03T07:50:21Z</time>
      </trkpt>
      <trkpt lat="48.68507" lon="7.70825">
        <ele>146</ele>
        <time>2016-07-03T07:52:21Z</time>
      </trkpt>
      <trkpt lat="48.68504" lon="7.70827">
        <ele>146</ele>
        <time>2016-07-03T07:54:21Z</time>
      </trkpt>
      <trkpt lat="48.68452" lon="7.70856">
        <ele>145</ele>
        <time>2016-07-03T07:56:21Z</time>
      </trkpt>
      <trkpt lat="48.68389" lon="7.70889">
        <ele>144</ele>
        <time>2016-07-03T07:58:21Z</time>
      </trkpt>
      <trkpt lat="48.68344" lon="7.70912">
        <ele>143</ele>
        <time>2016-07-03T08:00:21Z</time>
      </trkpt>
      <trkpt lat="48.68322" lon="7.70924">
        <ele>143</ele>
        <time>2016-07-03T08:02:21Z</time>
      </trkpt>
      <trkpt lat="48.68318" lon="7.70926">
        <ele>143</ele>
        <time>2016-07-03T08:04:21Z</time>
      </trkpt>
      <trkpt lat="48.68314" lon="7.70927">
        <ele>143</ele>
        <time>2016-07-03T08:06:21Z</time>
      </trkpt>
      <trkpt lat="48.6831" lon="7.70929">
        <ele>143</ele>
        <time>2016-07-03T08:08:21Z</time>
      </trkpt>
      <trkpt lat="48.68307" lon="7.7093">
        <ele>143</ele>
        <time>2016-07-03T08:10:21Z</time>
      </trkpt>
      <trkpt lat="48.68303" lon="7.7093">
        <ele>142</ele>
        <time>2016-07-03T08:12:21Z</time>
      </trkpt>
      <trkpt lat="48.68298" lon="7.70932">
        <ele>142</ele>
        <time>2016-07-03T08:14:21Z</time>
      </trkpt>
      <trkpt lat="48.68294" lon="7.70934">
        <ele>142</ele>
        <time>2016-07-03T08:16:21Z</time>
      </trkpt>
      <trkpt lat="48.68289" lon="7.70937">
        <ele>142</ele>
        <time>2016-07-03T08:18:21Z</time>
      </trkpt>
      <trkpt lat="48.68287" lon="7.70938">
        <ele>142</ele>
        <time>2016-07-03T08:20:21Z</time>
      </trkpt>
      <trkpt lat="48.68281" lon="7.70941">
        <ele>142</ele>
        <time>2016-07-03T08:22:21Z</time>
      </trkpt>
      <trkpt lat="48.68276" lon="7.70944">
        <ele>142</ele>
        <time>2016-07-03T08:24:21Z</time>
      </trkpt>
      <trkpt lat="48.68272" lon="7.70948">
        <ele>142</ele>
        <time>2016-07-03T08:26:21Z</time>
      </trkpt>
      <trkpt lat="48.68265" lon="7.70954">
        <ele>142</ele>
        <time>2016-07-03T08:28:21Z</time>
      </trkpt>
      <trkpt lat="48.68261" lon="7.70957">
        <ele>142</ele>
        <time>2016-07-03T08:30:21Z</time>
      </trkpt>
      <trkpt lat="48.68255" lon="7.70961">
        <ele>142</ele>
        <time>2016-07-03T08:32:21Z</time>
      </trkpt>
      <trkpt lat="48.6823" lon="7.70974">
        <ele>142</ele>
        <time>2016-07-03T08:34:21Z</time>
      </trkpt>
      <trkpt lat="48.68227" lon="7.70975">
        <ele>142</ele>
        <time>2016-07-03T08:36:21Z</time>
      </trkpt>
      <trkpt lat="48.6804" lon="7.71074">
        <ele>141</ele>
        <time>2016-07-03T08:38:21Z</time>
      </trkpt>
      <trkpt lat="48.68021" lon="7.71084">
        <ele>141</ele>
        <time>2016-07-03T08:40:21Z</time>
      </trkpt>
      <trkpt lat="48.67938" lon="7.71129">
        <ele>140</ele>
        <time>2016-07-03T08:42:21Z</time>
      </trkpt>
      <trkpt lat="48.67924" lon="7.71137">
        <ele>140</ele>
        <time>2016-07-03T08:44:21Z</time>
      </trkpt>
      <trkpt lat="48.67887" lon="7.71156">
        <ele>141</ele>
        <time>2016-07-03T08:46:21Z</time>
      </trkpt>
      <trkpt lat="48.6788" lon="7.7116">
        <ele>141</ele>
        <time>2016-07-03T08:48:21Z</time>
      </trkpt>
      <trkpt lat="48.67869" lon="7.71165">
        <ele>141</ele>
        <time>2016-07-03T08:50:21Z</time>
      </trkpt>
      <trkpt lat="48.67858" lon="7.71171">
        <ele>141</ele>
        <time>2016-07-03T08:52:21Z</time>
      </trkpt>
      <trkpt lat="48.67769" lon="7.71219">
        <ele>140</ele>
        <time>2016-07-03T08:54:21Z</time>
      </trkpt>
      <trkpt lat="48.67758" lon="7.71225">
        <ele>140</ele>
        <time>2016-07-03T08:56:21Z</time>
      </trkpt>
      <trkpt lat="48.67643" lon="7.71286">
        <ele>139</ele>
        <time>2016-07-03T08:58:21Z</time>
      </trkpt>
      <trkpt lat="48.67515" lon="7.71356">
        <ele>140</ele>
        <time>2016-07-03T09:00:21Z</time>
      </trkpt>
      <trkpt lat="48.67434" lon="7.71398">
        <ele>140</ele>
        <time>2016-07-03T09:02:21Z</time>
      </trkpt>
      <trkpt lat="48.67395" lon="7.7142">
        <ele>140</ele>
        <time>2016-07-03T09:04:21Z</time>
      </trkpt>
      <trkpt lat="48.6737" lon="7.71433">
        <ele>139</ele>
        <time>2016-07-03T09:06:21Z</time>
      </trkpt>
      <trkpt lat="48.67358" lon="7.71439">
        <ele>139</ele>
        <time>2016-07-03T09:08:21Z</time>
      </trkpt>
      <trkpt lat="48.67354" lon="7.71441">
        <ele>139</ele>
        <time>2016-07-03T09:10:21Z</time>
      </trkpt>
      <trkpt lat="48.67349" lon="7.71443">
        <ele>139</ele>
        <time>2016-07-03T09:12:21Z</time>
      </trkpt>
      <trkpt lat="48.67346" lon="7.71443">
        <ele>139</ele>
        <time>2016-07-03T09:14:21Z</time>
      </trkpt>
      <trkpt lat="48.67338" lon="7.71445">
        <ele>138</ele>
        <time>2016-07-03T09:16:21Z</time>
      </trkpt>
      <trkpt lat="48.67332" lon="7.71448">
        <ele>138</ele>
        <time>2016-07-03T09:18:21Z</time>
      </trkpt>
      <trkpt lat="48.67326" lon="7.7145">
        <ele>138</ele>
        <time>2016-07-03T09:20:21Z</time>
      </trkpt>
      <trkpt lat="48.6732" lon="7.71454">
        <ele>138</ele>
        <time>2016-07-03T09:22:21Z</time>
      </trkpt>
      <trkpt lat="48.67316" lon="7.71457">
        <ele>138</ele>
        <time>2016-07-03T09:24:21Z</time>
      </trkpt>
      <trkpt lat="48.67312" lon="7.7146">
        <ele>138</ele>
        <time>2016-07-03T09:26:21Z</time>
      </trkpt>
      <trkpt lat="48.67309" lon="7.71464">
        <ele>138</ele>
        <time>2016-07-03T09:28:21Z</time>
      </trkpt>
      <trkpt lat="48.67306" lon="7.71467">
        <ele>138</ele>
        <time>2016-07-03T09:30:21Z</time>
      </trkpt>
      <trkpt lat="48.67303" lon="7.7147">
        <ele>139</ele>
        <time>2016-07-03T09:32:21Z</time>
      </trkpt>
      <trkpt lat="48.67297" lon="7.71473">
        <ele>139</ele>
        <time>2016-07-03T09:34:21Z</time>
      </trkpt>
      <trkpt lat="48.67289" lon="7.71478">
        <ele>139</ele>
        <time>2016-07-03T09:36:21Z</time>
      </trkpt>
      <trkpt lat="48.67278" lon="7.71484">
        <ele>139</ele>
        <time>2016-07-03T09:38:21Z</time>
      </trkpt>
      <trkpt lat="48.67263" lon="7.71492">
        <ele>139</ele>
        <time>2016-07-03T09:40:21Z</time>
      </trkpt>
      <trkpt lat="48.67218" lon="7.71516">
        <ele>139</ele>
        <time>2016-07-03T09:42:21Z</time>
      </trkpt>
      <trkpt lat="48.67126" lon="7.7156">
        <ele>139</ele>
        <time>2016-07-03T09:44:21Z</time>
      </trkpt>
      <trkpt lat="48.67109" lon="7.71569">
        <ele>139</ele>
        <time>2016-07-03T09:46:21Z</time>
      </trkpt>
      <trkpt lat="48.67101" lon="7.71573">
        <ele>140</ele>
        <time>2016-07-03T09:48:21Z</time>
      </trkpt>
      <trkpt lat="48.67101" lon="7.71573">
        <ele>140</ele>
        <time>2016-07-03T09:50:21Z</time>
      </trkpt>
      <trkpt lat="48.67098" lon="7.71559">
        <ele>140</ele>
        <time>2016-07-03T09:52:21Z</time>
      </trkpt>
      <trkpt lat="48.67094" lon="7.71545">
        <ele>140</ele>
        <time>2016-07-03T09:54:21Z</time>
      </trkpt>
      <trkpt lat="48.67094" lon="7.71545">
        <ele>140</ele>
        <time>2016-07-03T09:56:21Z</time>
      </trkpt>
      <trkpt lat="48.67088" lon="7.71548">
        <ele>140</ele>
        <time>2016-07-03T09:58:21Z</time>
      </trkpt>
      <trkpt lat="48.67053" lon="7.71569">
        <ele>141</ele>
        <time>2016-07-03T10:00:21Z</time>
      </trkpt>
      <trkpt lat="48.67024" lon="7.71592">
        <ele>141</ele>
        <time>2016-07-03T10:02:21Z</time>
      </trkpt>
      <trkpt lat="48.66999" lon="7.71617">
        <ele>142</ele>
        <time>2016-07-03T10:04:21Z</time>
      </trkpt>
      <trkpt lat="48.66978" lon="7.71645">
        <ele>142</ele>
        <time>2016-07-03T10:06:21Z</time>
      </trkpt>
      <trkpt lat="48.66963" lon="7.71667">
        <ele>142</ele>
        <time>2016-07-03T10:08:21Z</time>
      </trkpt>
      <trkpt lat="48.66947" lon="7.71695">
        <ele>142</ele>
        <time>2016-07-03T10:10:21Z</time>
      </trkpt>
      <trkpt lat="48.66942" lon="7.71706">
        <ele>141</ele>
        <time>2016-07-03T10:12:21Z</time>
      </trkpt>
      <trkpt lat="48.66897" lon="7.71789">
        <ele>141</ele>
        <time>2016-07-03T10:14:21Z</time>
      </trkpt>
      <trkpt lat="48.66871" lon="7.71838">
        <ele>141</ele>
        <time>2016-07-03T10:16:21Z</time>
      </trkpt>
      <trkpt lat="48.66851" lon="7.71877">
        <ele>142</ele>
        <time>2016-07-03T10:18:21Z</time>
      </trkpt>
      <trkpt lat="48.66831" lon="7.71917">
        <ele>142</ele>
        <time>2016-07-03T10:20:21Z</time>
      </trkpt>
      <trkpt lat="48.66824" lon="7.7193">
        <ele>142</ele>
        <time>2016-07-03T10:22:21Z</time>
      </trkpt>
      <trkpt lat="48.66817" lon="7.71943">
        <ele>141</ele>
        <time>2016-07-03T10:24:21Z</time>
      </trkpt>
      <trkpt lat="48.66816" lon="7.71944">
        <ele>141</ele>
        <time>2016-07-03T10:26:21Z</time>
      </trkpt>
      <trkpt lat="48.66815" lon="7.71946">
        <ele>141</ele>
        <time>2016-07-03T10:28:21Z</time>
      </trkpt>
      <trkpt lat="48.66813" lon="7.71948">
        <ele>141</ele>
        <time>2016-07-03T10:30:21Z</time>
      </trkpt>
      <trkpt lat="48.66809" lon="7.71952">
        <ele>141</ele>
        <time>2016-07-03T10:32:21Z</time>
      </trkpt>
      <trkpt lat="48.66797" lon="7.71961">
        <ele>141</ele>
        <time>2016-07-03T10:34:21Z</time>
      </trkpt>
      <trkpt lat="48.66791" lon="7.71966">
        <ele>141</ele>
        <time>2016-07-03T10:36:21Z</time>
      </trkpt>
      <trkpt lat="48.66784" lon="7.71972">
        <ele>141</ele>
        <time>2016-07-03T10:38:21Z</time>
      </trkpt>
      <trkpt lat="48.66778" lon="7.71977">
        <ele>141</ele>
        <time>2016-07-03T10:40:21Z</time>
      </trkpt>
      <trkpt lat="48.66766" lon="7.71995">
        <ele>140</ele>
        <time>2016-07-03T10:42:21Z</time>
      </trkpt>
      <trkpt lat="48.66728" lon="7.72059">
        <ele>140</ele>
        <time>2016-07-03T10:44:21Z</time>
      </trkpt>
      <trkpt lat="48.66725" lon="7.72065">
        <ele>140</ele>
        <time>2016-07-03T10:46:21Z</time>
      </trkpt>
      <trkpt lat="48.66723" lon="7.72073">
        <ele>140</ele>
        <time>2016-07-03T10:48:21Z</time>
      </trkpt>
      <trkpt lat="48.66722" lon="7.7208">
        <ele>140</ele>
        <time>2016-07-03T10:50:21Z</time>
      </trkpt>
      <trkpt lat="48.66719" lon="7.72086">
        <ele>140</ele>
        <time>2016-07-03T10:52:21Z</time>
      </trkpt>
      <trkpt lat="48.66714" lon="7.72092">
        <ele>140</ele>
        <time>2016-07-03T10:54:21Z</time>
      </trkpt>
      <trkpt lat="48.66688" lon="7.72121">
        <ele>140</ele>
        <time>2016-07-03T10:56:21Z</time>
      </trkpt>
      <trkpt lat="48.66661" lon="7.72151">
        <ele>140</ele>
        <time>2016-07-03T10:58:21Z</time>
      </trkpt>
      <trkpt lat="48.66636" lon="7.72179">
        <ele>140</ele>
        <time>2016-07-03T11:00:21Z</time>
      </trkpt>
      <trkpt lat="48.66621" lon="7.72197">
        <ele>140</ele>
        <time>2016-07-03T11:02:21Z</time>
      </trkpt>
      <trkpt lat="48.6654" lon="7.72284">
        <ele>141</ele>
        <time>2016-07-03T11:04:21Z</time>
      </trkpt>
      <trkpt lat="48.66485" lon="7.72348">
        <ele>140</ele>
        <time>2016-07-03T11:06:21Z</time>
      </trkpt>
      <trkpt lat="48.66449" lon="7.72388">
        <ele>141</ele>
        <time>2016-07-03T11:08:21Z</time>
      </trkpt>
      <trkpt lat="48.66413" lon="7.72429">
        <ele>142</ele>
        <time>2016-07-03T11:10:21Z</time>
      </trkpt>
      <trkpt lat="48.66322" lon="7.72527">
        <ele>141</ele>
        <time>2016-07-03T11:12:21Z</time>
      </trkpt>
      <trkpt lat="48.66257" lon="7.72599">
        <ele>140</ele>
        <time>2016-07-03T11:14:21Z</time>
      </trkpt>
      <trkpt lat="48.66201" lon="7.72664">
        <ele>139</ele>
        <time>2016-07-03T11:16:21Z</time>
      </trkpt>
      <trkpt lat="48.66054" lon="7.72829">
        <ele>141</ele>
        <time>2016-07-03T11:18:21Z</time>
      </trkpt>
      <trkpt lat="48.65969" lon="7.72921">
        <ele>142</ele>
        <time>2016-07-03T11:20:21Z</time>
      </trkpt>
      <trkpt lat="48.65924" lon="7.72971">
        <ele>143</ele>
        <time>2016-07-03T11:22:21Z</time>
      </trkpt>
      <trkpt lat="48.65862" lon="7.73029">
        <ele>141</ele>
        <time>2016-07-03T11:24:21Z</time>
      </trkpt>
      <trkpt lat="48.65856" lon="7.73033">
        <ele>141</ele>
        <time>2016-07-03T11:26:21Z</time>
      </trkpt>
      <trkpt lat="48.65849" lon="7.73036">
        <ele>141</ele>
        <time>2016-07-03T11:28:21Z</time>
      </trkpt>
      <trkpt lat="48.65838" lon="7.73044">
        <ele>140</ele>
        <time>2016-07-03T11:30:21Z</time>
      </trkpt>
      <trkpt lat="48.65828" lon="7.73054">
        <ele>140</ele>
        <time>2016-07-03T11:32:21Z</time>
      </trkpt>
      <trkpt lat="48.65814" lon="7.73068">
        <ele>140</ele>
        <time>2016-07-03T11:34:21Z</time>
      </trkpt>
      <trkpt lat="48.65808" lon="7.73076">
        <ele>139</ele>
        <time>2016-07-03T11:36:21Z</time>
      </trkpt>
      <trkpt lat="48.65803" lon="7.73084">
        <ele>139</ele>
        <time>2016-07-03T11:38:21Z</time>
      </trkpt>
      <trkpt lat="48.65801" lon="7.73086">
        <ele>139</ele>
        <time>2016-07-03T11:40:21Z</time>
      </trkpt>
      <trkpt lat="48.65796" lon="7.73091">
        <ele>139</ele>
        <time>2016-07-03T11:42:21Z</time>
      </trkpt>
      <trkpt lat="48.65794" lon="7.73093">
        <ele>139</ele>
        <time>2016-07-03T11:44:21Z</time>
      </trkpt>
      <trkpt lat="48.65778" lon="7.73108">
        <ele>139</ele>
        <time>2016-07-03T11:46:21Z</time>
      </trkpt>
      <trkpt lat="48.6575" lon="7.73133">
        <ele>138</ele>
        <time>2016-07-03T11:48:21Z</time>
      </trkpt>
      <trkpt lat="48.6573" lon="7.73151">
        <ele>138</ele>
        <time>2016-07-03T11:50:21Z</time>
      </trkpt>
      <trkpt lat="48.65701" lon="7.73178">
        <ele>138</ele>
        <time>2016-07-03T11:52:21Z</time>
      </trkpt>
      <trkpt lat="48.65698" lon="7.7318">
        <ele>138</ele>
        <time>2016-07-03T11:54:21Z</time>
      </trkpt>
      <trkpt lat="48.65674" lon="7.73201">
        <ele>137</ele>
        <time>2016-07-03T11:56:21Z</time>
      </trkpt>
      <trkpt lat="48.65645" lon="7.73227">
        <ele>137</ele>
        <time>2016-07-03T11:58:21Z</time>
      </trkpt>
      <trkpt lat="48.65637" lon="7.73234">
        <ele>137</ele>
        <time>2016-07-03T12:00:21Z</time>
      </trkpt>
      <trkpt lat="48.65597" lon="7.7327">
        <ele>137</ele>
        <time>2016-07-03T12:02:21Z</time>
      </trkpt>
      <trkpt lat="48.65594" lon="7.73273">
        <ele>137</ele>
        <time>2016-07-03T12:04:21Z</time>
      </trkpt>
      <trkpt lat="48.65556" lon="7.73307">
        <ele>137</ele>
        <time>2016-07-03T12:06:21Z</time>
      </trkpt>
      <trkpt lat="48.65513" lon="7.73345">
        <ele>138</ele>
        <time>2016-07-03T12:08:21Z</time>
      </trkpt>
      <trkpt lat="48.65493" lon="7.73362">
        <ele>138</ele>
        <time>2016-07-03T12:10:21Z</time>
      </trkpt>
      <trkpt lat="48.65477" lon="7.73378">
        <ele>138</ele>
        <time>2016-07-03T12:12:21Z</time>
      </trkpt>
      <trkpt lat="48.65447" lon="7.73404">
        <ele>138</ele>
        <time>2016-07-03T12:14:21Z</time>
      </trkpt>
      <trkpt lat="48.65425" lon="7.73424">
        <ele>138</ele>
        <time>2016-07-03T12:16:21Z</time>
      </trkpt>
      <trkpt lat="48.654" lon="7.73446">
        <ele>138</ele>
        <time>2016-07-03T12:18:21Z</time>
      </trkpt>
      <trkpt lat="48.65397" lon="7.73449">
        <ele>138</ele>
        <time>2016-07-03T12:20:21Z</time>
      </trkpt>
      <trkpt lat="48.65352" lon="7.73487">
        <ele>138</ele>
        <time>2016-07-03T12:22:21Z</time>
      </trkpt>
      <trkpt lat="48.65329" lon="7.73508">
        <ele>138</ele>
        <time>2016-07-03T12:24:21Z</time>
      </trkpt>
      <trkpt lat="48.65287" lon="7.73546">
        <ele>140</ele>
        <time>2016-07-03T12:26:21Z</time>
      </trkpt>
      <trkpt lat="48.65282" lon="7.73552">
        <ele>140</ele>
        <time>2016-07-03T12:28:21Z</time>
      </trkpt>
      <trkpt lat="48.65275" lon="7.73557">
        <ele>140</ele>
        <time>2016-07-03T12:30:21Z</time>
      </trkpt>
      <trkpt lat="48.6527" lon="7.73562">
        <ele>140</ele>
        <time>2016-07-03T12:32:21Z</time>
      </trkpt>
      <trkpt lat="48.65266" lon="7.73565">
        <ele>140</ele>
        <time>2016-07-03T12:34:21Z</time>
      </trkpt>
      <trkpt lat="48.65259" lon="7.73571">
        <ele>140</ele>
        <time>2016-07-03T12:36:21Z</time>
      </trkpt>
      <trkpt lat="48.65251" lon="7.73579">
        <ele>140</ele>
        <time>2016-07-03T12:38:21Z</time>
      </trkpt>
      <trkpt lat="48.65165" lon="7.73653">
        <ele>140</ele>
        <time>2016-07-03T12:40:21Z</time>
      </trkpt>
      <trkpt lat="48.65099" lon="7.73712">
        <ele>139</ele>
        <time>2016-07-03T12:42:21Z</time>
      </trkpt>
      <trkpt lat="48.65072" lon="7.73738">
        <ele>139</ele>
        <time>2016-07-03T12:44:21Z</time>
      </trkpt>
      <trkpt lat="48.65061" lon="7.73747">
        <ele>139</ele>
        <time>2016-07-03T12:46:21Z</time>
      </trkpt>
      <trkpt lat="48.65033" lon="7.73774">
        <ele>140</ele>
        <time>2016-07-03T12:48:21Z</time>
      </trkpt>
      <trkpt lat="48.65004" lon="7.738">
        <ele>140</ele>
        <time>2016-07-03T12:50:21Z</time>
      </trkpt>
      <trkpt lat="48.64963" lon="7.73837">
        <ele>140</ele>
        <time>2016-07-03T12:52:21Z</time>
      </trkpt>
      <trkpt lat="48.64924" lon="7.73873">
        <ele>140</ele>
        <time>2016-07-03T12:54:21Z</time>
      </trkpt>
      <trkpt lat="48.64907" lon="7.73886">
        <ele>141</ele>
        <time>2016-07-03T12:56:21Z</time>
      </trkpt>
      <trkpt lat="48.64883" lon="7.73908">
        <ele>141</ele>
        <time>2016-07-03T12:58:21Z</time>
      </trkpt>
      <trkpt lat="48.64854" lon="7.73934">
        <ele>142</ele>
        <time>2016-07-03T13:00:21Z</time>
      </trkpt>
      <trkpt lat="48.64842" lon="7.73946">
        <ele>141</ele>
        <time>2016-07-03T13:02:21Z</time>
      </trkpt>
      <trkpt lat="48.64822" lon="7.73962">
        <ele>141</ele>
        <time>2016-07-03T13:04:21Z</time>
      </trkpt>
      <trkpt lat="48.64816" lon="7.73967">
        <ele>140</ele>
        <time>2016-07-03T13:06:21Z</time>
      </trkpt>
      <trkpt lat="48.64788" lon="7.73989">
        <ele>140</ele>
        <time>2016-07-03T13:08:21Z</time>
      </trkpt>
      <trkpt lat="48.64774" lon="7.73999">
        <ele>140</ele>
        <time>2016-07-03T13:10:21Z</time>
      </trkpt>
      <trkpt lat="48.64773" lon="7.73999">
        <ele>140</ele>
        <time>2016-07-03T13:12:21Z</time>
      </trkpt>
      <trkpt lat="48.64765" lon="7.74005">
        <ele>140</ele>
        <time>2016-07-03T13:14:21Z</time>
      </trkpt>
      <trkpt lat="48.6476" lon="7.7401">
        <ele>140</ele>
        <time>2016-07-03T13:16:21Z</time>
      </trkpt>
      <trkpt lat="48.64756" lon="7.74015">
        <ele>140</ele>
        <time>2016-07-03T13:18:21Z</time>
      </trkpt>
      <trkpt lat="48.64749" lon="7.74024">
        <ele>140</ele>
        <time>2016-07-03T13:20:21Z</time>
      </trkpt>
      <trkpt lat="48.64741" lon="7.74033">
        <ele>140</ele>
        <time>2016-07-03T13:22:21Z</time>
      </trkpt>
      <trkpt lat="48.64731" lon="7.74043">
        <ele>140</ele>
        <time>2016-07-03T13:24:21Z</time>
      </trkpt>
      <trkpt lat="48.64708" lon="7.74064">
        <ele>139</ele>
        <time>2016-07-03T13:26:21Z</time>
      </trkpt>
      <trkpt lat="48.64648" lon="7.74115">
        <ele>137</ele>
        <time>2016-07-03T13:28:21Z</time>
      </trkpt>
      <trkpt lat="48.64593" lon="7.74165">
        <ele>138</ele>
        <time>2016-07-03T13:30:21Z</time>
      </trkpt>
      <trkpt lat="48.64531" lon="7.74218">
        <ele>138</ele>
        <time>2016-07-03T13:32:21Z</time>
      </trkpt>
      <trkpt lat="48.64466" lon="7.74276">
        <ele>138</ele>
        <time>2016-07-03T13:34:21Z</time>
      </trkpt>
      <trkpt lat="48.64406" lon="7.74331">
        <ele>138</ele>
        <time>2016-07-03T13:36:21Z</time>
      </trkpt>
      <trkpt lat="48.64384" lon="7.74352">
        <ele>138</ele>
        <time>2016-07-03T13:38:21Z</time>
      </trkpt>
      <trkpt lat="48.64374" lon="7.74365">
        <ele>138</ele>
        <time>2016-07-03T13:40:21Z</time>
      </trkpt>
      <trkpt lat="48.64365" lon="7.74375">
        <ele>138</ele>
        <time>2016-07-03T13:42:21Z</time>
      </trkpt>
      <trkpt lat="48.64358" lon="7.74382">
        <ele>138</ele>
        <time>2016-07-03T13:44:21Z</time>
      </trkpt>
      <trkpt lat="48.64339" lon="7.74392">
        <ele>138</ele>
        <time>2016-07-03T13:46:21Z</time>
      </trkpt>
      <trkpt lat="48.64331" lon="7.74397">
        <ele>138</ele>
        <time>2016-07-03T13:48:21Z</time>
      </trkpt>
      <trkpt lat="48.64322" lon="7.74405">
        <ele>138</ele>
        <time>2016-07-03T13:50:21Z</time>
      </trkpt>
      <trkpt lat="48.64222" lon="7.74496">
        <ele>137</ele>
        <time>2016-07-03T13:52:21Z</time>
      </trkpt>
      <trkpt lat="48.64179" lon="7.74536">
        <ele>139</ele>
        <time>2016-07-03T13:54:21Z</time>
      </trkpt>
      <trkpt lat="48.64126" lon="7.74584">
        <ele>140</ele>
        <time>2016-07-03T13:56:21Z</time>
      </trkpt>
      <trkpt lat="48.64066" lon="7.74637">
        <ele>138</ele>
        <time>2016-07-03T13:58:21Z</time>
      </trkpt>
      <trkpt lat="48.64016" lon="7.74682">
        <ele>137</ele>
        <time>2016-07-03T14:00:21Z</time>
      </trkpt>
      <trkpt lat="48.63983" lon="7.7471">
        <ele>136</ele>
        <time>2016-07-03T14:02:21Z</time>
      </trkpt>
      <trkpt lat="48.63907" lon="7.7478">
        <ele>134</ele>
        <time>2016-07-03T14:04:21Z</time>
      </trkpt>
      <trkpt lat="48.63858" lon="7.74822">
        <ele>136</ele>
        <time>2016-07-03T14:06:21Z</time>
      </trkpt>
      <trkpt lat="48.63784" lon="7.7489">
        <ele>137</ele>
        <time>2016-07-03T14:08:21Z</time>
      </trkpt>
      <trkpt lat="48.63763" lon="7.74908">
        <ele>138</ele>
        <time>2016-07-03T14:10:21Z</time>
      </trkpt>
      <trkpt lat="48.63737" lon="7.74929">
        <ele>138</ele>
        <time>2016-07-03T14:12:21Z</time>
      </trkpt>
      <trkpt lat="48.63712" lon="7.74948">
        <ele>138</ele>
        <time>2016-07-03T14:14:21Z</time>
      </trkpt>
      <trkpt lat="48.63691" lon="7.7496">
        <ele>138</ele>
        <time>2016-07-03T14:16:21Z</time>
      </trkpt>
      <trkpt lat="48.63635" lon="7.74997">
        <ele>138</ele>
        <time>2016-07-03T14:18:21Z</time>
      </trkpt>
      <trkpt lat="48.6361" lon="7.75014">
        <ele>137</ele>
        <time>2016-07-03T14:20:21Z</time>
      </trkpt>
      <trkpt lat="48.63589" lon="7.75029">
        <ele>135</ele>
        <time>2016-07-03T14:22:21Z</time>
      </trkpt>
      <trkpt lat="48.63555" lon="7.75054">
        <ele>135</ele>
        <time>2016-07-03T14:24:21Z</time>
      </trkpt>
      <trkpt lat="48.63536" lon="7.75073">
        <ele>136</ele>
        <time>2016-07-03T14:26:21Z</time>
      </trkpt>
      <trkpt lat="48.63528" lon="7.75082">
        <ele>136</ele>
        <time>2016-07-03T14:28:21Z</time>
      </trkpt>
      <trkpt lat="48.63518" lon="7.75094">
        <ele>136</ele>
        <time>2016-07-03T14:30:21Z</time>
      </trkpt>
      <trkpt lat="48.63515" lon="7.75097">
        <ele>136</ele>
        <time>2016-07-03T14:32:21Z</time>
      </trkpt>
      <trkpt lat="48.63515" lon="7.75097">
        <ele>136</ele>
        <time>2016-07-03T14:34:21Z</time>
      </trkpt>
      <trkpt lat="48.63506" lon="7.75106">
        <ele>136</ele>
        <time>2016-07-03T14:36:21Z</time>
      </trkpt>
      <trkpt lat="48.63495" lon="7.75121">
        <ele>136</ele>
        <time>2016-07-03T14:38:21Z</time>
      </trkpt>
      <trkpt lat="48.6348" lon="7.75145">
        <ele>136</ele>
        <time>2016-07-03T14:40:21Z</time>
      </trkpt>
      <trkpt lat="48.63441" lon="7.75216">
        <ele>139</ele>
        <time>2016-07-03T14:42:21Z</time>
      </trkpt>
      <trkpt lat="48.63437" lon="7.75222">
        <ele>139</ele>
        <time>2016-07-03T14:44:21Z</time>
      </trkpt>
      <trkpt lat="48.63435" lon="7.75224">
        <ele>139</ele>
        <time>2016-07-03T14:46:21Z</time>
      </trkpt>
      <trkpt lat="48.63431" lon="7.75226">
        <ele>139</ele>
        <time>2016-07-03T14:48:21Z</time>
      </trkpt>
      <trkpt lat="48.63424" lon="7.7523">
        <ele>140</ele>
        <time>2016-07-03T14:50:21Z</time>
      </trkpt>
      <trkpt lat="48.6342" lon="7.75231">
        <ele>140</ele>
        <time>2016-07-03T14:52:21Z</time>
      </trkpt>
      <trkpt lat="48.63416" lon="7.75231">
        <ele>140</ele>
        <time>2016-07-03T14:54:21Z</time>
      </trkpt>
      <trkpt lat="48.63392" lon="7.75231">
        <ele>140</ele>
        <time>2016-07-03T14:56:21Z</time>
      </trkpt>
      <trkpt lat="48.63392" lon="7.75231">
        <ele>140</ele>
        <time>2016-07-03T14:58:21Z</time>
      </trkpt>
      <trkpt lat="48.63373" lon="7.75304">
        <ele>139</ele>
        <time>2016-07-03T15:00:21Z</time>
      </trkpt>
      <trkpt lat="48.63363" lon="7.75335">
        <ele>139</ele>
        <time>2016-07-03T15:02:21Z</time>
      </trkpt>
      <trkpt lat="48.63355" lon="7.75353">
        <ele>138</ele>
        <time>2016-07-03T15:04:21Z</time>
      </trkpt>
      <trkpt lat="48.63353" lon="7.75357">
        <ele>138</ele>
        <time>2016-07-03T15:06:21Z</time>
      </trkpt>
      <trkpt lat="48.63339" lon="7.75386">
        <ele>137</ele>
        <time>2016-07-03T15:08:21Z</time>
      </trkpt>
      <trkpt lat="48.63332" lon="7.75404">
        <ele>136</ele>
        <time>2016-07-03T15:10:21Z</time>
      </trkpt>
      <trkpt lat="48.63332" lon="7.75404">
        <ele>136</ele>
        <time>2016-07-03T15:12:21Z</time>
      </trkpt>
      <trkpt lat="48.63342" lon="7.75405">
        <ele>136</ele>
        <time>2016-07-03T15:14:21Z</time>
      </trkpt>
      <trkpt lat="48.63344" lon="7.75406">
        <ele>136</ele>
        <time>2016-07-03T15:16:21Z</time>
      </trkpt>
      <trkpt lat="48.63347" lon="7.75406">
        <ele>137</ele>
        <time>2016-07-03T15:18:21Z</time>
      </trkpt>
      <trkpt lat="48.63358" lon="7.75407">
        <ele>137</ele>
        <time>2016-07-03T15:20:21Z</time>
      </trkpt>
      <trkpt lat="48.63366" lon="7.75408">
        <ele>137</ele>
        <time>2016-07-03T15:22:21Z</time>
      </trkpt>
      <trkpt lat="48.63377" lon="7.75409">
        <ele>137</ele>
        <time>2016-07-03T15:24:21Z</time>
      </trkpt>
      <trkpt lat="48.63377" lon="7.75409">
        <ele>137</ele>
        <time>2016-07-03T15:26:21Z</time>
      </trkpt>
      <trkpt lat="48.63361" lon="7.75431">
        <ele>136</ele>
        <time>2016-07-03T15:28:21Z</time>
      </trkpt>
      <trkpt lat="48.63354" lon="7.75441">
        <ele>135</ele>
        <time>2016-07-03T15:30:21Z</time>
      </trkpt>
      <trkpt lat="48.6334" lon="7.7546">
        <ele>135</ele>
        <time>2016-07-03T15:32:21Z</time>
      </trkpt>
      <trkpt lat="48.63329" lon="7.75477">
        <ele>134</ele>
        <time>2016-07-03T15:34:21Z</time>
      </trkpt>
      <trkpt lat="48.63309" lon="7.75502">
        <ele>134</ele>
        <time>2016-07-03T15:36:21Z</time>
      </trkpt>
      <trkpt lat="48.63295" lon="7.75518">
        <ele>135</ele>
        <time>2016-07-03T15:38:21Z</time>
      </trkpt>
      <trkpt lat="48.63272" lon="7.7554">
        <ele>136</ele>
        <time>2016-07-03T15:40:21Z</time>
      </trkpt>
      <trkpt lat="48.63258" lon="7.75551">
        <ele>137</ele>
        <time>2016-07-03T15:42:21Z</time>
      </trkpt>
      <trkpt lat="48.63248" lon="7.7556">
        <ele>137</ele>
        <time>2016-07-03T15:44:21Z</time>
      </trkpt>
      <trkpt lat="48.63234" lon="7.7557">
        <ele>137</ele>
        <time>2016-07-03T15:46:21Z</time>
      </trkpt>
      <trkpt lat="48.63209" lon="7.75585">
        <ele>137</ele>
        <time>2016-07-03T15:48:21Z</time>
      </trkpt>
      <trkpt lat="48.63167" lon="7.75603">
        <ele>136</ele>
        <time>2016-07-03T15:50:21Z</time>
      </trkpt>
      <trkpt lat="48.63157" lon="7.75606">
        <ele>136</ele>
        <time>2016-07-03T15:52:21Z</time>
      </trkpt>
      <trkpt lat="48.63126" lon="7.75609">
        <ele>137</ele>
        <time>2016-07-03T15:54:21Z</time>
      </trkpt>
      <trkpt lat="48.63108" lon="7.7561">
        <ele>137</ele>
        <time>2016-07-03T15:56:21Z</time>
      </trkpt>
      <trkpt lat="48.63079" lon="7.7561">
        <ele>138</ele>
        <time>2016-07-03T15:58:21Z</time>
      </trkpt>
      <trkpt lat="48.63048" lon="7.75604">
        <ele>137</ele>
        <time>2016-07-03T16:00:21Z</time>
      </trkpt>
      <trkpt lat="48.6302" lon="7.75594">
        <ele>137</ele>
        <time>2016-07-03T16:02:21Z</time>
      </trkpt>
      <trkpt lat="48.62983" lon="7.75573">
        <ele>137</ele>
        <time>2016-07-03T16:04:21Z</time>
      </trkpt>
      <trkpt lat="48.6297" lon="7.75564">
        <ele>138</ele>
        <time>2016-07-03T16:06:21Z</time>
      </trkpt>
      <trkpt lat="48.6295" lon="7.75548">
        <ele>138</ele>
        <time>2016-07-03T16:08:21Z</time>
      </trkpt>
      <trkpt lat="48.62935" lon="7.75533">
        <ele>138</ele>
        <time>2016-07-03T16:10:21Z</time>
      </trkpt>
      <trkpt lat="48.62884" lon="7.75478">
        <ele>139</ele>
        <time>2016-07-03T16:12:21Z</time>
      </trkpt>
      <trkpt lat="48.62855" lon="7.75457">
        <ele>139</ele>
        <time>2016-07-03T16:14:21Z</time>
      </trkpt>
      <trkpt lat="48.62843" lon="7.75451">
        <ele>139</ele>
        <time>2016-07-03T16:16:21Z</time>
      </trkpt>
      <trkpt lat="48.62828" lon="7.75445">
        <ele>139</ele>
        <time>2016-07-03T16:18:21Z</time>
      </trkpt>
      <trkpt lat="48.62819" lon="7.75441">
        <ele>139</ele>
        <time>2016-07-03T16:20:21Z</time>
      </trkpt>
      <trkpt lat="48.62796" lon="7.75436">
        <ele>138</ele>
        <time>2016-07-03T16:22:21Z</time>
      </trkpt>
      <trkpt lat="48.62758" lon="7.7543">
        <ele>138</ele>
        <time>2016-07-03T16:24:21Z</time>
      </trkpt>
      <trkpt lat="48.62737" lon="7.75432">
        <ele>138</ele>
        <time>2016-07-03T16:26:21Z</time>
      </trkpt>
      <trkpt lat="48.62726" lon="7.75434">
        <ele>138</ele>
        <time>2016-07-03T16:28:21Z</time>
      </trkpt>
      <trkpt lat="48.62714" lon="7.75437">
        <ele>138</ele>
        <time>2016-07-03T16:30:21Z</time>
      </trkpt>
      <trkpt lat="48.62699" lon="7.75443">
        <ele>138</ele>
        <time>2016-07-03T16:32:21Z</time>
      </trkpt>
      <trkpt lat="48.6269" lon="7.75445">
        <ele>138</ele>
        <time>2016-07-03T16:34:21Z</time>
      </trkpt>
      <trkpt lat="48.62686" lon="7.75445">
        <ele>138</ele>
        <time>2016-07-03T16:36:21Z</time>
      </trkpt>
      <trkpt lat="48.62685" lon="7.75445">
        <ele>138</ele>
        <time>2016-07-03T16:38:21Z</time>
      </trkpt>
      <trkpt lat="48.62682" lon="7.75443">
        <ele>139</ele>
        <time>2016-07-03T16:40:21Z</time>
      </trkpt>
      <trkpt lat="48.62681" lon="7.75443">
        <ele>139</ele>
        <time>2016-07-03T16:42:21Z</time>
      </trkpt>
      <trkpt lat="48.6268" lon="7.75442">
        <ele>139</ele>
        <time>2016-07-03T16:44:21Z</time>
      </trkpt>
      <trkpt lat="48.62679" lon="7.75442">
        <ele>139</ele>
        <time>2016-07-03T16:46:21Z</time>
      </trkpt>
      <trkpt lat="48.62673" lon="7.75443">
        <ele>139</ele>
        <time>2016-07-03T16:48:21Z</time>
      </trkpt>
      <trkpt lat="48.62671" lon="7.75444">
        <ele>139</ele>
        <time>2016-07-03T16:50:21Z</time>
      </trkpt>
      <trkpt lat="48.6267" lon="7.75445">
        <ele>139</ele>
        <time>2016-07-03T16:52:21Z</time>
      </trkpt>
      <trkpt lat="48.62666" lon="7.75448">
        <ele>138</ele>
        <time>2016-07-03T16:54:21Z</time>
      </trkpt>
      <trkpt lat="48.62665" lon="7.7545">
        <ele>138</ele>
        <time>2016-07-03T16:56:21Z</time>
      </trkpt>
      <trkpt lat="48.62664" lon="7.75451">
        <ele>138</ele>
        <time>2016-07-03T16:58:21Z</time>
      </trkpt>
      <trkpt lat="48.62662" lon="7.75453">
        <ele>138</ele>
        <time>2016-07-03T17:00:21Z</time>
      </trkpt>
      <trkpt lat="48.62659" lon="7.7546">
        <ele>138</ele>
        <time>2016-07-03T17:02:21Z</time>
      </trkpt>
      <trkpt lat="48.62658" lon="7.75462">
        <ele>138</ele>
        <time>2016-07-03T17:04:21Z</time>
      </trkpt>
      <trkpt lat="48.62656" lon="7.75464">
        <ele>138</ele>
        <time>2016-07-03T17:06:21Z</time>
      </trkpt>
      <trkpt lat="48.62645" lon="7.75475">
        <ele>137</ele>
        <time>2016-07-03T17:08:21Z</time>
      </trkpt>
      <trkpt lat="48.62634" lon="7.75483">
        <ele>137</ele>
        <time>2016-07-03T17:10:21Z</time>
      </trkpt>
      <trkpt lat="48.62618" lon="7.75499">
        <ele>136</ele>
        <time>2016-07-03T17:12:21Z</time>
      </trkpt>
      <trkpt lat="48.62602" lon="7.75517">
        <ele>136</ele>
        <time>2016-07-03T17:14:21Z</time>
      </trkpt>
      <trkpt lat="48.62598" lon="7.75522">
        <ele>136</ele>
        <time>2016-07-03T17:16:21Z</time>
      </trkpt>
      <trkpt lat="48.62598" lon="7.75522">
        <ele>136</ele>
        <time>2016-07-03T17:18:21Z</time>
      </trkpt>
      <trkpt lat="48.62583" lon="7.7554">
        <ele>136</ele>
        <time>2016-07-03T17:20:21Z</time>
      </trkpt>
      <trkpt lat="48.62579" lon="7.75545">
        <ele>136</ele>
        <time>2016-07-03T17:22:21Z</time>
      </trkpt>
      <trkpt lat="48.62573" lon="7.75548">
        <ele>136</ele>
        <time>2016-07-03T17:24:21Z</time>
      </trkpt>
      <trkpt lat="48.62568" lon="7.7555">
        <ele>136</ele>
        <time>2016-07-03T17:26:21Z</time>
      </trkpt>
      <trkpt lat="48.62566" lon="7.75552">
        <ele>136</ele>
        <time>2016-07-03T17:28:21Z</time>
      </trkpt>
      <trkpt lat="48.62564" lon="7.75553">
        <ele>136</ele>
        <time>2016-07-03T17:30:21Z</time>
      </trkpt>
      <trkpt lat="48.62558" lon="7.7556">
        <ele>136</ele>
        <time>2016-07-03T17:32:21Z</time>
      </trkpt>
      <trkpt lat="48.62556" lon="7.75562">
        <ele>136</ele>
        <time>2016-07-03T17:34:21Z</time>
      </trkpt>
      <trkpt lat="48.62556" lon="7.75568">
        <ele>136</ele>
        <time>2016-07-03T17:36:21Z</time>
      </trkpt>
      <trkpt lat="48.62555" lon="7.75573">
        <ele>136</ele>
        <time>2016-07-03T17:38:21Z</time>
      </trkpt>
      <trkpt lat="48.62553" lon="7.75578">
        <ele>136</ele>
        <time>2016-07-03T17:40:21Z</time>
      </trkpt>
      <trkpt lat="48.62476" lon="7.75684">
        <ele>135</ele>
        <time>2016-07-03T17:42:21Z</time>
      </trkpt>
      <trkpt lat="48.62428" lon="7.75746">
        <ele>136</ele>
        <time>2016-07-03T17:44:21Z</time>
      </trkpt>
      <trkpt lat="48.62415" lon="7.75762">
        <ele>136</ele>
        <time>2016-07-03T17:46:21Z</time>
      </trkpt>
      <trkpt lat="48.62357" lon="7.7584">
        <ele>134</ele>
        <time>2016-07-03T17:48:21Z</time>
      </trkpt>
      <trkpt lat="48.6234" lon="7.75864">
        <ele>134</ele>
        <time>2016-07-03T17:50:21Z</time>
      </trkpt>
      <trkpt lat="48.62339" lon="7.75865">
        <ele>134</ele>
        <time>2016-07-03T17:52:21Z</time>
      </trkpt>
      <trkpt lat="48.62314" lon="7.75896">
        <ele>135</ele>
        <time>2016-07-03T17:54:21Z</time>
      </trkpt>
      <trkpt lat="48.62266" lon="7.75957">
        <ele>138</ele>
        <time>2016-07-03T17:56:21Z</time>
      </trkpt>
      <trkpt lat="48.6221" lon="7.76021">
        <ele>136</ele>
        <time>2016-07-03T17:58:21Z</time>
      </trkpt>
      <trkpt lat="48.62202" lon="7.76028">
        <ele>136</ele>
        <time>2016-07-03T18:00:21Z</time>
      </trkpt>
      <trkpt lat="48.62194" lon="7.76035">
        <ele>136</ele>
        <time>2016-07-03T18:02:21Z</time>
      </trkpt>
      <trkpt lat="48.62133" lon="7.76078">
        <ele>136</ele>
        <time>2016-07-03T18:04:21Z</time>
      </trkpt>
      <trkpt lat="48.62129" lon="7.7608">
        <ele>136</ele>
        <time>2016-07-03T18:06:21Z</time>
      </trkpt>
      <trkpt lat="48.62126" lon="7.76082">
        <ele>136</ele>
        <time>2016-07-03T18:08:21Z</time>
      </trkpt>
      <trkpt lat="48.62124" lon="7.76083">
        <ele>137</ele>
        <time>2016-07-03T18:10:21Z</time>
      </trkpt>
      <trkpt lat="48.62115" lon="7.76088">
        <ele>137</ele>
        <time>2016-07-03T18:12:21Z</time>
      </trkpt>
      <trkpt lat="48.62103" lon="7.76094">
        <ele>137</ele>
        <time>2016-07-03T18:14:21Z</time>
      </trkpt>
      <trkpt lat="48.6209" lon="7.761">
        <ele>137</ele>
        <time>2016-07-03T18:16:21Z</time>
      </trkpt>
      <trkpt lat="48.62075" lon="7.76105">
        <ele>137</ele>
        <time>2016-07-03T18:18:21Z</time>
      </trkpt>
      <trkpt lat="48.62062" lon="7.76109">
        <ele>136</ele>
        <time>2016-07-03T18:20:21Z</time>
      </trkpt>
      <trkpt lat="48.6205" lon="7.76112">
        <ele>136</ele>
        <time>2016-07-03T18:22:21Z</time>
      </trkpt>
      <trkpt lat="48.62041" lon="7.76114">
        <ele>136</ele>
        <time>2016-07-03T18:24:21Z</time>
      </trkpt>
      <trkpt lat="48.62015" lon="7.76119">
        <ele>135</ele>
        <time>2016-07-03T18:26:21Z</time>
      </trkpt>
      <trkpt lat="48.6197" lon="7.76123">
        <ele>135</ele>
        <time>2016-07-03T18:28:21Z</time>
      </trkpt>
      <trkpt lat="48.61944" lon="7.76127">
        <ele>135</ele>
        <time>2016-07-03T18:30:21Z</time>
      </trkpt>
      <trkpt lat="48.61806" lon="7.76146">
        <ele>135</ele>
        <time>2016-07-03T18:32:21Z</time>
      </trkpt>
      <trkpt lat="48.61654" lon="7.76167">
        <ele>136</ele>
        <time>2016-07-03T18:34:21Z</time>
      </trkpt>
      <trkpt lat="48.61524" lon="7.76185">
        <ele>136</ele>
        <time>2016-07-03T18:36:21Z</time>
      </trkpt>
      <trkpt lat="48.61388" lon="7.76202">
        <ele>137</ele>
        <time>2016-07-03T18:38:21Z</time>
      </trkpt>
      <trkpt lat="48.61382" lon="7.76202">
        <ele>137</ele>
        <time>2016-07-03T18:40:21Z</time>
      </trkpt>
      <trkpt lat="48.6138" lon="7.76202">
        <ele>137</ele>
        <time>2016-07-03T18:42:21Z</time>
      </trkpt>
      <trkpt lat="48.61373" lon="7.76203">
        <ele>137</ele>
        <time>2016-07-03T18:44:21Z</time>
      </trkpt>
      <trkpt lat="48.61369" lon="7.76203">
        <ele>137</ele>
        <time>2016-07-03T18:46:21Z</time>
      </trkpt>
      <trkpt lat="48.61354" lon="7.76206">
        <ele>137</ele>
        <time>2016-07-03T18:48:21Z</time>
      </trkpt>
      <trkpt lat="48.61344" lon="7.76208">
        <ele>137</ele>
        <time>2016-07-03T18:50:21Z</time>
      </trkpt>
      <trkpt lat="48.61264" lon="7.76217">
        <ele>135</ele>
        <time>2016-07-03T18:52:21Z</time>
      </trkpt>
      <trkpt lat="48.61185" lon="7.76228">
        <ele>135</ele>
        <time>2016-07-03T18:54:21Z</time>
      </trkpt>
      <trkpt lat="48.6111" lon="7.76238">
        <ele>136</ele>
        <time>2016-07-03T18:56:21Z</time>
      </trkpt>
      <trkpt lat="48.61039" lon="7.76247">
        <ele>136</ele>
        <time>2016-07-03T18:58:21Z</time>
      </trkpt>
      <trkpt lat="48.61018" lon="7.7625">
        <ele>136</ele>
        <time>2016-07-03T19:00:21Z</time>
      </trkpt>
      <trkpt lat="48.60978" lon="7.76255">
        <ele>136</ele>
        <time>2016-07-03T19:02:21Z</time>
      </trkpt>
      <trkpt lat="48.60907" lon="7.76264">
        <ele>138</ele>
        <time>2016-07-03T19:04:21Z</time>
      </trkpt>
      <trkpt lat="48.6083" lon="7.76274">
        <ele>141</ele>
        <time>2016-07-03T19:06:21Z</time>
      </trkpt>
      <trkpt lat="48.60805" lon="7.76278">
        <ele>140</ele>
        <time>2016-07-03T19:08:21Z</time>
      </trkpt>
      <trkpt lat="48.60776" lon="7.76283">
        <ele>139</ele>
        <time>2016-07-03T19:10:21Z</time>
      </trkpt>
      <trkpt lat="48.60762" lon="7.76285">
        <ele>139</ele>
        <time>2016-07-03T19:12:21Z</time>
      </trkpt>
      <trkpt lat="48.60753" lon="7.76286">
        <ele>139</ele>
        <time>2016-07-03T19:14:21Z</time>
      </trkpt>
      <trkpt lat="48.60752" lon="7.76286">
        <ele>139</ele>
        <time>2016-07-03T19:16:21Z</time>
      </trkpt>
      <trkpt lat="48.60631" lon="7.76302">
        <ele>138</ele>
        <time>2016-07-03T19:18:21Z</time>
      </trkpt>
      <trkpt lat="48.60491" lon="7.76321">
        <ele>140</ele>
        <time>2016-07-03T19:20:21Z</time>
      </trkpt>
      <trkpt lat="48.60453" lon="7.76327">
        <ele>140</ele>
        <time>2016-07-03T19:22:21Z</time>
      </trkpt>
      <trkpt lat="48.60444" lon="7.76329">
        <ele>140</ele>
        <time>2016-07-03T19:24:21Z</time>
      </trkpt>
      <trkpt lat="48.60439" lon="7.76331">
        <ele>140</ele>
        <time>2016-07-03T19:26:21Z</time>
      </trkpt>
      <trkpt lat="48.60431" lon="7.76334">
        <ele>140</ele>
        <time>2016-07-03T19:28:21Z</time>
      </trkpt>
      <trkpt lat="48.60419" lon="7.76337">
        <ele>140</ele>
        <time>2016-07-03T19:30:21Z</time>
      </trkpt>
      <trkpt lat="48.60408" lon="7.76341">
        <ele>139</ele>
        <time>2016-07-03T19:32:21Z</time>
      </trkpt>
      <trkpt lat="48.60392" lon="7.76347">
        <ele>138</ele>
        <time>2016-07-03T19:34:21Z</time>
      </trkpt>
      <trkpt lat="48.60357" lon="7.76363">
        <ele>135</ele>
        <time>2016-07-03T19:36:21Z</time>
      </trkpt>
      <trkpt lat="48.60354" lon="7.76364">
        <ele>135</ele>
        <time>2016-07-03T19:38:21Z</time>
      </trkpt>
      <trkpt lat="48.60338" lon="7.76371">
        <ele>134</ele>
        <time>2016-07-03T19:40:21Z</time>
      </trkpt>
      <trkpt lat="48.60328" lon="7.76376">
        <ele>134</ele>
        <time>2016-07-03T19:42:21Z</time>
      </trkpt>
      <trkpt lat="48.60319" lon="7.7638">
        <ele>134</ele>
        <time>2016-07-03T19:44:21Z</time>
      </trkpt>
      <trkpt lat="48.60312" lon="7.76385">
        <ele>135</ele>
        <time>2016-07-03T19:46:21Z</time>
      </trkpt>
      <trkpt lat="48.60304" lon="7.7639">
        <ele>135</ele>
        <time>2016-07-03T19:48:21Z</time>
      </trkpt>
      <trkpt lat="48.60296" lon="7.76396">
        <ele>135</ele>
        <time>2016-07-03T19:50:21Z</time>
      </trkpt>
      <trkpt lat="48.6029" lon="7.76402">
        <ele>135</ele>
        <time>2016-07-03T19:52:21Z</time>
      </trkpt>
      <trkpt lat="48.60287" lon="7.76406">
        <ele>135</ele>
        <time>2016-07-03T19:54:21Z</time>
      </trkpt>
      <trkpt lat="48.60282" lon="7.76413">
        <ele>136</ele>
        <time>2016-07-03T19:56:21Z</time>
      </trkpt>
      <trkpt lat="48.60278" lon="7.76415">
        <ele>136</ele>
        <time>2016-07-03T19:58:21Z</time>
      </trkpt>
      <trkpt lat="48.60243" lon="7.76436">
        <ele>136</ele>
        <time>2016-07-03T20:00:21Z</time>
      </trkpt>
      <trkpt lat="48.60241" lon="7.76437">
        <ele>136</ele>
        <time>2016-07-03T20:02:21Z</time>
      </trkpt>
      <trkpt lat="48.60234" lon="7.76442">
        <ele>136</ele>
        <time>2016-07-03T20:04:21Z</time>
      </trkpt>
      <trkpt lat="48.60217" lon="7.76467">
        <ele>136</ele>
        <time>2016-07-03T20:06:21Z</time>
      </trkpt>
      <trkpt lat="48.60217" lon="7.76467">
        <ele>136</ele>
        <time>2016-07-03T20:08:21Z</time>
      </trkpt>
      <trkpt lat="48.60226" lon="7.7646">
        <ele>136</ele>
        <time>2016-07-03T20:10:21Z</time>
      </trkpt>
      <trkpt lat="48.60228" lon="7.7646">
        <ele>136</ele>
        <time>2016-07-03T20:12:21Z</time>
      </trkpt>
      <trkpt lat="48.6023" lon="7.7646">
        <ele>136</ele>
        <time>2016-07-03T20:14:21Z</time>
      </trkpt>
      <trkpt lat="48.60235" lon="7.76459">
        <ele>136</ele>
        <time>2016-07-03T20:16:21Z</time>
      </trkpt>
      <trkpt lat="48.60237" lon="7.76459">
        <ele>136</ele>
        <time>2016-07-03T20:18:21Z</time>
      </trkpt>
      <trkpt lat="48.60238" lon="7.76458">
        <ele>136</ele>
        <time>2016-07-03T20:20:21Z</time>
      </trkpt>
      <trkpt lat="48.6024" lon="7.76458">
        <ele>136</ele>
        <time>2016-07-03T20:22:21Z</time>
      </trkpt>
      <trkpt lat="48.60242" lon="7.76459">
        <ele>136</ele>
        <time>2016-07-03T20:24:21Z</time>
      </trkpt>
      <trkpt lat="48.60244" lon="7.76461">
        <ele>136</ele>
        <time>2016-07-03T20:26:21Z</time>
      </trkpt>
      <trkpt lat="48.60245" lon="7.76463">
        <ele>136</ele>
        <time>2016-07-03T20:28:21Z</time>
      </trkpt>
      <trkpt lat="48.60247" lon="7.76467">
        <ele>136</ele>
        <time>2016-07-03T20:30:21Z</time>
      </trkpt>
      <trkpt lat="48.60249" lon="7.7647">
        <ele>136</ele>
        <time>2016-07-03T20:32:21Z</time>
      </trkpt>
      <trkpt lat="48.6025" lon="7.76472">
        <ele>136</ele>
        <time>2016-07-03T20:34:21Z</time>
      </trkpt>
      <trkpt lat="48.60253" lon="7.76474">
        <ele>136</ele>
        <time>2016-07-03T20:36:21Z</time>
      </trkpt>
      <trkpt lat="48.60255" lon="7.76475">
        <ele>136</ele>
        <time>2016-07-03T20:38:21Z</time>
      </trkpt>
      <trkpt lat="48.60259" lon="7.76479">
        <ele>136</ele>
        <time>2016-07-03T20:40:21Z</time>
      </trkpt>
      <trkpt lat="48.60261" lon="7.76479">
        <ele>136</ele>
        <time>2016-07-03T20:42:21Z</time>
      </trkpt>
      <trkpt lat="48.60262" lon="7.76479">
        <ele>136</ele>
        <time>2016-07-03T20:44:21Z</time>
      </trkpt>
      <trkpt lat="48.60264" lon="7.76478">
        <ele>136</ele>
        <time>2016-07-03T20:46:21Z</time>
      </trkpt>
      <trkpt lat="48.6029" lon="7.76456">
        <ele>136</ele>
        <time>2016-07-03T20:48:21Z</time>
      </trkpt>
      <trkpt lat="48.6029" lon="7.76456">
        <ele>136</ele>
        <time>2016-07-03T20:50:21Z</time>
      </trkpt>
      <trkpt lat="48.60287" lon="7.76445">
        <ele>136</ele>
        <time>2016-07-03T20:52:21Z</time>
      </trkpt>
      <trkpt lat="48.60285" lon="7.76439">
        <ele>136</ele>
        <time>2016-07-03T20:54:21Z</time>
      </trkpt>
      <trkpt lat="48.60283" lon="7.76431">
        <ele>136</ele>
        <time>2016-07-03T20:56:21Z</time>
      </trkpt>
      <trkpt lat="48.60283" lon="7.76429">
        <ele>136</ele>
        <time>2016-07-03T20:58:21Z</time>
      </trkpt>
      <trkpt lat="48.60282" lon="7.76427">
        <ele>136</ele>
        <time>2016-07-03T21:00:21Z</time>
      </trkpt>
      <trkpt lat="48.60282" lon="7.76423">
        <ele>136</ele>
        <time>2016-07-03T21:02:21Z</time>
      </trkpt>
      <trkpt lat="48.60282" lon="7.76413">
        <ele>136</ele>
        <time>2016-07-03T21:04:21Z</time>
      </trkpt>
      <trkpt lat="48.60282" lon="7.76413">
        <ele>136</ele>
        <time>2016-07-03T21:06:21Z</time>
      </trkpt>
      <trkpt lat="48.60278" lon="7.76415">
        <ele>136</ele>
        <time>2016-07-03T21:08:21Z</time>
      </trkpt>
      <trkpt lat="48.60243" lon="7.76436">
        <ele>136</ele>
        <time>2016-07-03T21:10:21Z</time>
      </trkpt>
      <trkpt lat="48.60241" lon="7.76437">
        <ele>136</ele>
        <time>2016-07-03T21:12:21Z</time>
      </trkpt>
      <trkpt lat="48.60234" lon="7.76442">
        <ele>136</ele>
        <time>2016-07-03T21:14:21Z</time>
      </trkpt>
      <trkpt lat="48.60217" lon="7.76467">
        <ele>136</ele>
        <time>2016-07-03T21:16:21Z</time>
      </trkpt>
      <trkpt lat="48.60217" lon="7.76467">
        <ele>136</ele>
        <time>2016-07-03T21:18:21Z</time>
      </trkpt>
      <trkpt lat="48.60209" lon="7.76474">
        <ele>136</ele>
        <time>2016-07-03T21:20:21Z</time>
      </trkpt>
      <trkpt lat="48.60186" lon="7.76496">
        <ele>136</ele>
        <time>2016-07-03T21:22:21Z</time>
      </trkpt>
      <trkpt lat="48.60156" lon="7.7653">
        <ele>137</ele>
        <time>2016-07-03T21:24:21Z</time>
      </trkpt>
      <trkpt lat="48.6014" lon="7.76551">
        <ele>137</ele>
        <time>2016-07-03T21:26:21Z</time>
      </trkpt>
      <trkpt lat="48.60132" lon="7.76565">
        <ele>137</ele>
        <time>2016-07-03T21:28:21Z</time>
      </trkpt>
      <trkpt lat="48.60126" lon="7.76573">
        <ele>137</ele>
        <time>2016-07-03T21:30:21Z</time>
      </trkpt>
      <trkpt lat="48.60099" lon="7.76621">
        <ele>136</ele>
        <time>2016-07-03T21:32:21Z</time>
      </trkpt>
      <trkpt lat="48.60086" lon="7.7664">
        <ele>135</ele>
        <time>2016-07-03T21:34:21Z</time>
      </trkpt>
      <trkpt lat="48.60076" lon="7.76657">
        <ele>135</ele>
        <time>2016-07-03T21:36:21Z</time>
      </trkpt>
      <trkpt lat="48.60075" lon="7.76659">
        <ele>135</ele>
        <time>2016-07-03T21:38:21Z</time>
      </trkpt>
      <trkpt lat="48.60067" lon="7.7667">
        <ele>136</ele>
        <time>2016-07-03T21:40:21Z</time>
      </trkpt>
      <trkpt lat="48.60067" lon="7.7667">
        <ele>136</ele>
        <time>2016-07-03T21:42:21Z</time>
      </trkpt>
      <trkpt lat="48.60063" lon="7.76666">
        <ele>136</ele>
        <time>2016-07-03T21:44:21Z</time>
      </trkpt>
      <trkpt lat="48.60061" lon="7.76667">
        <ele>136</ele>
        <time>2016-07-03T21:46:21Z</time>
      </trkpt>
      <trkpt lat="48.60058" lon="7.76669">
        <ele>136</ele>
        <time>2016-07-03T21:48:21Z</time>
      </trkpt>
      <trkpt lat="48.59991" lon="7.76777">
        <ele>133</ele>
        <time>2016-07-03T21:50:21Z</time>
      </trkpt>
      <trkpt lat="48.59987" lon="7.76783">
        <ele>133</ele>
        <time>2016-07-03T21:52:21Z</time>
      </trkpt>
      <trkpt lat="48.59975" lon="7.76802">
        <ele>133</ele>
        <time>2016-07-03T21:54:21Z</time>
      </trkpt>
      <trkpt lat="48.59966" lon="7.76816">
        <ele>133</ele>
        <time>2016-07-03T21:56:21Z</time>
      </trkpt>
      <trkpt lat="48.59965" lon="7.76819">
        <ele>133</ele>
        <time>2016-07-03T21:58:21Z</time>
      </trkpt>
      <trkpt lat="48.59962" lon="7.76822">
        <ele>133</ele>
        <time>2016-07-03T22:00:21Z</time>
      </trkpt>
      <trkpt lat="48.59955" lon="7.76834">
        <ele>133</ele>
        <time>2016-07-03T22:02:21Z</time>
      </trkpt>
      <trkpt lat="48.5994" lon="7.76858">
        <ele>134</ele>
        <time>2016-07-03T22:04:21Z</time>
      </trkpt>
      <trkpt lat="48.59898" lon="7.76928">
        <ele>136</ele>
        <time>2016-07-03T22:06:21Z</time>
      </trkpt>
      <trkpt lat="48.59867" lon="7.76978">
        <ele>137</ele>
        <time>2016-07-03T22:08:21Z</time>
      </trkpt>
      <trkpt lat="48.59865" lon="7.76981">
        <ele>137</ele>
        <time>2016-07-03T22:10:21Z</time>
      </trkpt>
      <trkpt lat="48.59864" lon="7.76985">
        <ele>137</ele>
        <time>2016-07-03T22:12:21Z</time>
      </trkpt>
      <trkpt lat="48.59863" lon="7.76993">
        <ele>137</ele>
        <time>2016-07-03T22:14:21Z</time>
      </trkpt>
      <trkpt lat="48.59863" lon="7.76993">
        <ele>137</ele>
        <time>2016-07-03T22:16:21Z</time>
      </trkpt>
      <trkpt lat="48.59902" lon="7.76929">
        <ele>135</ele>
        <time>2016-07-03T22:18:21Z</time>
      </trkpt>
      <trkpt lat="48.5994" lon="7.76869">
        <ele>134</ele>
        <time>2016-07-03T22:20:21Z</time>
      </trkpt>
      <trkpt lat="48.5994" lon="7.76869">
        <ele>134</ele>
        <time>2016-07-03T22:22:21Z</time>
      </trkpt>
      <trkpt lat="48.59937" lon="7.76864">
        <ele>134</ele>
        <time>2016-07-03T22:24:21Z</time>
      </trkpt>
      <trkpt lat="48.59935" lon="7.76861">
        <ele>134</ele>
        <time>2016-07-03T22:26:21Z</time>
      </trkpt>
      <trkpt lat="48.59933" lon="7.76859">
        <ele>134</ele>
        <time>2016-07-03T22:28:21Z</time>
      </trkpt>
      <trkpt lat="48.59925" lon="7.76847">
        <ele>135</ele>
        <time>2016-07-03T22:30:21Z</time>
      </trkpt>
      <trkpt lat="48.59917" lon="7.76835">
        <ele>135</ele>
        <time>2016-07-03T22:32:21Z</time>
      </trkpt>
      <trkpt lat="48.59909" lon="7.76823">
        <ele>136</ele>
        <time>2016-07-03T22:34:21Z</time>
      </trkpt>
      <trkpt lat="48.59891" lon="7.76797">
        <ele>139</ele>
        <time>2016-07-03T22:36:21Z</time>
      </trkpt>
      <trkpt lat="48.5989" lon="7.76796">
        <ele>139</ele>
        <time>2016-07-03T22:38:21Z</time>
      </trkpt>
      <trkpt lat="48.59889" lon="7.76793">
        <ele>139</ele>
        <time>2016-07-03T22:40:21Z</time>
      </trkpt>
      <trkpt lat="48.59886" lon="7.76782">
        <ele>140</ele>
        <time>2016-07-03T22:42:21Z</time>
      </trkpt>
      <trkpt lat="48.59886" lon="7.76782">
        <ele>140</ele>
        <time>2016-07-03T22:44:21Z</time>
      </trkpt>
      <trkpt lat="48.59884" lon="7.76782">
        <ele>140</ele>
        <time>2016-07-03T22:46:21Z</time>
      </trkpt>
      <trkpt lat="48.5988" lon="7.76781">
        <ele>140</ele>
        <time>2016-07-03T22:48:21Z</time>
      </trkpt>
      <trkpt lat="48.59868" lon="7.76773">
        <ele>141</ele>
        <time>2016-07-03T22:50:21Z</time>
      </trkpt>
      <trkpt lat="48.59813" lon="7.76734">
        <ele>144</ele>
        <time>2016-07-03T22:52:21Z</time>
      </trkpt>
      <trkpt lat="48.59805" lon="7.76727">
        <ele>144</ele>
        <time>2016-07-03T22:54:21Z</time>
      </trkpt>
      <trkpt lat="48.59798" lon="7.76717">
        <ele>144</ele>
        <time>2016-07-03T22:56:21Z</time>
      </trkpt>
      <trkpt lat="48.59791" lon="7.76702">
        <ele>143</ele>
        <time>2016-07-03T22:58:21Z</time>
      </trkpt>
      <trkpt lat="48.59791" lon="7.76702">
        <ele>143</ele>
        <time>2016-07-03T23:00:21Z</time>
      </trkpt>
      <trkpt lat="48.59778" lon="7.76701">
        <ele>143</ele>
        <time>2016-07-03T23:02:21Z</time>
      </trkpt>
      <trkpt lat="48.59767" lon="7.76701">
        <ele>143</ele>
        <time>2016-07-03T23:04:21Z</time>
      </trkpt>
      <trkpt lat="48.59757" lon="7.76701">
        <ele>144</ele>
        <time>2016-07-03T23:06:21Z</time>
      </trkpt>
      <trkpt lat="48.59747" lon="7.76702">
        <ele>144</ele>
        <time>2016-07-03T23:08:21Z</time>
      </trkpt>
      <trkpt lat="48.59737" lon="7.76704">
        <ele>143</ele>
        <time>2016-07-03T23:10:21Z</time>
      </trkpt>
      <trkpt lat="48.59728" lon="7.76706">
        <ele>143</ele>
        <time>2016-07-03T23:12:21Z</time>
      </trkpt>
      <trkpt lat="48.59717" lon="7.76709">
        <ele>143</ele>
        <time>2016-07-03T23:14:21Z</time>
      </trkpt>
      <trkpt lat="48.59706" lon="7.76713">
        <ele>142</ele>
        <time>2016-07-03T23:16:21Z</time>
      </trkpt>
      <trkpt lat="48.59697" lon="7.76717">
        <ele>142</ele>
        <time>2016-07-03T23:18:21Z</time>
      </trkpt>
      <trkpt lat="48.59694" lon="7.76718">
        <ele>142</ele>
        <time>2016-07-03T23:20:21Z</time>
      </trkpt>
      <trkpt lat="48.59684" lon="7.76723">
        <ele>142</ele>
        <time>2016-07-03T23:22:21Z</time>
      </trkpt>
      <trkpt lat="48.59672" lon="7.7673">
        <ele>141</ele>
        <time>2016-07-03T23:24:21Z</time>
      </trkpt>
      <trkpt lat="48.5966" lon="7.7674">
        <ele>141</ele>
        <time>2016-07-03T23:26:21Z</time>
      </trkpt>
      <trkpt lat="48.59648" lon="7.7675">
        <ele>142</ele>
        <time>2016-07-03T23:28:21Z</time>
      </trkpt>
      <trkpt lat="48.59637" lon="7.76761">
        <ele>141</ele>
        <time>2016-07-03T23:30:21Z</time>
      </trkpt>
      <trkpt lat="48.59625" lon="7.76774">
        <ele>141</ele>
        <time>2016-07-03T23:32:21Z</time>
      </trkpt>
      <trkpt lat="48.59617" lon="7.76783">
        <ele>141</ele>
        <time>2016-07-03T23:34:21Z</time>
      </trkpt>
      <trkpt lat="48.59613" lon="7.76788">
        <ele>140</ele>
        <time>2016-07-03T23:36:21Z</time>
      </trkpt>
      <trkpt lat="48.59609" lon="7.7679">
        <ele>140</ele>
        <time>2016-07-03T23:38:21Z</time>
      </trkpt>
      <trkpt lat="48.59609" lon="7.7679">
        <ele>140</ele>
        <time>2016-07-03T23:40:21Z</time>
      </trkpt>
      <trkpt lat="48.59608" lon="7.76787">
        <ele>140</ele>
        <time>2016-07-03T23:42:21Z</time>
      </trkpt>
      <trkpt lat="48.59608" lon="7.76785">
        <ele>140</ele>
        <time>2016-07-03T23:44:21Z</time>
      </trkpt>
      <trkpt lat="48.59606" lon="7.76781">
        <ele>140</ele>
        <time>2016-07-03T23:46:21Z</time>
      </trkpt>
      <trkpt lat="48.59604" lon="7.76779">
        <ele>140</ele>
        <time>2016-07-03T23:48:21Z</time>
      </trkpt>
      <trkpt lat="48.59603" lon="7.76776">
        <ele>140</ele>
        <time>2016-07-03T23:50:21Z</time>
      </trkpt>
      <trkpt lat="48.59601" lon="7.76775">
        <ele>140</ele>
        <time>2016-07-03T23:52:21Z</time>
      </trkpt>
      <trkpt lat="48.596" lon="7.76774">
        <ele>140</ele>
        <time>2016-07-03T23:54:21Z</time>
      </trkpt>
      <trkpt lat="48.59598" lon="7.76774">
        <ele>140</ele>
        <time>2016-07-03T23:56:21Z</time>
      </trkpt>
      <trkpt lat="48.59598" lon="7.76774">
        <ele>140</ele>
        <time>2016-07-03T23:58:21Z</time>
      </trkpt>
      <trkpt lat="48.59595" lon="7.76776">
        <ele>140</ele>
        <time>2016-07-04T00:00:21Z</time>
      </trkpt>
      <trkpt lat="48.59592" lon="7.76778">
        <ele>139</ele>
        <time>2016-07-04T00:02:21Z</time>
      </trkpt>
      <trkpt lat="48.5959" lon="7.76781">
        <ele>139</ele>
        <time>2016-07-04T00:04:21Z</time>
      </trkpt>
      <trkpt lat="48.59588" lon="7.76784">
        <ele>139</ele>
        <time>2016-07-04T00:06:21Z</time>
      </trkpt>
      <trkpt lat="48.59587" lon="7.76787">
        <ele>139</ele>
        <time>2016-07-04T00:08:21Z</time>
      </trkpt>
      <trkpt lat="48.59587" lon="7.76792">
        <ele>139</ele>
        <time>2016-07-04T00:10:21Z</time>
      </trkpt>
      <trkpt lat="48.59587" lon="7.76792">
        <ele>139</ele>
        <time>2016-07-04T00:12:21Z</time>
      </trkpt>
      <trkpt lat="48.5958" lon="7.76786">
        <ele>139</ele>
        <time>2016-07-04T00:14:21Z</time>
      </trkpt>
      <trkpt lat="48.59576" lon="7.76782">
        <ele>139</ele>
        <time>2016-07-04T00:16:21Z</time>
      </trkpt>
      <trkpt lat="48.59572" lon="7.7678">
        <ele>139</ele>
        <time>2016-07-04T00:18:21Z</time>
      </trkpt>
      <trkpt lat="48.59569" lon="7.76778">
        <ele>139</ele>
        <time>2016-07-04T00:20:21Z</time>
      </trkpt>
      <trkpt lat="48.59568" lon="7.76778">
        <ele>139</ele>
        <time>2016-07-04T00:22:21Z</time>
      </trkpt>
      <trkpt lat="48.59565" lon="7.76776">
        <ele>139</ele>
        <time>2016-07-04T00:24:21Z</time>
      </trkpt>
      <trkpt lat="48.59561" lon="7.76773">
        <ele>139</ele>
        <time>2016-07-04T00:26:21Z</time>
      </trkpt>
      <trkpt lat="48.5955" lon="7.76763">
        <ele>138</ele>
        <time>2016-07-04T00:28:21Z</time>
      </trkpt>
      <trkpt lat="48.59539" lon="7.76751">
        <ele>137</ele>
        <time>2016-07-04T00:30:21Z</time>
      </trkpt>
      <trkpt lat="48.59529" lon="7.7674">
        <ele>136</ele>
        <time>2016-07-04T00:32:21Z</time>
      </trkpt>
      <trkpt lat="48.59519" lon="7.76731">
        <ele>135</ele>
        <time>2016-07-04T00:34:21Z</time>
      </trkpt>
      <trkpt lat="48.59508" lon="7.76721">
        <ele>134</ele>
        <time>2016-07-04T00:36:21Z</time>
      </trkpt>
      <trkpt lat="48.59492" lon="7.76707">
        <ele>133</ele>
        <time>2016-07-04T00:38:21Z</time>
      </trkpt>
      <trkpt lat="48.59475" lon="7.76695">
        <ele>132</ele>
        <time>2016-07-04T00:40:21Z</time>
      </trkpt>
      <trkpt lat="48.59468" lon="7.7669">
        <ele>132</ele>
        <time>2016-07-04T00:42:21Z</time>
      </trkpt>
      <trkpt lat="48.59459" lon="7.76682">
        <ele>132</ele>
        <time>2016-07-04T00:44:21Z</time>
      </trkpt>
      <trkpt lat="48.59441" lon="7.76669">
        <ele>132</ele>
        <time>2016-07-04T00:46:21Z</time>
      </trkpt>
      <trkpt lat="48.59437" lon="7.76667">
        <ele>132</ele>
        <time>2016-07-04T00:48:21Z</time>
      </trkpt>
      <trkpt lat="48.5943" lon="7.76663">
        <ele>132</ele>
        <time>2016-07-04T00:50:21Z</time>
      </trkpt>
      <trkpt lat="48.59422" lon="7.76661">
        <ele>133</ele>
        <time>2016-07-04T00:52:21Z</time>
      </trkpt>
      <trkpt lat="48.59412" lon="7.76658">
        <ele>133</ele>
        <time>2016-07-04T00:54:21Z</time>
      </trkpt>
      <trkpt lat="48.59398" lon="7.76655">
        <ele>133</ele>
        <time>2016-07-04T00:56:21Z</time>
      </trkpt>
      <trkpt lat="48.59377" lon="7.76651">
        <ele>133</ele>
        <time>2016-07-04T00:58:21Z</time>
      </trkpt>
      <trkpt lat="48.59361" lon="7.76647">
        <ele>133</ele>
        <time>2016-07-04T01:00:21Z</time>
      </trkpt>
      <trkpt lat="48.59347" lon="7.76645">
        <ele>134</ele>
        <time>2016-07-04T01:02:21Z</time>
      </trkpt>
      <trkpt lat="48.59328" lon="7.76639">
        <ele>134</ele>
        <time>2016-07-04T01:04:21Z</time>
      </trkpt>
      <trkpt lat="48.59328" lon="7.76639">
        <ele>134</ele>
        <time>2016-07-04T01:06:21Z</time>
      </trkpt>
      <trkpt lat="48.59318" lon="7.76637">
        <ele>135</ele>
        <time>2016-07-04T01:08:21Z</time>
      </trkpt>
      <trkpt lat="48.59274" lon="7.76631">
        <ele>136</ele>
        <time>2016-07-04T01:10:21Z</time>
      </trkpt>
      <trkpt lat="48.59269" lon="7.7663">
        <ele>137</ele>
        <time>2016-07-04T01:12:21Z</time>
      </trkpt>
      <trkpt lat="48.5926" lon="7.76626">
        <ele>137</ele>
        <time>2016-07-04T01:14:21Z</time>
      </trkpt>
      <trkpt lat="48.59256" lon="7.76625">
        <ele>137</ele>
        <time>2016-07-04T01:16:21Z</time>
      </trkpt>
      <trkpt lat="48.59241" lon="7.76621">
        <ele>138</ele>
        <time>2016-07-04T01:18:21Z</time>
      </trkpt>
      <trkpt lat="48.59205" lon="7.7661">
        <ele>140</ele>
        <time>2016-07-04T01:20:21Z</time>
      </trkpt>
      <trkpt lat="48.59185" lon="7.766">
        <ele>141</ele>
        <time>2016-07-04T01:22:21Z</time>
      </trkpt>
      <trkpt lat="48.59171" lon="7.76589">
        <ele>141</ele>
        <time>2016-07-04T01:24:21Z</time>
      </trkpt>
      <trkpt lat="48.59169" lon="7.76588">
        <ele>141</ele>
        <time>2016-07-04T01:26:21Z</time>
      </trkpt>
      <trkpt lat="48.59162" lon="7.76582">
        <ele>142</ele>
        <time>2016-07-04T01:28:21Z</time>
      </trkpt>
      <trkpt lat="48.59148" lon="7.76568">
        <ele>144</ele>
        <time>2016-07-04T01:30:21Z</time>
      </trkpt>
      <trkpt lat="48.59142" lon="7.76562">
        <ele>144</ele>
        <time>2016-07-04T01:32:21Z</time>
      </trkpt>
      <trkpt lat="48.59131" lon="7.76551">
        <ele>145</ele>
        <time>2016-07-04T01:34:21Z</time>
      </trkpt>
      <trkpt lat="48.59123" lon="7.76541">
        <ele>146</ele>
        <time>2016-07-04T01:36:21Z</time>
      </trkpt>
      <trkpt lat="48.59109" lon="7.76523">
        <ele>147</ele>
        <time>2016-07-04T01:38:21Z</time>
      </trkpt>
      <trkpt lat="48.59093" lon="7.76499">
        <ele>146</ele>
        <time>2016-07-04T01:40:21Z</time>
      </trkpt>
      <trkpt lat="48.59093" lon="7.76498">
        <ele>146</ele>
        <time>2016-07-04T01:42:21Z</time>
      </trkpt>
      <trkpt lat="48.59089" lon="7.76493">
        <ele>146</ele>
        <time>2016-07-04T01:44:21Z</time>
      </trkpt>
      <trkpt lat="48.59088" lon="7.76492">
        <ele>146</ele>
        <time>2016-07-04T01:46:21Z</time>
      </trkpt>
      <trkpt lat="48.5908" lon="7.7648">
        <ele>145</ele>
        <time>2016-07-04T01:48:21Z</time>
      </trkpt>
      <trkpt lat="48.59067" lon="7.76461">
        <ele>144</ele>
        <time>2016-07-04T01:50:21Z</time>
      </trkpt>
      <trkpt lat="48.59065" lon="7.76458">
        <ele>143</ele>
        <time>2016-07-04T01:52:21Z</time>
      </trkpt>
      <trkpt lat="48.59032" lon="7.76415">
        <ele>141</ele>
        <time>2016-07-04T01:54:21Z</time>
      </trkpt>
      <trkpt lat="48.59007" lon="7.76384">
        <ele>140</ele>
        <time>2016-07-04T01:56:21Z</time>
      </trkpt>
      <trkpt lat="48.58998" lon="7.76371">
        <ele>139</ele>
        <time>2016-07-04T01:58:21Z</time>
      </trkpt>
      <trkpt lat="48.58988" lon="7.76361">
        <ele>139</ele>
        <time>2016-07-04T02:00:21Z</time>
      </trkpt>
      <trkpt lat="48.58975" lon="7.7635">
        <ele>139</ele>
        <time>2016-07-04T02:02:21Z</time>
      </trkpt>
      <trkpt lat="48.58962" lon="7.76344">
        <ele>139</ele>
        <time>2016-07-04T02:04:21Z</time>
      </trkpt>
      <trkpt lat="48.58945" lon="7.76339">
        <ele>139</ele>
        <time>2016-07-04T02:06:21Z</time>
      </trkpt>
      <trkpt lat="48.58928" lon="7.76336">
        <ele>139</ele>
        <time>2016-07-04T02:08:21Z</time>
      </trkpt>
      <trkpt lat="48.58913" lon="7.76337">
        <ele>139</ele>
        <time>2016-07-04T02:10:21Z</time>
      </trkpt>
      <trkpt lat="48.58892" lon="7.76338">
        <ele>140</ele>
        <time>2016-07-04T02:12:21Z</time>
      </trkpt>
      <trkpt lat="48.58875" lon="7.76339">
        <ele>140</ele>
        <time>2016-07-04T02:14:21Z</time>
      </trkpt>
      <trkpt lat="48.5886" lon="7.76335">
        <ele>140</ele>
        <time>2016-07-04T02:16:21Z</time>
      </trkpt>
      <trkpt lat="48.58838" lon="7.7633">
        <ele>140</ele>
        <time>2016-07-04T02:18:21Z</time>
      </trkpt>
      <trkpt lat="48.58819" lon="7.76319">
        <ele>141</ele>
        <time>2016-07-04T02:20:21Z</time>
      </trkpt>
      <trkpt lat="48.58792" lon="7.76302">
        <ele>143</ele>
        <time>2016-07-04T02:22:21Z</time>
      </trkpt>
      <trkpt lat="48.5878" lon="7.76291">
        <ele>143</ele>
        <time>2016-07-04T02:24:21Z</time>
      </trkpt>
      <trkpt lat="48.58756" lon="7.76263">
        <ele>143</ele>
        <time>2016-07-04T02:26:21Z</time>
      </trkpt>
      <trkpt lat="48.58748" lon="7.7625">
        <ele>143</ele>
        <time>2016-07-04T02:28:21Z</time>
      </trkpt>
      <trkpt lat="48.58745" lon="7.76244">
        <ele>143</ele>
        <time>2016-07-04T02:30:21Z</time>
      </trkpt>
      <trkpt lat="48.58744" lon="7.76243">
        <ele>143</ele>
        <time>2016-07-04T02:32:21Z</time>
      </trkpt>
      <trkpt lat="48.58738" lon="7.76228">
        <ele>143</ele>
        <time>2016-07-04T02:34:21Z</time>
      </trkpt>
      <trkpt lat="48.58734" lon="7.7622">
        <ele>144</ele>
        <time>2016-07-04T02:36:21Z</time>
      </trkpt>
      <trkpt lat="48.58732" lon="7.76217">
        <ele>144</ele>
        <time>2016-07-04T02:38:21Z</time>
      </trkpt>
      <trkpt lat="48.58724" lon="7.76208">
        <ele>144</ele>
        <time>2016-07-04T02:40:21Z</time>
      </trkpt>
      <trkpt lat="48.58717" lon="7.76195">
        <ele>144</ele>
        <time>2016-07-04T02:42:21Z</time>
      </trkpt>
      <trkpt lat="48.58716" lon="7.76194">
        <ele>144</ele>
        <time>2016-07-04T02:44:21Z</time>
      </trkpt>
      <trkpt lat="48.5868" lon="7.76146">
        <ele>146</ele>
        <time>2016-07-04T02:46:21Z</time>
      </trkpt>
      <trkpt lat="48.58674" lon="7.76141">
        <ele>146</ele>
        <time>2016-07-04T02:48:21Z</time>
      </trkpt>
      <trkpt lat="48.58663" lon="7.76125">
        <ele>146</ele>
        <time>2016-07-04T02:50:21Z</time>
      </trkpt>
      <trkpt lat="48.58659" lon="7.76118">
        <ele>145</ele>
        <time>2016-07-04T02:52:21Z</time>
      </trkpt>
      <trkpt lat="48.58655" lon="7.76111">
        <ele>145</ele>
        <time>2016-07-04T02:54:21Z</time>
      </trkpt>
      <trkpt lat="48.58623" lon="7.76044">
        <ele>141</ele>
        <time>2016-07-04T02:56:21Z</time>
      </trkpt>
      <trkpt lat="48.58591" lon="7.75969">
        <ele>139</ele>
        <time>2016-07-04T02:58:21Z</time>
      </trkpt>
      <trkpt lat="48.58587" lon="7.75957">
        <ele>139</ele>
        <time>2016-07-04T03:00:21Z</time>
      </trkpt>
      <trkpt lat="48.58568" lon="7.75945">
        <ele>139</ele>
        <time>2016-07-04T03:02:21Z</time>
      </trkpt>
      <trkpt lat="48.58563" lon="7.75942">
        <ele>139</ele>
        <time>2016-07-04T03:04:21Z</time>
      </trkpt>
      <trkpt lat="48.58563" lon="7.75942">
        <ele>139</ele>
        <time>2016-07-04T03:06:21Z</time>
      </trkpt>
      <trkpt lat="48.58581" lon="7.7588">
        <ele>141</ele>
        <time>2016-07-04T03:08:21Z</time>
      </trkpt>
      <trkpt lat="48.58585" lon="7.75862">
        <ele>142</ele>
        <time>2016-07-04T03:10:21Z</time>
      </trkpt>
      <trkpt lat="48.58585" lon="7.75862">
        <ele>142</ele>
        <time>2016-07-04T03:12:21Z</time>
      </trkpt>
      <trkpt lat="48.58477" lon="7.75803">
        <ele>144</ele>
        <time>2016-07-04T03:14:21Z</time>
      </trkpt>
      <trkpt lat="48.5847" lon="7.75798">
        <ele>143</ele>
        <time>2016-07-04T03:16:21Z</time>
      </trkpt>
      <trkpt lat="48.58466" lon="7.75795">
        <ele>143</ele>
        <time>2016-07-04T03:18:21Z</time>
      </trkpt>
      <trkpt lat="48.58461" lon="7.75791">
        <ele>143</ele>
        <time>2016-07-04T03:20:21Z</time>
      </trkpt>
      <trkpt lat="48.58456" lon="7.75786">
        <ele>143</ele>
        <time>2016-07-04T03:22:21Z</time>
      </trkpt>
      <trkpt lat="48.58454" lon="7.75785">
        <ele>142</ele>
        <time>2016-07-04T03:24:21Z</time>
      </trkpt>
      <trkpt lat="48.5845" lon="7.75781">
        <ele>142</ele>
        <time>2016-07-04T03:26:21Z</time>
      </trkpt>
      <trkpt lat="48.5845" lon="7.75781">
        <ele>142</ele>
        <time>2016-07-04T03:28:21Z</time>
      </trkpt>
      <trkpt lat="48.58449" lon="7.75783">
        <ele>142</ele>
        <time>2016-07-04T03:30:21Z</time>
      </trkpt>
      <trkpt lat="48.58441" lon="7.75802">
        <ele>140</ele>
        <time>2016-07-04T03:32:21Z</time>
      </trkpt>
      <trkpt lat="48.58429" lon="7.75833">
        <ele>138</ele>
        <time>2016-07-04T03:34:21Z</time>
      </trkpt>
      <trkpt lat="48.58416" lon="7.75866">
        <ele>139</ele>
        <time>2016-07-04T03:36:21Z</time>
      </trkpt>
      <trkpt lat="48.58411" lon="7.75881">
        <ele>140</ele>
        <time>2016-07-04T03:38:21Z</time>
      </trkpt>
      <trkpt lat="48.58411" lon="7.75881">
        <ele>140</ele>
        <time>2016-07-04T03:40:21Z</time>
      </trkpt>
      <trkpt lat="48.58356" lon="7.75826">
        <ele>141</ele>
        <time>2016-07-04T03:42:21Z</time>
      </trkpt>
      <trkpt lat="48.58319" lon="7.75795">
        <ele>142</ele>
        <time>2016-07-04T03:44:21Z</time>
      </trkpt>
      <trkpt lat="48.58312" lon="7.75788">
        <ele>142</ele>
        <time>2016-07-04T03:46:21Z</time>
      </trkpt>
      <trkpt lat="48.58253" lon="7.75734">
        <ele>143</ele>
        <time>2016-07-04T03:48:21Z</time>
      </trkpt>
      <trkpt lat="48.58246" lon="7.75722">
        <ele>142</ele>
        <time>2016-07-04T03:50:21Z</time>
      </trkpt>
      <trkpt lat="48.58235" lon="7.75691">
        <ele>142</ele>
        <time>2016-07-04T03:52:21Z</time>
      </trkpt>
      <trkpt lat="48.5823" lon="7.75678">
        <ele>142</ele>
        <time>2016-07-04T03:54:21Z</time>
      </trkpt>
      <trkpt lat="48.5823" lon="7.75678">
        <ele>142</ele>
        <time>2016-07-04T03:56:21Z</time>
      </trkpt>
      <trkpt lat="48.58227" lon="7.75673">
        <ele>142</ele>
        <time>2016-07-04T03:58:21Z</time>
      </trkpt>
      <trkpt lat="48.58224" lon="7.7567">
        <ele>142</ele>
        <time>2016-07-04T04:00:21Z</time>
      </trkpt>
      <trkpt lat="48.58214" lon="7.7566">
        <ele>142</ele>
        <time>2016-07-04T04:02:21Z</time>
      </trkpt>
      <trkpt lat="48.58202" lon="7.75648">
        <ele>142</ele>
        <time>2016-07-04T04:04:21Z</time>
      </trkpt>
      <trkpt lat="48.58199" lon="7.75645">
        <ele>142</ele>
        <time>2016-07-04T04:06:21Z</time>
      </trkpt>
      <trkpt lat="48.58195" lon="7.7564">
        <ele>142</ele>
        <time>2016-07-04T04:08:21Z</time>
      </trkpt>
      <trkpt lat="48.58193" lon="7.75636">
        <ele>142</ele>
        <time>2016-07-04T04:10:21Z</time>
      </trkpt>
      <trkpt lat="48.58193" lon="7.75636">
        <ele>142</ele>
        <time>2016-07-04T04:12:21Z</time>
      </trkpt>
      <trkpt lat="48.5817" lon="7.75638">
        <ele>142</ele>
        <time>2016-07-04T04:14:21Z</time>
      </trkpt>
      <trkpt lat="48.58157" lon="7.75639">
        <ele>142</ele>
        <time>2016-07-04T04:16:21Z</time>
      </trkpt>
      <trkpt lat="48.58141" lon="7.7564">
        <ele>143</ele>
        <time>2016-07-04T04:18:21Z</time>
      </trkpt>
      <trkpt lat="48.5812" lon="7.75641">
        <ele>143</ele>
        <time>2016-07-04T04:20:21Z</time>
      </trkpt>
      <trkpt lat="48.58043" lon="7.75645">
        <ele>144</ele>
        <time>2016-07-04T04:22:21Z</time>
      </trkpt>
      <trkpt lat="48.58004" lon="7.75647">
        <ele>146</ele>
        <time>2016-07-04T04:24:21Z</time>
      </trkpt>
      <trkpt lat="48.58" lon="7.75647">
        <ele>146</ele>
        <time>2016-07-04T04:26:21Z</time>
      </trkpt>
      <trkpt lat="48.57997" lon="7.75647">
        <ele>146</ele>
        <time>2016-07-04T04:28:21Z</time>
      </trkpt>
      <trkpt lat="48.57995" lon="7.75646">
        <ele>146</ele>
        <time>2016-07-04T04:30:21Z</time>
      </trkpt>
      <trkpt lat="48.57993" lon="7.75645">
        <ele>146</ele>
        <time>2016-07-04T04:32:21Z</time>
      </trkpt>
      <trkpt lat="48.57986" lon="7.7564">
        <ele>146</ele>
        <time>2016-07-04T04:34:21Z</time>
      </trkpt>
      <trkpt lat="48.57981" lon="7.75634">
        <ele>146</ele>
        <time>2016-07-04T04:36:21Z</time>
      </trkpt>
      <trkpt lat="48.57977" lon="7.75629">
        <ele>146</ele>
        <time>2016-07-04T04:38:21Z</time>
      </trkpt>
      <trkpt lat="48.57977" lon="7.75629">
        <ele>146</ele>
        <time>2016-07-04T04:40:21Z</time>
      </trkpt>
      <trkpt lat="48.57955" lon="7.756">
        <ele>147</ele>
        <time>2016-07-04T04:42:21Z</time>
      </trkpt>
      <trkpt lat="48.57932" lon="7.75573">
        <ele>148</ele>
        <time>2016-07-04T04:44:21Z</time>
      </trkpt>
      <trkpt lat="48.5791" lon="7.75546">
        <ele>147</ele>
        <time>2016-07-04T04:46:21Z</time>
      </trkpt>
      <trkpt lat="48.57882" lon="7.75508">
        <ele>146</ele>
        <time>2016-07-04T04:48:21Z</time>
      </trkpt>
      <trkpt lat="48.57882" lon="7.75508">
        <ele>146</ele>
        <time>2016-07-04T04:50:21Z</time>
      </trkpt>
      <trkpt lat="48.57888" lon="7.75495">
        <ele>145</ele>
        <time>2016-07-04T04:52:21Z</time>
      </trkpt>
      <trkpt lat="48.57897" lon="7.75476">
        <ele>145</ele>
        <time>2016-07-04T04:54:21Z</time>
      </trkpt>
      <trkpt lat="48.579" lon="7.75472">
        <ele>145</ele>
        <time>2016-07-04T04:56:21Z</time>
      </trkpt>
      <trkpt lat="48.57901" lon="7.7547">
        <ele>145</ele>
        <time>2016-07-04T04:58:21Z</time>
      </trkpt>
      <trkpt lat="48.57913" lon="7.75452">
        <ele>145</ele>
        <time>2016-07-04T05:00:21Z</time>
      </trkpt>
      <trkpt lat="48.57935" lon="7.75426">
        <ele>145</ele>
        <time>2016-07-04T05:02:21Z</time>
      </trkpt>
      <trkpt lat="48.57964" lon="7.75395">
        <ele>144</ele>
        <time>2016-07-04T05:04:21Z</time>
      </trkpt>
    </trkseg>
  </trk>
</gpx>